[[{"header":{"parameterUnit":"m.s-1","parameterCategory":1,"la1":30.6,"la2":28.766,"lo1":-90.7593,"lo2":-88.6598,"dx":0.0162,"dy":0.0183,"nx":116,"ny":114,"refTime":"2023-01-12T06:00:00:Z","depth":0,"parameterNumber":2,"parameterNumberName":"U-component_of_WINDS"},"data":[0.0,0.0,0.0,0.0,0.0,0.0,0.0,0.0,0.0,0.0,0.0,0.0,0.0,0.0,0.0,0.0,0.0,0.0,0.0,0.0,0.0,0.0,0.0,0.0,0.0,0.0,0.0,0.0,0.0,0.0,0.0,0.0,0.0,0.0,0.0,0.0,0.0,0.0,0.0,0.0,0.0,0.0,0.0,0.0,0.0,0.0,0.0,0.0,0.0,0.0,0.0,0.0,0.0,0.0,0.0,0.0,0.0,0.0,0.0,0.0,0.0,0.0,0.0,0.0,0.0,0.0,0.0,0.0,0.0,0.0,0.0,0.0,0.0,0.0,0.0,0.0,0.0,0.0,0.0,0.0,0.0,0.0,0.0,0.0,0.0,0.0,0.0,0.0,0.0,0.0,0.0,0.0,0.0,0.0,0.0,0.0,0.0,0.0,0.0,0.0,0.0,0.0,0.0,0.0,0.0,0.0,0.0,0.0,0.0,0.0,0.0,0.0,0.0,0.0,0.0,0.0,0.0,0.0,0.0,0.0,0.0,0.0,0.0,0.0,0.0,0.0,0.0,0.0,0.0,0.0,0.0,0.0,0.0,0.0,0.0,0.0,0.0,0.0,0.0,0.0,0.0,0.0,0.0,0.0,0.0,0.0,0.0,0.0,0.0,0.0,0.0,0.0,0.0,0.0,0.0,0.0,0.0,0.0,0.0,0.0,0.0,0.0,0.0,0.0,0.0,0.0,0.0,0.0,0.0,0.0,0.0,0.0,0.0,0.0,0.0,0.0,0.0,0.0,0.0,0.0,0.0,0.0,0.0,0.0,0.0,0.0,0.0,0.0,0.0,0.0,0.0,0.0,0.0,0.0,0.0,0.0,0.0,0.0,0.0,0.0,0.0,0.0,0.0,0.0,0.0,0.0,0.0,0.0,0.0,0.0,0.0,0.0,0.0,0.0,0.0,0.0,0.0,0.0,0.0,0.0,0.0,0.0,0.0,0.0,0.0,0.0,0.0,0.0,0.0,0.0,0.0,0.0,0.0,0.0,0.0,0.0,0.0,0.0,0.0,0.0,0.0,0.0,0.0,0.0,0.0,0.0,0.0,0.0,0.0,0.0,0.0,0.0,0.0,0.0,0.0,0.0,0.0,0.0,0.0,0.0,0.0,0.0,0.0,0.0,0.0,0.0,0.0,0.0,0.0,0.0,0.0,0.0,0.0,0.0,0.0,0.0,0.0,0.0,0.0,0.0,0.0,0.0,0.0,0.0,0.0,0.0,0.0,0.0,0.0,0.0,0.0,0.0,0.0,0.0,0.0,0.0,0.0,0.0,0.0,0.0,0.0,0.0,0.0,0.0,0.0,0.0,0.0,0.0,0.0,0.0,0.0,0.0,0.0,0.0,0.0,0.0,0.0,0.0,0.0,0.0,0.0,0.0,0.0,0.0,0.0,0.0,0.0,0.0,0.0,0.0,0.0,0.0,0.0,0.0,0.0,0.0,0.0,0.0,0.0,0.0,0.0,0.0,0.0,0.0,0.0,0.0,0.0,0.0,0.0,0.0,0.0,0.0,0.0,0.0,0.0,0.0,0.0,0.0,0.0,0.0,0.0,0.0,0.0,0.0,0.0,0.0,0.0,0.0,0.0,0.0,0.0,0.0,0.0,0.0,0.0,0.0,0.0,0.0,0.0,0.0,0.0,0.0,0.0,0.0,0.0,0.0,0.0,0.0,0.0,0.0,0.0,0.0,0.0,0.0,0.0,0.0,0.0,0.0,0.0,0.0,0.0,0.0,0.0,0.0,0.0,0.0,0.0,0.0,0.0,0.0,0.0,0.0,0.0,0.0,0.0,0.0,0.0,0.0,0.0,0.0,0.0,0.0,0.0,0.0,0.0,0.0,0.0,0.0,0.0,0.0,0.0,0.0,0.0,0.0,0.0,0.0,0.0,0.0,0.0,0.0,0.0,0.0,0.0,0.0,0.0,0.0,0.0,0.0,0.0,0.0,0.0,0.0,0.0,0.0,0.0,0.0,0.0,0.0,0.0,0.0,0.0,0.0,0.0,0.0,0.0,0.0,0.0,0.0,0.0,0.0,0.0,0.0,0.0,0.0,0.0,0.0,0.0,0.0,0.0,0.0,0.0,0.0,0.0,0.0,0.0,0.0,0.0,0.0,0.0,0.0,0.0,0.0,0.0,0.0,0.0,0.0,0.0,0.0,0.0,0.0,0.0,0.0,0.0,0.0,0.0,0.0,0.0,0.0,0.0,0.0,0.0,0.0,0.0,0.0,0.0,0.0,0.0,0.0,0.0,0.0,0.0,0.0,0.0,0.0,0.0,0.0,0.0,0.0,0.0,0.0,0.0,0.0,0.0,0.0,0.0,0.0,0.0,0.0,0.0,0.0,0.0,0.0,0.0,0.0,0.0,0.0,0.0,0.0,0.0,0.0,0.0,0.0,0.0,0.0,0.0,0.0,0.0,0.0,0.0,0.0,0.0,0.0,0.0,0.0,0.0,0.0,0.0,0.0,0.0,0.0,0.0,0.0,0.0,0.0,0.0,0.0,0.0,0.0,0.0,0.0,0.0,0.0,0.0,0.0,0.0,0.0,0.0,0.0,0.0,0.0,0.0,0.0,0.0,0.0,0.0,0.0,0.0,0.0,0.0,0.0,0.0,0.0,0.0,0.0,0.0,0.0,0.0,0.0,0.0,0.0,0.0,0.0,0.0,0.0,0.0,0.0,0.0,0.0,0.0,0.0,0.0,0.0,0.0,0.0,0.0,0.0,0.0,0.0,0.0,0.0,0.0,0.0,0.0,0.0,0.0,0.0,0.0,0.0,0.0,0.0,0.0,0.0,0.0,0.0,0.0,0.0,0.0,0.0,0.0,0.0,0.0,0.0,0.0,0.0,0.0,0.0,0.0,0.0,0.0,0.0,0.0,0.0,0.0,0.0,0.0,0.0,0.0,0.0,0.0,0.0,0.0,0.0,0.0,0.0,0.0,0.0,0.0,0.0,0.0,0.0,0.0,0.0,0.0,0.0,0.0,0.0,0.0,0.0,0.0,0.0,0.0,0.0,0.0,0.0,0.0,0.0,0.0,0.0,0.0,0.0,0.0,0.0,0.0,0.0,0.0,0.0,0.0,0.0,0.0,0.0,0.0,0.0,0.0,0.0,0.0,0.0,0.0,0.0,0.0,0.0,0.0,0.0,0.0,0.0,0.0,0.0,0.0,0.0,0.0,0.0,0.0,0.0,0.0,0.0,0.0,0.0,0.0,0.0,0.0,0.0,0.0,0.0,0.0,0.0,0.0,0.0,0.0,0.0,0.0,0.0,0.0,0.0,0.0,0.0,0.0,0.0,0.0,0.0,0.0,0.0,0.0,0.0,0.0,0.0,0.0,0.0,0.0,0.0,0.0,0.0,0.0,0.0,0.0,0.0,0.0,0.0,0.0,0.0,0.0,0.0,0.0,0.0,0.0,0.0,0.0,0.0,0.0,0.0,0.0,0.0,0.0,0.0,0.0,0.0,0.0,0.0,0.0,0.0,0.0,0.0,0.0,0.0,0.0,0.0,0.0,0.0,0.0,0.0,0.0,0.0,0.0,0.0,0.0,0.0,0.0,0.0,0.0,0.0,0.0,0.0,0.0,0.0,0.0,0.0,0.0,0.0,0.0,0.0,0.0,0.0,0.0,0.0,0.0,0.0,0.0,0.0,0.0,0.0,0.0,0.0,0.0,0.0,0.0,0.0,0.0,0.0,0.0,0.0,0.0,0.0,0.0,0.0,0.0,0.0,0.0,0.0,0.0,0.0,0.0,0.0,0.0,0.0,0.0,0.0,0.0,0.0,0.0,0.0,0.0,0.0,0.0,0.0,0.0,0.0,0.0,0.0,0.0,0.0,0.0,0.0,0.0,0.0,0.0,0.0,0.0,0.0,0.0,0.0,0.0,0.0,0.0,0.0,0.0,0.0,0.0,0.0,0.0,0.0,0.0,0.0,0.0,0.0,0.0,0.0,0.0,0.0,0.0,0.0,0.0,0.0,0.0,0.0,0.0,0.0,0.0,0.0,0.0,0.0,0.0,0.0,0.0,0.0,0.0,0.0,0.0,0.0,0.0,0.0,0.0,0.0,0.0,0.0,0.0,0.0,0.0,0.0,0.0,0.0,0.0,0.0,0.0,0.0,0.0,0.0,0.0,0.0,0.0,0.0,0.0,0.0,0.0,0.0,0.0,0.0,0.0,0.0,0.0,0.0,0.0,0.0,0.0,0.0,0.0,0.0,0.0,0.0,0.0,0.0,0.0,0.0,0.0,0.0,0.0,0.0,0.0,0.0,0.0,0.0,0.0,0.0,0.0,0.0,0.0,0.0,0.0,0.0,0.0,0.0,0.0,0.0,0.0,0.0,0.0,0.0,0.0,0.0,0.0,0.0,0.0,0.0,0.0,0.0,0.0,0.0,0.0,0.0,0.0,0.0,0.0,0.0,0.0,0.0,0.0,0.0,0.0,0.0,0.0,0.0,0.0,0.0,0.0,0.0,0.0,0.0,0.0,0.0,0.0,0.0,0.0,0.0,0.0,0.0,0.0,0.0,0.0,0.0,0.0,0.0,0.0,0.0,0.0,0.0,0.0,0.0,0.0,0.0,0.0,0.0,0.0,0.0,0.0,0.0,0.0,0.0,0.0,0.0,0.0,0.0,0.0,0.0,0.0,0.0,0.0,0.0,0.0,0.0,0.0,0.0,0.0,0.0,0.0,0.0,0.0,0.0,0.0,0.0,0.0,0.0,0.0,0.0,0.0,0.0,0.0,0.0,0.0,0.0,0.0,0.0,0.0,0.0,0.0,0.0,0.0,0.0,0.0,0.0,0.0,0.0,0.0,0.0,0.0,0.0,0.0,0.0,0.0,0.0,0.0,0.0,0.0,0.0,0.0,0.0,0.0,0.0,0.0,0.0,0.0,0.0,0.0,0.0,0.0,0.0,0.0,0.0,0.0,0.0,0.0,0.0,0.0,0.0,0.0,0.0,0.0,0.0,0.0,0.0,0.0,0.0,0.0,0.0,0.0,0.0,0.0,0.0,0.0,0.0,0.0,0.0,0.0,0.0,0.0,0.0,0.0,0.0,0.0,0.0,0.0,0.0,0.0,0.0,0.0,0.0,0.0,0.0,0.0,0.0,0.0,0.0,0.0,0.0,0.0,0.0,0.0,0.0,0.0,0.0,0.0,0.0,0.0,0.0,0.0,0.0,0.0,0.0,0.0,0.0,0.0,0.0,0.0,0.0,0.0,0.0,0.0,0.0,0.0,0.0,0.0,0.0,0.0,0.0,0.0,0.0,0.0,0.0,0.0,0.0,0.0,0.0,0.0,0.0,0.0,0.0,0.0,0.0,0.0,0.0,0.0,0.0,0.0,0.0,0.0,0.0,0.0,0.0,0.0,0.0,0.0,0.0,0.0,0.0,0.0,0.0,0.0,0.0,0.0,0.0,0.0,0.0,0.0,0.0,0.0,0.0,0.0,0.0,0.0,0.0,0.0,0.0,0.0,0.0,0.0,0.0,0.0,0.0,0.0,0.0,0.0,0.0,0.0,0.0,0.0,0.0,0.0,0.0,0.0,0.0,0.0,0.0,0.0,0.0,0.0,0.0,0.0,0.0,0.0,0.0,0.0,0.0,0.0,0.0,0.0,0.0,0.0,0.0,0.0,0.0,0.0,0.0,0.0,0.0,0.0,0.0,0.0,0.0,0.0,0.0,0.0,0.0,0.0,0.0,0.0,0.0,0.0,0.0,0.0,0.0,0.0,0.0,0.0,0.0,0.0,0.0,0.0,0.0,0.0,0.0,0.0,0.0,0.0,0.0,0.0,0.0,0.0,0.0,0.0,0.0,0.0,0.0,0.0,0.0,0.0,0.0,0.0,0.0,0.0,0.0,0.0,0.0,0.0,0.0,0.0,0.0,0.0,0.0,0.0,0.0,0.0,0.0,0.0,0.0,0.0,0.0,0.0,0.0,0.0,0.0,0.0,0.0,0.0,0.0,0.0,0.0,0.0,0.0,0.0,0.0,0.0,0.0,0.0,0.0,0.0,0.0,0.0,0.0,0.0,0.0,0.0,0.0,0.0,0.0,7.0257,0.0,0.0,0.0,0.0,0.0,0.0,0.0,0.0,0.0,0.0,0.0,0.0,0.0,0.0,0.0,0.0,0.0,0.0,0.0,0.0,0.0,0.0,0.0,0.0,4.9591,4.9921,5.0729,5.0802,0.0,0.0,0.0,0.0,0.0,0.0,0.0,0.0,0.0,0.0,0.0,0.0,0.0,5.7226,5.5941,5.4987,0.0,0.0,0.0,0.0,0.0,0.0,0.0,0.0,0.0,0.0,0.0,0.0,0.0,0.0,0.0,0.0,0.0,0.0,0.0,0.0,0.0,0.0,0.0,0.0,0.0,0.0,0.0,0.0,0.0,0.0,0.0,0.0,0.0,0.0,0.0,0.0,0.0,0.0,0.0,0.0,0.0,0.0,0.0,0.0,0.0,0.0,0.0,0.0,0.0,0.0,0.0,0.0,0.0,0.0,0.0,0.0,0.0,0.0,0.0,0.0,0.0,0.0,0.0,0.0,0.0,0.0,0.0,0.0,0.0,0.0,0.0,0.0,7.1725,0.0,0.0,0.0,0.0,0.0,0.0,0.0,0.0,0.0,0.0,0.0,0.0,0.0,0.0,0.0,0.0,0.0,0.0,0.0,0.0,0.0,4.8634,4.9701,4.9921,5.0435,5.1536,5.1499,5.1426,5.1426,0.0,0.0,0.0,0.0,0.0,0.0,0.0,0.0,0.0,0.0,0.0,0.0,0.0,0.0,0.0,0.0,0.0,0.0,0.0,0.0,0.0,0.0,0.0,0.0,0.0,0.0,0.0,0.0,0.0,0.0,0.0,0.0,0.0,0.0,0.0,0.0,0.0,0.0,0.0,0.0,0.0,0.0,0.0,0.0,0.0,0.0,0.0,0.0,0.0,0.0,0.0,0.0,0.0,0.0,0.0,0.0,0.0,0.0,0.0,0.0,0.0,0.0,0.0,0.0,0.0,0.0,0.0,0.0,0.0,0.0,0.0,0.0,0.0,0.0,0.0,0.0,0.0,0.0,0.0,7.5734,7.6607,7.6607,7.6607,7.7781,7.969,7.6827,7.6497,7.7635,0.0,0.0,0.0,0.0,0.0,0.0,0.0,0.0,0.0,0.0,0.0,0.0,0.0,0.0,0.0,0.0,0.0,0.0,0.0,0.0,4.8852,5.0472,5.1279,5.2564,5.4766,5.4326,5.3922,5.3922,5.2601,0.0,0.0,0.0,0.0,0.0,0.0,0.0,0.0,0.0,0.0,0.0,0.0,0.0,0.0,0.0,0.0,0.0,0.0,0.0,0.0,0.0,0.0,0.0,0.0,0.0,0.0,0.0,0.0,0.0,0.0,0.0,0.0,0.0,0.0,0.0,0.0,0.0,0.0,0.0,0.0,0.0,0.0,0.0,0.0,0.0,0.0,0.0,0.0,0.0,0.0,0.0,0.0,0.0,0.0,0.0,0.0,0.0,0.0,6.2415,6.326,0.0,0.0,0.0,0.0,0.0,0.0,0.0,0.0,0.0,0.0,0.0,0.0,0.0,7.4221,7.6538,7.8848,7.9937,7.9804,8.2239,8.3324,8.3324,8.3324,8.3875,8.4792,8.3654,0.0,8.0424,7.9066,0.0,0.0,0.0,0.0,0.0,0.0,0.0,0.0,0.0,0.0,0.0,0.0,0.0,0.0,0.0,0.0,0.0,0.0,0.0,0.0,0.0,5.3366,5.55,5.7446,5.8547,5.8364,5.6528,5.6198,0.0,0.0,0.0,0.0,0.0,0.0,0.0,0.0,0.0,0.0,0.0,0.0,0.0,0.0,0.0,0.0,0.0,0.0,0.0,0.0,0.0,0.0,0.0,0.0,0.0,0.0,0.0,0.0,0.0,0.0,0.0,0.0,0.0,0.0,0.0,0.0,0.0,0.0,0.0,0.0,0.0,0.0,0.0,0.0,0.0,0.0,0.0,0.0,0.0,0.0,0.0,0.0,0.0,0.0,0.0,0.0,0.0,6.3069,6.4674,6.7116,6.7146,6.7039,0.0,0.0,0.0,0.0,0.0,0.0,0.0,0.0,0.0,7.5085,7.55,7.6487,7.8237,8.0891,8.2506,8.2942,8.5446,8.6848,8.7325,8.7325,8.7509,8.7802,8.7472,8.6386,8.4718,8.2097,8.0728,7.9883,0.0,0.0,0.0,0.0,7.5202,7.4775,0.0,0.0,0.0,0.0,0.0,0.0,0.0,0.0,0.0,0.0,0.0,0.0,5.2541,5.5888,5.8721,6.0603,6.2218,6.2034,5.9391,5.9391,0.0,0.0,0.0,0.0,0.0,0.0,0.0,0.0,0.0,0.0,0.0,0.0,0.0,0.0,0.0,0.0,0.0,0.0,0.0,0.0,0.0,0.0,0.0,0.0,0.0,0.0,0.0,0.0,0.0,0.0,0.0,0.0,0.0,0.0,0.0,0.0,0.0,0.0,0.0,0.0,0.0,0.0,0.0,0.0,0.0,0.0,0.0,0.0,0.0,0.0,0.0,0.0,0.0,0.0,0.0,0.0,0.0,6.542,6.7165,7.0357,7.0172,7.0038,0.0,0.0,0.0,0.0,0.0,0.0,7.4287,7.5673,7.6782,7.7501,7.811,7.8925,8.0046,8.2576,8.4267,8.5085,8.6923,8.8326,8.9417,8.9166,8.9276,8.9711,8.9711,8.9203,8.8082,8.4675,8.3266,8.3043,8.0334,7.8671,7.7886,7.9085,7.8893,7.8515,0.0,0.0,0.0,0.0,0.0,0.0,0.0,0.0,0.0,0.0,0.0,5.3153,5.5029,5.8798,6.2215,6.4787,6.442,6.3613,6.2622,6.119,0.0,0.0,0.0,0.0,0.0,0.0,0.0,0.0,0.0,0.0,0.0,0.0,0.0,0.0,0.0,0.0,0.0,0.0,0.0,0.0,0.0,0.0,0.0,0.0,0.0,0.0,0.0,0.0,0.0,0.0,0.0,0.0,0.0,0.0,0.0,0.0,0.0,0.0,0.0,0.0,0.0,0.0,0.0,0.0,0.0,0.0,0.0,0.0,0.0,0.0,0.0,0.0,0.0,0.0,0.0,0.0,0.0,0.0,0.0,7.1075,7.2428,0.0,0.0,0.0,0.0,7.2976,7.4343,7.5595,7.6587,7.7411,7.8637,8.0055,8.1095,8.1948,8.2742,8.4367,8.5711,8.6573,8.6764,8.7732,8.9346,8.8465,8.8977,9.0555,9.0555,9.0043,8.9138,8.7358,8.5267,8.3004,8.2068,8.0784,7.9601,8.1438,8.295,8.4277,0.0,0.0,0.0,4.7699,4.7699,4.7699,4.7699,4.7699,4.788,4.8466,5.1819,5.4771,5.6514,6.1843,6.586,6.7305,6.8697,6.8495,6.6109,6.4457,0.0,0.0,0.0,0.0,0.0,0.0,0.0,0.0,0.0,0.0,0.0,0.0,0.0,0.0,0.0,0.0,0.0,0.0,0.0,0.0,0.0,0.0,0.0,0.0,0.0,0.0,0.0,0.0,0.0,0.0,0.0,0.0,0.0,0.0,0.0,0.0,0.0,0.0,0.0,0.0,0.0,0.0,0.0,0.0,0.0,0.0,0.0,0.0,0.0,0.0,0.0,0.0,0.0,0.0,0.0,0.0,0.0,0.0,0.0,7.3781,7.4187,0.0,0.0,7.5635,7.5858,7.6017,7.7229,7.8279,7.899,7.9746,8.0432,8.0981,8.1543,8.2155,8.2914,8.3996,8.5285,8.6665,8.7157,8.8124,8.9203,8.8839,8.9347,9.0543,9.0543,9.0311,8.969,8.7464,8.6013,8.5109,8.3646,8.3242,8.35,8.4314,8.5209,8.6225,0.0,0.0,0.0,4.7699,4.7699,4.7699,4.7699,4.7699,4.8387,5.0271,5.3795,5.7193,6.0034,6.5259,6.9023,7.0198,7.1668,7.1358,6.8623,6.7193,0.0,0.0,0.0,0.0,0.0,0.0,0.0,0.0,0.0,0.0,0.0,0.0,0.0,0.0,0.0,0.0,0.0,0.0,0.0,0.0,0.0,0.0,6.4824,0.0,0.0,0.0,0.0,0.0,0.0,0.0,0.0,0.0,0.0,0.0,0.0,0.0,0.0,0.0,0.0,0.0,0.0,0.0,0.0,0.0,0.0,0.0,0.0,0.0,0.0,0.0,0.0,0.0,0.0,0.0,0.0,0.0,0.0,0.0,7.2766,7.5743,7.5879,7.6149,7.7164,7.7502,7.7832,7.8184,7.9148,7.996,8.0508,8.0926,8.1297,8.149,8.2102,8.268,8.3293,8.4377,8.5578,8.6965,8.7206,8.7994,8.9106,8.8757,8.9106,9.0032,9.0032,8.9641,8.8814,8.7018,8.5851,8.5245,8.4054,8.4064,8.4891,8.538,8.6126,8.7079,0.0,0.0,4.7699,4.7699,4.7699,4.7699,4.7699,4.7735,4.9184,5.3204,5.65,6.0409,6.5569,6.8924,7.1596,7.3502,7.2973,7.1778,7.0067,6.9228,0.0,0.0,0.0,0.0,0.0,0.0,0.0,0.0,0.0,0.0,0.0,0.0,0.0,0.0,0.0,0.0,0.0,0.0,0.0,0.0,0.0,0.0,6.8862,0.0,0.0,0.0,0.0,0.0,0.0,0.0,0.0,0.0,0.0,0.0,0.0,0.0,0.0,0.0,0.0,0.0,0.0,0.0,0.0,0.0,0.0,0.0,0.0,0.0,0.0,0.0,0.0,0.0,0.0,0.0,0.0,0.0,7.236,7.3747,7.5236,7.6792,7.7604,7.8044,7.8044,7.872,7.9259,7.9522,7.9937,8.0544,8.1331,8.0941,8.1073,8.1784,8.2967,8.3724,8.4052,8.5535,8.672,8.7609,8.6755,8.7266,8.9019,8.8072,8.8164,8.9019,8.9019,8.8154,8.6614,8.6231,8.4924,8.3225,8.3191,8.3225,8.3396,8.459,8.5787,8.6961,4.7699,4.7699,4.7699,4.7699,4.7699,4.7699,4.7699,4.8206,5.0017,5.4037,5.784,6.1806,6.6105,6.9646,7.2097,7.324,7.2738,7.1925,7.0894,6.838,0.0,0.0,0.0,0.0,0.0,0.0,0.0,0.0,0.0,0.0,0.0,0.0,0.0,0.0,0.0,0.0,0.0,0.0,0.0,0.0,0.0,0.0,7.1468,0.0,0.0,0.0,0.0,0.0,0.0,0.0,0.0,0.0,0.0,0.0,0.0,0.0,0.0,0.0,0.0,0.0,0.0,0.0,0.0,0.0,0.0,0.0,0.0,0.0,0.0,0.0,0.0,0.0,0.0,0.0,0.0,7.3781,7.3984,7.5303,7.6826,7.8314,7.8686,7.9025,7.9532,7.9769,8.0005,8.0304,8.0783,8.1291,8.1889,8.2303,8.261,8.2809,8.3517,8.4097,8.4548,8.5195,8.5842,8.6657,8.6394,8.6558,8.7109,8.6818,8.717,8.8072,8.8072,8.8149,8.8082,8.6754,8.5655,8.4673,8.3396,8.3126,8.3462,8.3764,8.4899,8.6379,4.7699,4.7699,4.7699,4.7699,4.7699,4.7808,4.817,4.8395,5.0659,5.6559,5.915,6.2614,6.8259,7.075,7.2352,7.3276,7.2386,7.1573,7.1137,0.0,0.0,0.0,0.0,0.0,0.0,0.0,0.0,0.0,0.0,0.0,0.0,0.0,0.0,0.0,0.0,0.0,0.0,0.0,0.0,0.0,0.0,0.0,7.4478,7.4147,7.2496,7.0367,6.9889,6.9192,6.8458,6.7981,0.0,0.0,0.0,0.0,0.0,0.0,0.0,0.0,0.0,0.0,0.0,0.0,0.0,0.0,0.0,0.0,0.0,0.0,0.0,0.0,0.0,0.0,0.0,0.0,7.4246,7.634,7.6646,7.7363,7.8247,7.9431,7.9566,7.9735,8.0175,8.0209,8.0309,8.041,8.0682,8.1156,8.1864,8.2207,8.2682,8.3225,8.3834,8.4411,8.4792,8.5302,8.578,8.6294,8.6194,8.6194,8.6294,8.6294,8.6558,0.0,8.7109,8.7361,8.7702,8.649,8.5929,0.0,0.0,0.0,0.0,0.0,8.4726,8.5548,4.7699,4.7699,4.7699,4.7699,4.7772,4.8098,4.8786,4.8605,5.1346,5.9743,6.0464,6.3199,7.0894,7.1903,7.2413,7.3373,7.1933,7.0866,0.0,0.0,0.0,0.0,0.0,0.0,0.0,0.0,0.0,0.0,0.0,0.0,0.0,0.0,0.0,0.0,0.0,0.0,0.0,0.0,0.0,0.0,0.0,0.0,7.7671,7.6937,7.5139,7.3046,7.3046,7.2496,7.1725,7.1725,0.0,0.0,0.0,0.0,0.0,0.0,0.0,0.0,0.0,0.0,0.0,0.0,0.0,0.0,0.0,0.0,0.0,0.0,0.0,0.0,0.0,0.0,0.0,0.0,7.6035,7.8774,7.9522,7.9426,7.9464,8.0107,8.0209,8.0209,8.0209,8.0209,8.0209,8.0209,8.0344,8.0818,8.1665,0.0,0.0,0.0,0.0,8.4591,8.4794,8.5547,8.5992,8.6294,8.6093,8.6093,8.6294,8.6294,8.6294,8.6294,8.6294,8.6294,8.6294,8.6093,8.589,8.5822,8.4523,8.394,8.3798,8.493,8.5063,8.4751,4.7699,4.7699,4.7699,4.7699,4.8242,4.8749,4.8894,4.9892,5.311,5.9941,6.1245,6.4137,7.0806,7.1805,7.2255,7.3031,7.1149,6.9794,0.0,0.0,0.0,0.0,0.0,0.0,0.0,0.0,0.0,0.0,0.0,0.0,0.0,0.0,0.0,0.0,0.0,0.0,0.0,0.0,0.0,0.0,0.0,0.0,8.0277,8.0131,7.8516,7.6387,7.6387,7.5469,7.4221,7.4221,7.367,7.312,7.378,0.0,0.0,0.0,0.0,0.0,0.0,0.0,0.0,0.0,0.0,0.0,0.0,0.0,0.0,0.0,0.0,0.0,0.0,0.0,0.0,7.5912,7.7832,7.9457,7.9971,8.0206,8.034,8.0476,8.0309,8.0209,8.0209,8.0209,8.0209,8.0209,8.1291,8.2035,8.2274,8.3564,0.0,8.4306,8.4966,8.5172,8.5068,8.5618,8.589,8.5992,0.0,0.0,8.6294,8.6294,8.6294,8.6294,8.6294,8.6294,8.6294,8.6194,8.6093,8.5856,8.5412,8.5172,8.5172,8.599,8.5754,8.5134,4.8822,4.8568,4.8424,4.8822,4.922,4.9655,5.0053,5.0515,5.2954,5.8802,6.0106,6.2542,6.7981,6.8881,6.9143,6.9404,6.8706,0.0,0.0,0.0,0.0,0.0,0.0,0.0,0.0,0.0,0.0,0.0,0.0,0.0,0.0,0.0,0.0,0.0,0.0,0.0,0.0,0.0,0.0,0.0,0.0,0.0,8.36,8.1579,8.0041,7.8876,7.7946,7.7056,7.6403,7.6403,7.5774,7.5177,7.5715,7.5653,7.4833,0.0,0.0,0.0,0.0,0.0,0.0,0.0,0.0,0.0,0.0,0.0,0.0,0.0,0.0,7.3499,0.0,0.0,7.7482,7.807,7.9415,8.0697,8.1251,8.1047,8.0709,8.041,8.0309,8.0209,8.0209,8.0209,8.0344,8.0716,8.1426,8.2171,8.2915,8.3764,8.434,8.4606,8.5063,8.5202,8.5063,8.5377,8.5583,8.5686,8.5788,8.5992,8.6093,8.6194,8.6194,8.6093,8.6194,8.6194,8.6093,8.6194,8.6194,8.6093,8.5992,8.5686,8.5377,8.5754,8.5446,8.4958,5.0162,4.98,4.951,4.9981,5.0198,5.0524,5.1176,5.1034,5.2579,5.7536,5.8608,6.0502,6.4722,6.5624,6.5734,6.5198,0.0,0.0,0.0,0.0,0.0,0.0,0.0,0.0,0.0,0.0,0.0,0.0,0.0,0.0,0.0,0.0,0.0,0.0,0.0,0.0,0.0,0.0,0.0,0.0,0.0,0.0,8.6502,8.2608,8.1021,8.0604,7.8783,7.7988,7.7628,7.7628,7.7001,7.6321,7.6689,7.683,7.6374,7.3865,7.3833,0.0,0.0,0.0,0.0,0.0,0.0,0.0,0.0,0.0,7.2949,7.194,7.3719,7.539,7.4916,7.7086,7.9152,7.9899,8.0941,8.1782,8.2227,8.1684,8.0944,8.0309,8.0209,8.0209,8.0209,8.031,8.0648,8.1257,8.1562,8.2238,8.3422,8.3625,8.3998,8.4606,8.4853,8.4958,8.4958,8.5063,8.5168,8.5514,8.5583,8.5686,8.589,8.6194,8.6194,8.589,8.6194,8.6194,8.5992,8.6194,8.6294,8.6294,8.6194,8.5788,8.5168,8.5168,8.4958,8.4747,5.0995,5.1067,5.0814,5.0198,5.0669,5.1176,5.1285,5.1855,5.3519,5.6899,5.8072,5.9953,6.3257,6.4512,6.4567,0.0,0.0,0.0,0.0,0.0,0.0,0.0,0.0,0.0,0.0,0.0,0.0,0.0,0.0,0.0,0.0,0.0,0.0,0.0,0.0,0.0,0.0,0.0,0.0,0.0,0.0,0.0,8.7299,8.4255,8.2388,8.1119,7.9685,7.8086,7.6689,7.6689,7.6151,7.5613,7.6321,7.654,7.6476,7.6073,0.0,7.5018,0.0,0.0,0.0,7.3504,7.396,7.4895,0.0,0.0,7.5722,7.6922,7.7938,7.8785,7.9329,8.0242,8.1258,8.19,8.2412,8.2378,8.1563,8.173,8.1524,8.0377,8.0209,8.0209,8.0209,8.0784,8.119,8.1291,8.2509,8.3321,8.349,8.4133,8.4539,8.464,8.464,8.464,8.464,8.4958,8.5168,8.5514,8.5686,8.589,8.589,8.6194,8.6194,8.589,8.6194,8.6294,8.6294,8.6294,8.6294,8.6194,8.5823,8.548,8.5514,8.5514,8.5273,8.4958,5.1828,5.2009,5.19,5.1538,5.1756,5.2009,5.2009,5.2263,5.3132,5.4943,5.5995,5.7424,5.9677,6.0726,6.1184,6.0973,0.0,0.0,0.0,0.0,0.0,0.0,0.0,0.0,0.0,0.0,0.0,0.0,0.0,0.0,0.0,0.0,0.0,0.0,0.0,0.0,0.0,0.0,0.0,0.0,0.0,0.0,8.7705,8.5076,8.2996,8.1191,7.8831,7.7558,0.0,0.0,7.5585,7.505,7.6019,7.6033,7.5672,7.5604,7.5095,0.0,7.4896,0.0,0.0,0.0,7.6129,7.6402,7.7706,7.7522,7.7435,7.8957,7.9532,8.0107,8.1257,8.1834,8.2377,0.0,8.3092,8.3057,8.3295,8.2819,8.2343,8.2003,8.1665,8.1325,8.0885,8.1494,8.2103,8.2543,8.3152,8.3693,8.4133,8.4437,8.464,8.464,8.464,8.464,8.464,8.4747,8.4853,8.4958,8.5273,8.548,8.5686,8.5992,8.6093,8.6093,8.6093,8.6194,8.6294,8.6294,8.6294,8.6294,8.5992,8.589,8.5686,8.5168,8.4958,8.4747,5.2371,5.248,5.248,5.248,5.248,5.248,5.248,5.248,5.2697,5.3277,5.4361,5.5691,5.7304,5.8032,5.866,5.947,6.2795,6.655,0.0,0.0,0.0,0.0,0.0,0.0,0.0,0.0,0.0,0.0,0.0,0.0,0.0,0.0,0.0,0.0,0.0,0.0,0.0,0.0,0.0,0.0,0.0,0.0,8.6973,8.4656,8.2439,8.0115,7.7709,7.6484,0.0,0.0,7.4116,7.3815,7.4543,7.4684,7.4719,7.5058,7.474,7.4375,7.5213,0.0,0.0,7.7739,7.8213,7.8314,7.9025,7.9194,7.9498,8.0581,8.0648,8.0953,8.2441,8.2647,0.0,8.3974,8.3705,8.3568,8.4214,8.3466,8.2854,8.2817,8.2751,8.2579,8.1934,8.2408,8.2915,8.3456,8.3693,8.4065,8.4606,8.464,8.464,8.464,8.464,8.464,8.464,8.464,8.464,8.4747,8.4958,8.5273,8.5514,8.5788,8.6093,8.6294,8.6093,8.6093,8.6294,8.6294,8.6294,8.6194,8.6093,8.589,8.5583,8.4853,8.464,8.4747,5.248,5.248,5.248,5.248,5.248,5.248,5.248,5.248,5.2516,5.2516,5.3951,5.5702,5.758,5.7667,5.7992,5.8934,6.1659,6.5032,0.0,0.0,0.0,0.0,0.0,0.0,0.0,0.0,0.0,0.0,0.0,0.0,0.0,0.0,0.0,0.0,0.0,0.0,0.0,0.0,0.0,0.0,0.0,0.0,8.4511,8.2512,7.9952,7.7339,7.6454,0.0,0.0,0.0,7.0804,7.1413,7.1447,7.2394,0.0,7.5236,7.5134,0.0,0.0,0.0,7.6217,7.8517,8.0141,8.1359,8.2103,8.2272,8.2306,8.234,8.1765,8.1697,8.3186,8.2881,8.2881,8.4336,8.4174,8.3636,8.2956,8.3057,8.2852,8.18,8.299,8.377,0.0,8.3456,8.349,8.349,8.4167,8.4606,8.464,8.464,8.464,8.464,8.464,8.464,8.464,8.464,8.4747,8.5063,8.5097,8.5273,8.5514,8.5788,8.6093,8.6294,8.6294,8.6294,8.6294,8.6294,8.6093,8.589,8.5583,8.5411,8.5063,8.4747,8.4853,8.5063,5.2589,5.248,5.248,5.248,5.248,5.2661,5.3204,5.2842,5.2697,5.3241,5.4844,0.0,0.0,0.0,0.0,0.0,6.1896,6.4815,6.8331,0.0,0.0,0.0,0.0,0.0,0.0,0.0,0.0,0.0,0.0,0.0,0.0,0.0,0.0,0.0,0.0,0.0,0.0,0.0,0.0,0.0,0.0,0.0,8.2612,8.0699,7.8128,7.5229,0.0,0.0,0.0,0.0,0.0,0.0,7.1142,7.1312,7.1582,7.3071,7.4356,0.0,0.0,0.0,7.8483,8.075,8.1663,8.2103,8.234,8.2408,8.2543,8.3016,8.2543,8.2475,8.3964,8.3253,8.2746,8.3727,8.3358,8.2886,8.282,8.3125,8.3362,8.3194,8.3835,0.0,0.0,0.0,0.0,8.4234,8.4471,8.464,8.464,8.464,8.464,8.464,8.464,8.464,8.464,8.464,8.464,8.4747,8.4958,8.5202,8.5307,8.5686,8.5992,8.6093,8.6194,8.6294,8.6294,8.6294,8.6194,8.6194,8.6093,8.5992,8.589,8.5583,8.5583,8.5583,5.3458,5.3349,5.3349,5.3349,5.3349,0.0,0.0,0.0,0.0,0.0,0.0,0.0,0.0,0.0,0.0,0.0,0.0,6.3548,0.0,0.0,0.0,0.0,0.0,0.0,0.0,0.0,0.0,0.0,0.0,0.0,0.0,0.0,0.0,0.0,0.0,0.0,0.0,0.0,0.0,0.0,0.0,0.0,7.9617,7.8108,7.5811,0.0,0.0,0.0,0.0,0.0,0.0,0.0,7.0364,7.1109,7.2022,7.3206,7.4796,0.0,0.0,7.9295,8.004,8.2238,8.278,8.2881,8.3152,8.3219,8.3321,8.3795,8.3321,8.3186,8.4403,8.3422,8.2746,8.3727,8.2951,8.2309,8.2752,8.3021,8.3327,8.3602,8.4313,0.0,0.0,0.0,0.0,8.464,8.464,8.464,8.464,8.464,8.464,8.464,8.464,8.464,8.464,8.464,8.464,8.4747,8.4958,8.5168,8.5273,8.5583,8.5788,8.5788,8.5992,8.6194,8.6194,8.6294,8.6194,8.6128,8.6301,8.6302,8.6234,8.6302,8.6129,8.5752,5.4907,5.4907,5.4907,0.0,0.0,0.0,0.0,0.0,0.0,0.0,0.0,0.0,0.0,0.0,0.0,0.0,0.0,0.0,0.0,0.0,0.0,0.0,0.0,0.0,0.0,0.0,0.0,0.0,0.0,0.0,0.0,0.0,0.0,0.0,0.0,0.0,0.0,0.0,0.0,0.0,0.0,0.0,7.574,7.4796,0.0,0.0,0.0,0.0,0.0,0.0,0.0,0.0,0.0,7.1785,7.4796,7.5608,7.642,7.7367,7.8923,7.9837,8.0885,8.3016,8.3558,8.3727,8.4471,8.4606,8.4573,8.4573,8.393,8.3625,0.0,0.0,8.2746,8.4167,8.2818,8.1868,8.2548,8.2752,8.2922,0.0,0.0,0.0,0.0,0.0,0.0,8.4606,0.0,8.464,8.464,8.464,8.464,8.464,8.464,8.464,8.464,8.464,8.4747,8.5063,8.5063,8.5202,8.5514,8.5514,8.5514,8.5514,8.5788,8.589,8.5992,8.6228,8.6162,8.6028,8.6473,8.6466,8.6355,8.6745,8.6467,8.5831,0.0,0.0,0.0,0.0,0.0,0.0,0.0,0.0,0.0,0.0,0.0,0.0,0.0,0.0,0.0,0.0,0.0,0.0,0.0,0.0,0.0,0.0,0.0,0.0,0.0,0.0,0.0,0.0,0.0,0.0,0.0,0.0,0.0,0.0,0.0,0.0,0.0,0.0,0.0,0.0,0.0,0.0,7.3464,0.0,0.0,0.0,0.0,0.0,0.0,0.0,0.0,0.0,0.0,0.0,7.51,7.7536,7.8382,7.9092,8.1697,8.2509,8.2915,8.4065,8.4336,8.4403,8.4573,8.42,8.3795,8.3795,8.2746,8.2069,0.0,0.0,0.0,8.1257,8.0953,0.0,8.0106,8.1461,0.0,0.0,0.0,8.4747,8.4747,8.4747,0.0,0.0,8.464,8.464,8.464,8.464,8.464,8.464,8.464,8.464,8.464,8.464,8.464,8.4747,8.4747,8.4747,8.4853,8.5063,8.5307,8.5514,8.5788,8.5992,8.6228,8.6611,8.6749,8.6817,8.7259,8.7356,8.7356,8.7454,8.742,8.7215,0.0,0.0,0.0,0.0,0.0,0.0,0.0,0.0,0.0,0.0,0.0,0.0,0.0,0.0,0.0,0.0,0.0,0.0,0.0,0.0,0.0,0.0,0.0,0.0,0.0,0.0,0.0,0.0,0.0,0.0,0.0,0.0,0.0,0.0,0.0,0.0,0.0,0.0,0.0,0.0,0.0,0.0,0.0,0.0,0.0,0.0,0.0,0.0,0.0,0.0,0.0,7.2699,7.527,7.6318,7.7029,7.9397,0.0,8.0987,8.2949,8.3727,8.4099,8.4505,8.464,8.4539,8.42,8.3795,8.3422,8.3084,8.2374,0.0,0.0,0.0,0.0,0.0,0.0,0.0,8.004,8.1426,8.2408,0.0,8.3937,0.0,8.4853,8.4853,8.4747,0.0,8.464,8.464,8.464,8.464,8.464,8.464,8.464,8.464,8.464,8.464,8.464,8.4853,8.464,8.464,8.4853,8.4853,8.5063,8.5307,0.0,8.6269,8.644,8.7195,8.7504,8.7469,8.8046,8.8213,8.8248,8.8374,8.8198,8.7817,0.0,0.0,0.0,0.0,0.0,0.0,0.0,0.0,0.0,0.0,0.0,0.0,0.0,0.0,0.0,0.0,0.0,0.0,0.0,0.0,0.0,0.0,0.0,0.0,0.0,0.0,0.0,0.0,0.0,0.0,0.0,0.0,0.0,0.0,0.0,0.0,0.0,0.0,0.0,0.0,0.0,0.0,0.0,0.0,0.0,0.0,0.0,0.0,0.0,0.0,7.4255,7.4322,7.7333,7.8788,7.9667,8.1021,8.1968,8.2712,8.3456,8.4133,8.464,8.464,8.464,8.4437,8.3659,8.3422,8.3152,8.2408,0.0,0.0,8.2238,0.0,8.0615,8.19,0.0,7.9701,8.0953,8.1866,8.2545,8.2819,8.4214,8.5063,8.5063,8.5063,8.4958,8.464,8.464,8.464,8.464,8.464,8.464,8.464,8.464,8.464,8.464,8.464,8.4747,8.5063,8.4747,8.4747,8.5063,8.4747,8.4814,8.5267,8.623,0.0,8.6813,8.7775,8.8189,8.8257,8.8692,8.8891,8.896,8.9279,8.8888,8.8158,0.0,0.0,0.0,0.0,0.0,0.0,0.0,0.0,0.0,0.0,5.6391,5.6536,0.0,0.0,0.0,0.0,0.0,0.0,0.0,0.0,0.0,0.0,0.0,0.0,0.0,0.0,0.0,0.0,0.0,0.0,0.0,0.0,0.0,0.0,0.0,0.0,0.0,0.0,0.0,0.0,0.0,0.0,0.0,0.0,0.0,0.0,0.0,0.0,0.0,0.0,7.4931,7.5845,7.8855,8.031,8.1088,8.1968,8.2746,8.349,8.4234,8.4539,8.464,8.464,8.464,8.4437,8.3659,8.3016,0.0,0.0,0.0,8.0784,8.1359,0.0,0.0,8.0547,0.0,0.0,0.0,0.0,8.2644,0.0,0.0,0.0,0.0,0.0,0.0,0.0,0.0,8.464,8.464,8.464,8.464,8.464,8.464,8.464,8.464,8.464,8.464,8.4747,8.464,8.464,8.4747,8.464,8.5085,8.6015,8.6151,0.0,8.7598,8.835,8.8623,8.8726,8.9151,8.9347,8.9347,8.9261,8.9004,8.8903,0.0,0.0,0.0,0.0,0.0,0.0,0.0,5.5595,5.65,5.7659,5.784,5.8166,5.8963,5.9398,5.9796,0.0,0.0,0.0,0.0,0.0,0.0,0.0,0.0,0.0,0.0,0.0,0.0,0.0,0.0,0.0,0.0,0.0,0.0,0.0,0.0,0.0,0.0,0.0,0.0,0.0,0.0,0.0,0.0,0.0,0.0,0.0,0.0,0.0,0.0,0.0,7.5405,7.6217,7.9261,8.0953,8.1866,8.1832,8.2881,8.4065,8.4065,8.4336,8.464,8.464,8.464,8.4336,8.3186,0.0,0.0,0.0,0.0,0.0,8.0648,0.0,0.0,0.0,0.0,0.0,0.0,0.0,0.0,0.0,0.0,0.0,0.0,0.0,0.0,0.0,0.0,8.464,8.464,8.464,8.464,8.464,8.464,8.464,8.464,8.464,8.464,8.464,8.464,8.464,8.464,8.464,8.5153,8.6219,8.6627,0.0,8.835,8.9136,8.9443,8.9477,8.9635,8.9628,8.9517,8.9295,8.9184,8.9072,0.0,0.0,0.0,0.0,0.0,0.0,0.0,5.708,5.7985,5.8818,5.9615,6.0122,6.0122,6.052,6.0883,0.0,0.0,0.0,0.0,0.0,0.0,0.0,0.0,0.0,0.0,0.0,0.0,0.0,0.0,0.0,0.0,0.0,0.0,0.0,0.0,0.0,0.0,0.0,0.0,0.0,0.0,0.0,0.0,0.0,0.0,0.0,0.0,0.0,0.0,0.0,7.5912,7.6623,7.916,8.0885,8.1866,8.1393,8.2746,8.4302,8.3862,8.4167,8.464,8.464,8.464,8.4234,8.2746,8.2408,0.0,0.0,0.0,0.0,0.0,0.0,0.0,0.0,0.0,0.0,0.0,0.0,0.0,0.0,0.0,0.0,0.0,0.0,0.0,0.0,0.0,0.0,8.464,8.464,8.464,8.464,8.464,8.464,8.464,8.464,8.4708,8.4877,8.4877,8.4945,8.5114,8.5114,8.5627,8.6622,8.7199,0.0,0.0,8.9642,8.999,8.9881,8.999,8.9771,8.9517,8.9407,8.9295,8.9072,0.0,0.0,0.0,0.0,0.0,0.0,0.0,5.8383,5.9687,6.0484,6.1281,6.1788,6.1788,6.1208,6.1154,0.0,0.0,0.0,0.0,0.0,0.0,0.0,0.0,0.0,0.0,0.0,0.0,0.0,0.0,0.0,0.0,0.0,0.0,0.0,0.0,0.0,0.0,0.0,0.0,0.0,0.0,0.0,0.0,0.0,0.0,0.0,0.0,0.0,0.0,0.0,0.0,7.7942,7.8923,7.9769,8.0513,8.1122,0.0,0.0,8.437,8.4573,8.464,8.464,8.464,8.4234,8.2746,0.0,0.0,0.0,0.0,0.0,0.0,0.0,0.0,0.0,0.0,0.0,0.0,0.0,0.0,0.0,0.0,0.0,0.0,0.0,0.0,0.0,0.0,0.0,8.464,8.464,8.464,8.464,8.464,8.464,8.464,8.464,8.4979,8.5689,8.5689,8.6027,8.6704,8.6704,8.711,8.7786,8.7854,0.0,0.0,8.9737,8.9771,8.9551,8.9881,8.9771,8.9407,8.9184,8.9072,8.9072,0.0,0.0,0.0,0.0,0.0,0.0,5.8492,5.9615,6.0629,6.1426,6.2223,6.2549,6.2078,6.1716,6.1643,6.2024,0.0,0.0,0.0,0.0,0.0,0.0,0.0,0.0,0.0,0.0,0.0,0.0,0.0,0.0,0.0,0.0,0.0,0.0,0.0,0.0,0.0,0.0,0.0,0.0,0.0,0.0,0.0,0.0,0.0,0.0,0.0,0.0,0.0,0.0,0.0,0.0,7.6961,7.7874,0.0,0.0,8.2002,8.3456,8.3321,8.393,8.464,8.464,8.464,8.4234,8.2746,0.0,0.0,0.0,8.0209,8.0276,8.0581,0.0,0.0,0.0,0.0,0.0,0.0,0.0,0.0,0.0,0.0,0.0,0.0,0.0,0.0,0.0,0.0,0.0,8.464,8.464,8.464,8.464,8.464,8.4843,8.5317,8.5317,8.5723,8.6467,8.6467,8.6636,8.6907,8.6907,8.7313,8.7989,8.7989,0.0,0.0,8.9662,8.9662,8.9517,8.9662,8.9517,8.9184,8.9184,8.9072,8.9072,0.0,0.0,0.0,0.0,0.0,5.7732,5.9361,6.0303,6.11,6.1897,6.2693,6.2875,6.2114,6.2005,6.2005,6.2005,6.166,0.0,0.0,0.0,0.0,0.0,0.0,0.0,0.0,0.0,0.0,0.0,0.0,0.0,0.0,0.0,0.0,0.0,0.0,0.0,0.0,0.0,0.0,0.0,0.0,0.0,0.0,0.0,0.0,0.0,0.0,0.0,0.0,0.0,0.0,0.0,0.0,0.0,0.0,0.0,8.1291,8.2813,8.2746,8.349,8.4336,8.4573,8.4471,8.3964,0.0,0.0,0.0,8.0445,8.0209,8.0209,8.0209,8.0987,0.0,0.0,0.0,0.0,0.0,0.0,0.0,0.0,0.0,0.0,0.0,0.0,0.0,0.0,0.0,0.0,0.0,8.464,8.4742,8.4945,8.4979,8.5351,8.6095,8.6129,8.6501,8.7245,8.7245,8.7347,8.755,8.755,8.782,8.8328,8.8328,0.0,0.0,8.9407,8.9407,8.9407,8.9407,8.9295,8.9072,8.9072,8.9072,8.9072,0.0,0.0,0.0,0.0,0.0,0.0,5.9361,6.0303,6.11,6.1897,6.2693,6.2875,6.2114,6.2005,6.2005,6.2005,6.2275,0.0,0.0,0.0,0.0,0.0,0.0,0.0,0.0,0.0,6.3057,6.36,6.3706,0.0,0.0,0.0,0.0,0.0,0.0,0.0,0.0,0.0,0.0,0.0,0.0,0.0,0.0,0.0,0.0,0.0,0.0,0.0,0.0,0.0,0.0,0.0,0.0,0.0,0.0,0.0,8.0175,8.1629,8.3084,8.349,8.3693,8.4437,8.4065,8.3321,0.0,0.0,0.0,0.0,8.0209,8.0209,8.0209,8.1393,8.2408,8.2408,8.3659,0.0,8.464,0.0,0.0,0.0,0.0,0.0,0.0,0.0,0.0,0.0,0.0,0.0,0.0,8.464,8.4979,8.5757,8.5757,8.6129,8.6907,8.6907,8.7279,8.7989,8.7989,8.8361,8.9072,8.9072,8.9072,0.0,0.0,0.0,0.0,8.9407,8.9295,8.9072,8.9407,8.9295,8.9072,8.9072,8.9072,8.9072,0.0,0.0,0.0,0.0,0.0,0.0,0.0,6.0303,6.11,6.1897,6.2693,6.2875,6.2114,6.2005,6.2005,6.2005,6.1766,0.0,0.0,0.0,0.0,0.0,0.0,0.0,0.0,0.0,6.3452,6.4741,6.4103,6.4506,6.5806,6.4858,0.0,0.0,0.0,0.0,0.0,0.0,0.0,0.0,0.0,0.0,0.0,0.0,0.0,0.0,0.0,0.0,0.0,0.0,0.0,0.0,0.0,0.0,0.0,7.9023,0.0,0.0,8.1866,8.2374,8.2813,8.305,8.2915,8.2577,8.1799,0.0,0.0,0.0,8.0209,8.0209,8.0209,8.0581,8.1224,8.2238,8.2813,8.3456,0.0,0.0,0.0,0.0,0.0,0.0,0.0,0.0,0.0,0.0,0.0,0.0,0.0,8.5114,8.552,8.579,8.579,8.6399,8.7651,8.7651,8.8023,8.8734,8.8734,8.8869,8.9072,8.9072,8.9072,0.0,0.0,0.0,0.0,9.1092,9.0884,9.0177,9.0285,8.9779,8.9184,8.9887,9.0177,9.0177,0.0,0.0,0.0,0.0,0.0,0.0,0.0,5.9579,6.0303,6.1426,6.1969,6.2223,6.2041,6.2005,6.2005,6.2005,6.1802,0.0,0.0,0.0,0.0,0.0,0.0,0.0,6.2805,6.2805,6.3943,6.6219,6.5563,6.615,6.7726,6.672,6.5971,6.5332,0.0,0.0,0.0,0.0,0.0,0.0,0.0,0.0,7.2264,0.0,0.0,0.0,0.0,0.0,0.0,0.0,0.0,0.0,0.0,0.0,0.0,0.0,7.9891,8.1015,0.0,8.1902,8.2513,8.2443,8.2479,0.0,0.0,0.0,0.0,0.0,0.0,8.0209,8.0209,8.0412,8.0919,8.1832,8.2441,8.305,0.0,0.0,0.0,0.0,0.0,0.0,0.0,0.0,0.0,0.0,0.0,0.0,0.0,8.5458,8.6,8.6413,8.6576,8.7177,8.8395,8.8395,8.8632,8.9072,8.9072,8.9072,8.9072,8.9483,8.9669,0.0,0.0,0.0,0.0,9.1569,9.1298,9.0674,9.0674,9.0285,8.9779,9.0498,9.0988,9.1298,0.0,0.0,0.0,0.0,0.0,0.0,0.0,5.8456,5.8963,6.052,6.0774,6.11,6.186,6.2005,6.2005,6.2005,6.2222,0.0,0.0,0.0,0.0,0.0,0.0,0.0,6.2805,6.2915,6.4494,6.7614,6.7724,6.8531,7.0,6.9118,6.7945,6.6496,6.5314,6.4876,0.0,0.0,0.0,0.0,0.0,0.0,0.0,0.0,0.0,0.0,0.0,0.0,0.0,0.0,0.0,0.0,0.0,0.0,0.0,0.0,0.0,0.0,0.0,8.1958,8.2714,8.2547,8.2539,0.0,0.0,0.0,0.0,0.0,0.0,0.0,8.0209,8.075,8.1224,8.1291,8.2475,8.3186,0.0,0.0,0.0,0.0,0.0,0.0,0.0,0.0,0.0,0.0,0.0,0.0,0.0,8.5739,8.6486,8.7449,8.7905,8.8506,8.9072,8.9184,8.9184,8.9184,8.9295,8.9295,8.9373,9.0391,9.0779,0.0,0.0,0.0,0.0,9.1263,9.0884,9.0884,9.0884,9.0779,9.0779,9.0884,9.1569,9.2267,0.0,0.0,0.0,0.0,0.0,0.0,0.0,0.0,0.0,0.0,6.0448,6.0883,6.1064,6.1643,6.2005,0.0,0.0,0.0,0.0,0.0,0.0,0.0,0.0,0.0,6.2805,6.4053,6.5411,6.6769,6.8017,6.8825,6.9192,6.8954,6.8275,6.7231,6.6939,6.6663,0.0,0.0,0.0,0.0,0.0,0.0,0.0,0.0,0.0,0.0,7.3885,7.4226,0.0,0.0,0.0,0.0,0.0,0.0,0.0,0.0,8.0754,8.1504,8.1673,0.0,8.2866,8.2893,8.236,8.1784,0.0,0.0,0.0,0.0,0.0,0.0,0.0,8.0344,8.0648,8.119,8.2069,8.2611,0.0,0.0,0.0,0.0,0.0,0.0,0.0,0.0,0.0,0.0,0.0,0.0,0.0,8.8112,8.8975,8.9121,8.9738,8.9717,8.9072,8.9887,9.0285,9.0285,9.1195,9.1603,9.1603,9.1805,9.1905,0.0,0.0,0.0,9.3413,9.3132,9.3038,9.3038,9.2168,9.1905,9.2005,9.2752,9.3226,9.3413,0.0,0.0,0.0,0.0,0.0,0.0,0.0,0.0,0.0,0.0,5.9977,6.0557,6.1281,6.1752,6.2005,0.0,0.0,0.0,0.0,0.0,0.0,0.0,0.0,6.2805,6.2805,6.3686,6.5301,6.7614,6.8458,6.9669,7.1101,7.0367,6.9504,6.8642,6.7854,6.7359,0.0,0.0,0.0,0.0,0.0,0.0,0.0,0.0,0.0,0.0,7.4244,7.4817,0.0,7.4896,7.5674,7.7042,0.0,0.0,0.0,0.0,8.0972,8.1922,8.2013,8.256,8.2991,8.2559,8.2664,8.2746,8.2207,0.0,0.0,0.0,0.0,0.0,0.0,0.0,0.0,0.0,8.19,0.0,0.0,0.0,0.0,0.0,0.0,0.0,0.0,0.0,0.0,0.0,0.0,0.0,0.0,8.9748,9.0555,9.0553,9.1084,9.0884,8.9887,9.0391,9.0988,9.14,9.2005,9.2302,9.2302,9.2787,9.2943,0.0,0.0,0.0,9.4515,9.3998,9.3817,9.3725,9.3226,9.2943,9.3109,9.4025,9.4661,9.509,0.0,0.0,0.0,0.0,0.0,0.0,0.0,0.0,0.0,0.0,0.0,0.0,0.0,0.0,0.0,0.0,0.0,0.0,0.0,0.0,0.0,0.0,6.2805,6.2879,6.3025,6.3246,6.5191,6.8898,6.9265,7.0844,7.3487,7.2275,7.1174,7.022,6.8495,6.7597,6.7539,0.0,0.0,0.0,0.0,0.0,0.0,0.0,0.0,0.0,0.0,0.0,0.0,7.6022,7.6705,7.7678,7.8059,0.0,0.0,0.0,0.0,0.0,8.2357,8.285,8.3075,8.2439,8.3294,8.4158,8.3206,0.0,0.0,0.0,0.0,0.0,0.0,0.0,0.0,0.0,0.0,0.0,0.0,0.0,0.0,0.0,0.0,0.0,0.0,0.0,0.0,0.0,0.0,0.0,0.0,9.1055,9.1905,9.1929,9.2338,9.2168,9.116,9.116,9.167,9.2497,9.2691,9.2787,9.2787,9.3633,9.3998,9.4088,0.0,0.0,9.5278,9.4213,9.3908,9.3998,9.3817,9.3908,9.4105,9.484,9.561,9.64,0.0,0.0,0.0,0.0,0.0,0.0,0.0,0.0,0.0,0.0,0.0,0.0,0.0,0.0,0.0,0.0,0.0,0.0,0.0,0.0,0.0,6.2805,6.2805,6.3172,6.387,6.5228,6.6916,6.8898,7.0954,7.2202,7.2679,7.312,7.2532,7.1064,6.9394,6.8605,6.8548,7.0266,0.0,0.0,0.0,0.0,0.0,0.0,0.0,0.0,0.0,0.0,0.0,7.5583,7.7368,7.9896,7.8791,0.0,0.0,0.0,0.0,0.0,8.2899,8.3373,8.3549,8.4159,8.4299,8.4349,0.0,0.0,0.0,0.0,0.0,0.0,0.0,0.0,0.0,0.0,0.0,0.0,0.0,0.0,0.0,0.0,0.0,0.0,0.0,0.0,0.0,0.0,0.0,0.0,0.0,9.2963,9.3877,9.342,9.371,9.3654,9.332,9.332,9.3413,9.3633,9.4515,9.49,9.49,9.5072,9.5193,9.5193,0.0,9.5398,9.5278,9.4213,9.4303,9.5072,9.4124,9.4303,9.5193,9.5302,9.5459,9.5567,0.0,0.0,0.0,0.0,0.0,0.0,0.0,0.0,0.0,0.0,0.0,0.0,0.0,0.0,0.0,0.0,0.0,0.0,0.0,0.0,6.2923,6.2589,6.3584,6.4127,6.409,6.5668,6.7504,6.9559,7.1541,7.3156,7.4441,7.3927,7.2826,7.1248,7.0073,6.976,7.0181,7.1143,7.1514,7.1648,0.0,0.0,0.0,0.0,0.0,0.0,0.0,0.0,0.0,0.0,7.8099,7.955,7.9737,0.0,0.0,0.0,0.0,0.0,8.2142,8.2831,8.3591,8.3953,8.4629,0.0,0.0,0.0,0.0,0.0,0.0,0.0,0.0,0.0,0.0,0.0,0.0,0.0,0.0,0.0,0.0,0.0,0.0,0.0,0.0,0.0,0.0,0.0,0.0,0.0,0.0,0.0,9.5094,9.4691,9.4742,9.4778,9.4691,9.4691,9.4691,9.4691,9.5193,9.5398,9.5398,9.5398,9.5398,9.5398,0.0,9.5398,9.5362,9.49,9.4986,9.5362,9.49,9.4986,9.5435,9.5869,9.6593,9.7268,0.0,0.0,0.0,0.0,0.0,0.0,0.0,0.0,0.0,0.0,0.0,0.0,0.0,0.0,0.0,0.0,0.0,0.0,0.0,6.3109,6.3288,6.2485,6.4632,6.5485,6.4677,6.6219,6.8238,7.066,7.2459,7.4478,7.6644,7.5028,7.3487,7.2092,7.0917,7.0844,7.1558,7.1948,7.2498,7.3337,0.0,0.0,0.0,0.0,0.0,0.0,0.0,0.0,0.0,0.0,0.0,0.0,0.0,0.0,0.0,8.1133,8.1479,8.1707,8.1636,8.2432,8.3301,8.3664,0.0,0.0,0.0,0.0,0.0,0.0,0.0,0.0,0.0,0.0,0.0,0.0,0.0,0.0,0.0,0.0,0.0,0.0,0.0,0.0,0.0,0.0,0.0,0.0,0.0,0.0,0.0,0.0,9.5858,9.5529,9.5446,9.5446,9.5446,9.5446,9.5482,9.5398,9.5398,9.5398,9.5398,9.5398,9.5398,9.5398,9.5398,9.5398,9.5398,9.5398,9.5398,9.5398,9.5398,9.5398,9.5471,9.6086,9.7101,9.8064,0.0,0.0,0.0,0.0,0.0,0.0,0.0,0.0,0.0,0.0,0.0,0.0,0.0,0.0,0.0,0.0,0.0,0.0,0.0,6.3268,6.3445,6.264,6.5763,6.7136,6.6329,6.7907,6.9926,7.2349,7.4698,7.6717,7.8369,7.6717,7.5469,7.4551,7.2239,7.1688,7.2422,7.2321,7.2619,7.3337,7.4915,0.0,0.0,0.0,0.0,0.0,0.0,0.0,0.0,0.0,0.0,0.0,0.0,0.0,8.0161,8.1741,8.1194,8.0493,8.2756,8.2867,8.2722,8.4243,0.0,0.0,0.0,0.0,0.0,0.0,0.0,0.0,0.0,0.0,0.0,0.0,0.0,0.0,0.0,0.0,0.0,0.0,0.0,0.0,0.0,0.0,0.0,0.0,0.0,0.0,0.0,0.0,0.0,9.5939,9.5777,9.5695,9.5695,9.5695,9.5612,9.5398,9.5398,9.5398,9.5398,9.5398,9.5398,9.5398,9.5398,9.5398,9.5398,9.5398,9.5398,9.5398,9.5398,9.5398,9.5398,9.5471,9.5543,9.576,0.0,0.0,0.0,0.0,0.0,0.0,0.0,0.0,0.0,0.0,0.0,6.2005,6.2005,0.0,0.0,0.0,0.0,0.0,0.0,6.36,6.4071,6.3268,6.6445,6.8165,6.8017,7.0073,7.2312,7.4735,7.668,7.8222,7.9286,7.6607,7.5152,7.4725,7.2841,7.2731,7.3823,7.3799,7.447,7.5651,7.6172,7.6235,0.0,0.0,0.0,0.0,0.0,0.0,0.0,0.0,7.8666,7.9281,8.0114,8.0443,8.0658,8.0767,8.0695,8.073,8.1165,8.2106,0.0,0.0,0.0,0.0,0.0,0.0,0.0,0.0,0.0,0.0,0.0,0.0,0.0,0.0,0.0,0.0,0.0,0.0,0.0,0.0,0.0,0.0,0.0,0.0,0.0,0.0,0.0,0.0,0.0,0.0,0.0,9.602,9.5777,9.5695,9.5695,9.5695,9.5612,9.5398,9.5398,9.5398,9.5398,9.5398,9.5398,9.5398,9.5398,9.5398,9.5398,9.5398,9.5398,9.5398,9.5398,9.5398,9.5398,9.5398,9.5688,9.6195,0.0,0.0,0.0,0.0,0.0,0.0,0.0,0.0,6.2005,0.0,0.0,0.0,0.0,6.2005,0.0,0.0,0.0,0.0,6.2185,6.3619,6.4201,6.369,6.661,6.855,6.9265,7.1594,7.3868,7.6093,7.8038,7.8993,7.8956,7.6717,7.5335,7.4702,7.3685,7.3978,7.5104,7.508,7.5848,7.7092,7.6966,7.6773,0.0,0.0,0.0,0.0,0.0,0.0,0.0,0.0,7.8521,7.8521,7.9571,8.0295,8.0585,7.9752,8.0621,8.1744,8.1201,8.2251,0.0,0.0,0.0,0.0,0.0,0.0,0.0,0.0,0.0,0.0,0.0,0.0,0.0,0.0,0.0,0.0,0.0,0.0,0.0,0.0,0.0,0.0,0.0,0.0,0.0,0.0,0.0,0.0,0.0,0.0,0.0,0.0,9.5939,9.5777,9.5777,9.5695,9.5612,9.5398,9.5398,9.5398,9.5398,9.5398,9.5398,9.5398,9.5398,9.5398,9.5398,9.5398,9.5398,9.5398,9.5398,9.5398,9.5398,9.5398,9.5724,9.6231,0.0,0.0,0.0,0.0,0.0,0.0,0.0,6.2005,6.2005,6.2005,6.2005,0.0,0.0,0.0,0.0,0.0,6.2114,0.0,6.2185,6.3215,6.3811,6.3811,6.6189,6.8293,7.0036,7.2343,7.4395,7.613,7.8552,7.8919,7.7304,7.7304,7.6423,7.4918,7.4918,7.5359,7.6093,7.5947,7.6361,7.7092,7.7092,7.6902,7.6614,0.0,0.0,0.0,0.0,0.0,0.0,0.0,7.8159,7.7796,7.939,7.9897,7.9752,7.8955,8.0947,8.3446,8.3446,0.0,0.0,0.0,0.0,0.0,0.0,0.0,0.0,0.0,0.0,0.0,0.0,0.0,0.0,0.0,0.0,0.0,0.0,0.0,0.0,0.0,0.0,0.0,0.0,0.0,0.0,0.0,0.0,0.0,0.0,0.0,0.0,0.0,9.6259,9.602,9.602,9.5777,9.5612,9.5398,9.5398,9.5398,9.5398,9.5398,9.5398,9.5398,9.5398,9.5398,9.5398,9.5398,9.5398,9.5398,9.5398,9.5398,9.5398,9.5398,9.5398,9.5507,0.0,0.0,0.0,0.0,0.0,0.0,6.2005,6.2005,6.2005,6.2005,6.2005,0.0,0.0,0.0,0.0,0.0,0.0,0.0,6.2185,6.3109,6.3962,6.4689,6.6482,6.8,6.9229,7.2108,7.5005,7.7855,7.8002,7.7818,7.7304,7.6166,7.5005,7.3933,0.0,7.5005,7.5141,7.5751,7.6509,7.7316,7.7903,7.7668,7.7039,0.0,0.0,0.0,0.0,0.0,0.0,0.0,0.0,0.0,7.8919,7.9825,8.0476,7.91,8.0187,8.1563,8.044,0.0,0.0,0.0,0.0,0.0,0.0,0.0,0.0,0.0,0.0,0.0,0.0,0.0,0.0,0.0,0.0,0.0,0.0,0.0,0.0,0.0,0.0,0.0,0.0,0.0,0.0,0.0,0.0,0.0,0.0,0.0,0.0,0.0,9.6453,9.6216,9.602,9.5939,9.5695,9.5398,9.5398,9.5398,9.5398,9.5398,9.5398,9.5398,9.5398,9.5398,9.5398,9.5398,9.5398,9.5398,9.5398,9.5398,9.5398,9.5398,9.576,9.6195,0.0,0.0,0.0,0.0,0.0,0.0,6.2005,6.2005,6.2005,6.2005,6.2005,6.2005,0.0,0.0,0.0,6.2005,6.2005,6.206,6.2185,6.2765,6.369,6.5018,6.6299,6.7945,7.0181,7.2532,7.4808,7.7121,7.6937,7.6497,7.5873,7.5873,7.5372,7.4615,0.0,7.6436,7.5825,7.6692,7.7011,7.6937,7.8112,7.7987,7.7166,0.0,0.0,0.0,0.0,0.0,0.0,0.0,0.0,0.0,7.8368,7.917,8.0042,7.939,8.0549,8.1998,0.0,0.0,0.0,0.0,0.0,0.0,0.0,0.0,0.0,0.0,0.0,0.0,0.0,0.0,0.0,0.0,0.0,0.0,0.0,0.0,0.0,0.0,0.0,0.0,0.0,0.0,0.0,0.0,0.0,0.0,0.0,0.0,0.0,0.0,9.6608,9.6375,9.602,9.602,9.5777,9.5398,9.5398,9.5398,9.5398,9.5398,9.5398,9.5398,9.5398,9.5398,9.5398,9.5398,9.5398,9.5398,9.5398,9.5398,9.5398,9.5398,9.5905,9.6521,0.0,0.0,0.0,0.0,0.0,6.2005,6.2005,6.2005,6.2005,6.2005,6.2005,6.2005,0.0,0.0,0.0,6.2005,6.2005,6.206,6.2185,6.2328,6.3215,6.5018,6.5969,6.8238,7.208,7.3061,7.3891,7.4698,7.5506,7.5139,7.3744,7.6019,7.6717,7.6093,0.0,7.8626,7.7268,7.7965,7.7414,7.624,7.7855,7.794,7.7166,7.8007,0.0,0.0,0.0,0.0,0.0,0.0,0.0,0.0,7.7813,7.8296,7.9028,7.9535,8.1454,0.0,0.0,0.0,0.0,0.0,0.0,0.0,0.0,0.0,0.0,0.0,0.0,0.0,0.0,0.0,0.0,0.0,0.0,0.0,0.0,0.0,0.0,0.0,0.0,0.0,0.0,0.0,0.0,0.0,0.0,0.0,0.0,0.0,0.0,9.6685,9.6685,9.6453,9.602,9.602,9.5777,9.5398,9.5398,9.5398,9.5398,9.5398,9.5398,9.5398,9.5398,9.5398,9.5398,9.5398,9.5398,9.5398,9.5398,9.5398,9.5398,9.5398,9.5942,9.6702,0.0,0.0,0.0,0.0,0.0,0.0,6.2005,6.2005,6.2005,6.2005,6.2005,6.2005,6.2005,6.2005,0.0,6.2005,6.2005,6.206,6.2185,6.2328,6.3215,6.5018,6.7176,6.932,7.1484,7.1668,7.2202,7.301,7.3817,7.4037,7.3707,7.4882,7.5322,7.5212,7.6387,7.6717,7.635,7.5873,7.5873,7.6203,7.7194,7.7426,7.7353,7.8196,7.8013,0.0,0.0,0.0,0.0,0.0,0.0,0.0,7.8244,7.9194,8.047,7.859,0.0,0.0,0.0,0.0,0.0,0.0,0.0,0.0,0.0,0.0,0.0,0.0,0.0,0.0,0.0,0.0,0.0,0.0,0.0,0.0,0.0,0.0,0.0,0.0,0.0,0.0,0.0,0.0,0.0,0.0,0.0,0.0,0.0,0.0,0.0,9.6453,9.6608,9.6375,9.5777,9.5939,9.5777,0.0,9.5398,9.5398,9.5398,9.5398,9.5398,9.5398,9.5398,9.5398,9.5398,9.5398,9.5398,9.5398,9.5398,9.5398,9.5398,9.5398,9.6304,9.7427,0.0,0.0,0.0,0.0,0.0,0.0,0.0,0.0,6.2005,6.2005,6.2005,6.2005,6.2005,6.2005,0.0,0.0,6.2005,6.2005,6.2114,6.2222,6.3491,6.6116,6.7963,6.9669,7.1284,7.1321,7.1321,7.1358,7.2165,7.2753,0.0,0.0,0.0,7.5542,7.6754,7.6864,7.6056,7.5652,7.5506,7.5652,7.6827,7.7084,7.6864,7.8112,7.7818,7.679,7.7009,0.0,0.0,0.0,0.0,0.0,0.0,0.0,8.0139,0.0,0.0,0.0,0.0,0.0,0.0,0.0,0.0,0.0,0.0,0.0,0.0,0.0,0.0,0.0,0.0,0.0,0.0,0.0,0.0,0.0,0.0,0.0,0.0,0.0,0.0,0.0,0.0,0.0,0.0,0.0,0.0,0.0,0.0,9.6608,9.6608,9.6531,9.6645,9.6453,9.5858,9.5939,9.5777,9.5398,9.5398,9.5398,9.5398,9.5398,9.5398,9.5398,9.5398,9.5398,9.5398,9.5398,9.5398,9.5398,9.5398,9.5398,9.5398,9.5398,9.6159,9.7173,0.0,0.0,0.0,0.0,0.0,0.0,0.0,0.0,0.0,6.2005,6.2005,6.2005,6.2005,6.2005,6.2005,0.0,0.0,0.0,6.2005,6.2422,6.402,6.7195,6.8367,6.9596,7.1064,7.1101,7.077,7.011,7.0917,0.0,0.0,0.0,0.0,7.5946,7.7341,7.7194,7.5873,7.5616,7.5175,7.4808,7.6166,7.6387,7.6056,7.7598,7.7304,7.6203,7.6924,7.7291,7.7573,7.7961,0.0,0.0,0.0,0.0,0.0,0.0,0.0,0.0,0.0,0.0,0.0,0.0,0.0,0.0,0.0,0.0,0.0,0.0,0.0,0.0,0.0,0.0,0.0,0.0,0.0,0.0,0.0,0.0,0.0,0.0,0.0,0.0,0.0,0.0,0.0,0.0,0.0,0.0,9.6685,9.6685,9.6608,9.6608,9.6608,9.6453,9.5939,9.602,9.5777,9.5398,9.5398,9.5398,9.5398,9.5398,9.5398,9.5398,9.5398,9.5398,9.5398,9.5398,9.5398,9.5398,9.5398,9.5398,9.5398,9.5398,9.5905,9.6593,0.0,0.0,0.0,0.0,0.0,0.0,0.0,0.0,0.0,0.0,6.2005,6.2005,6.2005,6.2005,6.2005,6.2005,6.2005,6.2005,6.2005,0.0,0.0,6.657,6.8091,6.9339,7.022,7.0257,7.022,7.011,7.0917,0.0,0.0,0.0,0.0,7.5065,0.0,0.0,7.4992,7.356,7.3303,7.3891,7.4074,7.4515,7.5175,7.6093,7.6276,7.6203,7.6949,7.7781,7.8332,7.7646,7.8856,0.0,0.0,0.0,0.0,0.0,0.0,0.0,0.0,0.0,0.0,0.0,0.0,0.0,0.0,0.0,0.0,0.0,0.0,0.0,0.0,0.0,0.0,0.0,0.0,0.0,0.0,0.0,0.0,0.0,0.0,0.0,0.0,0.0,0.0,0.0,0.0,0.0,9.6685,9.6531,9.6453,9.6453,9.6453,9.6216,9.5777,9.5939,9.5777,9.5398,9.5398,9.5398,9.5398,9.5398,9.5398,9.5398,9.5398,9.5398,9.5398,9.5398,9.5398,9.5398,9.5398,9.5398,9.5398,9.5398,9.5905,9.6702,0.0,0.0,0.0,0.0,0.0,0.0,0.0,0.0,0.0,0.0,0.0,6.2005,6.2005,6.2005,6.2005,6.2005,6.206,6.2114,6.2114,6.3384,6.4748,6.6225,6.7451,6.855,6.9412,6.9449,6.9192,6.8752,0.0,0.0,0.0,7.3487,7.4698,0.0,0.0,0.0,0.0,0.0,0.0,7.3707,7.3707,7.4992,7.69,7.6313,7.6974,7.8112,7.7524,0.0,0.0,0.0,0.0,0.0,0.0,0.0,0.0,0.0,0.0,0.0,0.0,0.0,0.0,0.0,0.0,0.0,0.0,0.0,0.0,0.0,0.0,0.0,0.0,0.0,0.0,0.0,0.0,0.0,0.0,0.0,0.0,0.0,0.0,0.0,0.0,0.0,0.0,0.0,0.0,9.6375,9.6531,9.6296,9.6296,9.6531,9.6453,9.6216,9.5858,9.5939,9.5777,9.5398,9.5398,9.5398,9.5398,9.5398,9.5398,9.5398,9.5398,9.5398,9.5398,9.5398,9.5398,9.5398,9.5398,9.5398,9.5398,9.5398,9.5905,9.6702,0.0,0.0,0.0,0.0,0.0,0.0,0.0,0.0,0.0,0.0,0.0,6.2114,6.2295,0.0,0.0,0.0,6.2694,6.2803,6.2857,6.3782,6.4821,6.6062,6.703,6.7872,6.8568,6.8605,6.8311,6.7687,0.0,0.0,7.1651,7.3266,7.4992,0.0,7.5652,0.0,0.0,0.0,0.0,7.3744,7.4368,7.6093,7.8259,7.8038,7.9103,8.0498,7.8846,0.0,0.0,0.0,0.0,0.0,7.9343,8.0377,0.0,0.0,0.0,0.0,0.0,0.0,0.0,0.0,0.0,0.0,0.0,0.0,0.0,0.0,0.0,0.0,0.0,0.0,0.0,0.0,0.0,0.0,0.0,0.0,0.0,0.0,0.0,0.0,0.0,0.0,0.0,0.0,0.0,9.61,9.6375,9.61,9.61,9.6608,9.6375,9.6216,9.5939,9.5858,9.5695,9.5398,9.5398,9.5398,9.5398,9.5398,9.5398,9.5398,9.5398,9.5398,9.5398,9.5398,9.5398,9.5398,9.5616,9.5579,9.5435,9.5833,9.6376,9.7028,0.0,0.0,0.0,0.0,0.0,0.0,0.0,0.0,0.0,0.0,0.0,6.2295,6.3056,6.3128,6.3418,6.4215,6.4419,6.453,6.4694,6.5623,6.6152,6.6225,6.7139,0.0,6.776,6.776,6.7724,0.0,0.0,0.0,7.2459,7.4074,7.613,7.8405,7.6754,7.6056,7.5946,0.0,0.0,0.0,7.6203,7.7231,7.7781,8.1599,0.0,0.0,0.0,0.0,0.0,0.0,0.0,7.8662,7.8662,7.9636,8.0751,0.0,0.0,0.0,0.0,0.0,0.0,0.0,0.0,0.0,0.0,0.0,0.0,0.0,0.0,0.0,0.0,0.0,0.0,0.0,0.0,0.0,0.0,0.0,0.0,0.0,0.0,0.0,0.0,0.0,0.0,0.0,0.0,9.61,9.6375,9.5939,9.5939,9.6375,9.618,9.5939,9.5695,9.5529,9.5398,9.5398,9.5398,9.5398,9.5398,9.5398,9.5398,9.5398,9.5398,9.5398,9.5398,9.5398,9.5398,9.5471,9.6231,9.605,9.5579,9.7101,9.768,9.7861,0.0,0.0,0.0,0.0,0.0,0.0,0.0,0.0,0.0,0.0,0.0,0.0,0.0,6.3961,6.407,6.4359,6.4509,6.4639,6.4803,6.5624,6.6153,6.6262,6.7085,6.7579,6.7687,6.7687,0.0,0.0,0.0,6.9633,7.1762,7.2863,7.4955,7.7745,7.6607,7.6387,7.679,7.5175,0.0,0.0,0.0,0.0,0.0,0.0,0.0,0.0,0.0,0.0,0.0,0.0,0.0,7.8589,7.8589,7.926,8.025,8.0699,8.1065,0.0,0.0,0.0,0.0,0.0,0.0,0.0,0.0,0.0,0.0,0.0,0.0,0.0,0.0,0.0,0.0,0.0,0.0,0.0,0.0,0.0,0.0,0.0,0.0,0.0,0.0,0.0,0.0,0.0,0.0,0.0,9.5939,9.5695,9.5695,9.61,9.602,9.5939,9.5858,9.5529,9.5398,9.5398,9.5398,9.5398,9.5398,9.5398,9.5398,9.5398,9.5398,9.5398,9.5398,9.5398,9.5688,9.6195,9.6485,9.6738,9.7064,9.8151,9.8585,9.8767,0.0,0.0,0.0,0.0,0.0,0.0,0.0,0.0,0.0,0.0,0.0,0.0,0.0,0.0,6.496,6.5327,6.5476,6.5587,6.5697,6.6226,6.661,6.6665,6.7268,6.7579,6.7687,6.7687,0.0,0.0,0.0,0.0,0.0,0.0,7.3927,7.6497,7.624,0.0,0.0,0.0,0.0,7.5542,0.0,0.0,8.2333,0.0,0.0,0.0,0.0,0.0,0.0,0.0,0.0,7.969,7.9176,7.9176,7.9543,8.0351,8.0791,8.1305,8.2627,0.0,0.0,0.0,0.0,0.0,0.0,0.0,0.0,0.0,0.0,0.0,0.0,0.0,0.0,0.0,0.0,0.0,0.0,0.0,0.0,0.0,0.0,0.0,0.0,0.0,0.0,0.0,0.0,0.0,9.5695,9.5529,9.5612,9.602,9.5858,9.5858,9.602,9.5612,9.5398,9.5398,9.5398,9.5398,9.5398,9.5398,9.5398,9.5398,9.5398,9.5398,9.5398,9.5688,9.6123,9.663,9.7173,9.7716,9.8296,9.9093,9.9563,9.9962,0.0,0.0,0.0,0.0,0.0,0.0,0.0,0.0,0.0,0.0,0.0,0.0,0.0,0.0,0.0,6.7081,6.7359,6.747,6.747,6.7633,6.7633,6.747,6.7633,6.7687,6.7687,6.7687,0.0,0.0,0.0,0.0,0.0,0.0,7.3303,0.0,7.5689,7.6974,7.8516,0.0,0.0,7.6607,0.0,8.1966,8.0534,0.0,0.0,0.0,8.4976,8.4646,0.0,0.0,0.0,0.0,8.0241,7.9213,7.8699,7.9543,8.0351,8.1158,0.0,0.0,0.0,0.0,0.0,0.0,0.0,0.0,0.0,0.0,0.0,0.0,0.0,0.0,0.0,0.0,0.0,0.0,0.0,0.0,0.0,0.0,0.0,0.0,0.0,0.0,0.0,0.0,0.0,9.5482,9.5695,9.5566,9.5612,9.602,9.5612,9.5612,9.602,9.5612,9.5398,9.5398,9.5398,9.5398,9.5398,9.5398,9.5398,9.5435,9.5435,9.5435,9.5507,9.6268,9.663,9.6811,9.8404,9.902,9.9129,9.9962,10.0722,10.141,0.0,0.0,0.0,0.0,0.0,6.6713,6.6769,6.6474,6.6271,0.0,0.0,0.0,0.0,0.0,0.0,6.704,6.721,6.7266,6.7266,6.747,6.7579,6.7633,6.7687,6.7687,6.7687,6.7687,6.7687,0.0,0.0,0.0,0.0,0.0,0.0,0.0,7.4625,7.5799,7.6827,7.7414,0.0,0.0,0.0,8.2296,0.0,0.0,0.0,0.0,0.0,8.6077,0.0,0.0,8.2774,8.1048,0.0,7.8369,7.7965,7.936,7.9947,8.0424,8.1819,0.0,0.0,0.0,0.0,0.0,0.0,0.0,0.0,0.0,0.0,0.0,0.0,0.0,0.0,0.0,0.0,0.0,0.0,0.0,0.0,0.0,0.0,0.0,0.0,0.0,0.0,0.0,9.5398,9.5398,9.5482,9.5482,9.5612,9.602,9.5612,9.5612,9.602,9.5612,9.5398,9.5398,9.5398,9.5398,9.5398,9.5398,9.5688,9.6268,9.6268,9.6593,9.7101,9.6738,9.7282,9.8368,9.8839,9.9346,9.9998,10.141,10.17,10.1628,0.0,0.0,6.7378,6.7322,6.7502,6.7555,6.717,6.7331,6.7382,0.0,0.0,0.0,0.0,0.0,0.0,6.7019,6.7154,6.7359,6.7359,6.747,6.7633,6.7687,6.7687,6.7687,6.7687,6.7687,6.7687,0.0,0.0,0.0,0.0,0.0,0.0,0.0,0.0,0.0,0.0,0.0,0.0,0.0,8.1085,0.0,0.0,8.5637,8.6371,0.0,0.0,0.0,8.4719,8.538,8.4022,0.0,0.0,0.0,0.0,7.9103,7.9764,8.0498,8.1452,8.1929,8.2406,0.0,0.0,0.0,0.0,0.0,0.0,0.0,0.0,0.0,0.0,0.0,0.0,0.0,0.0,0.0,0.0,0.0,0.0,0.0,0.0,0.0,0.0,0.0,0.0,9.5398,9.5398,9.5398,9.5398,9.5398,9.5529,9.5858,9.5529,9.5529,9.5858,9.5529,9.5398,9.5398,9.5398,9.5398,9.5398,9.5398,9.5833,9.6593,9.6593,9.7245,9.826,9.7789,9.8151,9.902,9.9382,9.9998,10.0795,10.1773,10.199,10.2099,0.0,6.7633,6.7616,6.7616,6.8182,6.8382,6.744,6.7782,6.7905,0.0,0.0,0.0,0.0,0.0,0.0,0.0,6.7339,6.747,6.747,6.7579,6.7687,6.7687,6.7687,6.7687,6.7687,6.7687,6.7687,0.0,0.0,0.0,0.0,0.0,0.0,0.0,7.1982,7.3377,7.367,0.0,0.0,7.8993,8.1966,8.2443,0.0,0.0,8.5086,0.0,8.5637,8.5747,8.5343,8.6591,0.0,0.0,0.0,0.0,0.0,0.0,8.0021,8.1269,8.1158,8.1709,8.2517,0.0,0.0,0.0,0.0,0.0,0.0,0.0,0.0,0.0,0.0,0.0,0.0,0.0,0.0,0.0,0.0,0.0,0.0,0.0,0.0,0.0,0.0,9.4964,9.5398,9.5398,9.5398,9.5398,9.5398,9.5398,9.5446,9.5695,9.5529,9.5482,9.5695,9.5446,9.5398,9.5398,9.5398,9.5398,9.5398,9.5398,9.5869,9.6738,9.6738,9.7644,9.9129,9.9129,9.9129,9.9201,9.9998,10.0722,10.1302,10.1519,10.1918,10.2569,6.7322,6.7322,6.7485,6.7971,6.8168,6.8481,6.9012,6.8568,6.84,6.8813,0.0,0.0,0.0,0.0,0.0,6.8,6.7555,6.7266,6.7266,6.7414,6.7579,6.7687,6.7687,6.7687,6.7687,6.7687,6.7687,6.7687,0.0,0.0,0.0,0.0,0.0,0.0,0.0,7.1505,7.2826,0.0,0.0,7.9653,8.0938,0.0,0.0,8.604,8.6958,8.7399,8.8353,8.861,8.8316,0.0,8.6261,8.4976,0.0,0.0,0.0,0.0,0.0,0.0,0.0,0.0,0.0,0.0,0.0,0.0,0.0,0.0,0.0,0.0,0.0,0.0,0.0,0.0,0.0,0.0,0.0,0.0,0.0,0.0,0.0,0.0,0.0,0.0,0.0,9.529,9.5398,9.5398,9.5398,9.5398,9.5398,9.5398,9.5446,9.5695,9.5529,9.5482,9.5695,9.5446,9.5398,9.5398,9.5398,9.5398,9.5398,9.5398,9.6195,9.7571,9.7571,9.8477,9.9962,9.9962,9.9962,9.9998,10.0903,10.0903,10.0614,10.1881,10.2099,10.1809,6.7414,6.7359,6.7522,6.8189,6.8721,6.918,6.9544,6.9559,6.9441,6.9418,0.0,0.0,0.0,0.0,0.0,6.8717,6.8073,6.7716,6.7794,6.7634,6.7524,6.7687,6.7687,6.7687,6.7687,6.7687,6.7687,6.7687,0.0,0.0,0.0,0.0,0.0,0.0,0.0,0.0,0.0,0.0,7.6313,7.8772,8.1232,0.0,8.5967,8.7582,8.8463,8.8867,8.9271,8.9417,8.916,8.7545,8.6738,0.0,0.0,8.4535,8.4792,0.0,8.3067,8.3765,0.0,0.0,0.0,8.3324,0.0,0.0,0.0,0.0,0.0,0.0,0.0,0.0,0.0,0.0,0.0,0.0,0.0,0.0,0.0,0.0,0.0,0.0,0.0,0.0,0.0,9.5978,9.5978,9.5978,9.5616,9.5398,9.5398,9.5398,9.5482,9.5529,9.5446,9.5482,9.5529,9.5482,9.5398,9.5398,9.5398,9.5398,9.5398,9.5398,9.6268,9.7789,9.7789,9.8694,10.0215,10.0215,10.0215,10.0215,10.0614,10.0614,10.0396,10.199,10.228,10.2207,6.747,6.7414,6.7651,6.8429,6.9216,6.9785,6.996,7.0374,7.0519,6.9927,0.0,0.0,0.0,0.0,0.0,0.0,6.9322,6.8954,6.8888,6.8328,6.8147,6.8605,6.8017,6.7907,6.8385,6.7944,6.7687,6.7687,0.0,0.0,0.0,0.0,0.0,0.0,0.0,0.0,0.0,0.0,0.0,7.8332,0.0,8.4499,8.6297,8.8206,8.905,8.9234,8.9711,8.9784,8.9417,8.7766,0.0,8.7252,8.5967,8.5967,0.0,0.0,0.0,0.0,0.0,0.0,0.0,0.0,0.0,8.4572,0.0,0.0,0.0,0.0,0.0,0.0,0.0,0.0,0.0,0.0,0.0,0.0,0.0,0.0,0.0,0.0,0.0,0.0,0.0,9.634,9.6485,9.6811,9.5797,9.529,9.5579,9.5471,9.5398,9.5398,9.5398,9.5398,9.5398,9.5398,9.5398,9.5398,9.5398,9.5398,9.5398,9.5543,9.6412,9.7789,9.797,9.8875,10.0215,10.0215,10.0215,10.0215,10.0505,10.0505,10.0396,10.199,10.2388,10.228,6.7266,6.721,6.7628,6.8899,6.9165,6.9709,7.1086,7.0796,7.0713,7.1417,7.3325,0.0,0.0,0.0,0.0,0.0,0.0,0.0,7.0836,7.0067,7.0307,7.1908,6.9229,6.8678,7.0844,6.8788,6.7687,6.7687,0.0,0.0,0.0,0.0,0.0,0.0,7.2936,0.0,0.0,0.0,7.9103,0.0,8.2663,8.3141,0.0,8.6114,8.7729,8.861,9.0776,9.1069,9.0225,0.0,8.8536,8.861,0.0,8.6701,0.0,0.0,0.0,0.0,0.0,0.0,0.0,0.0,8.5527,0.0,0.0,0.0,0.0,0.0,0.0,0.0,0.0,0.0,0.0,0.0,0.0,0.0,0.0,0.0,0.0,0.0,0.0,0.0,0.0,0.0,9.6123,9.7571,9.5616,9.4964,9.6376,9.576,9.5398,9.5398,9.5398,9.5398,9.5398,9.5398,9.5398,9.5398,9.5398,9.5398,9.5398,9.6123,9.6956,9.7825,9.8549,9.9382,10.0215,10.0215,10.0215,10.0324,10.1773,10.1483,10.0396,10.199,10.17,10.0614,6.7266,6.7154,6.7404,6.845,6.8971,6.9721,7.0908,7.1623,7.2314,7.3052,7.4006,0.0,0.0,0.0,0.0,0.0,0.0,0.0,0.0,0.0,7.1223,7.1101,6.9376,6.8862,6.9889,6.8458,6.7687,6.7687,6.7687,0.0,0.0,0.0,0.0,0.0,7.4147,0.0,7.7524,0.0,0.0,0.0,0.0,0.0,0.0,8.7325,8.9601,9.0408,9.1436,9.1583,9.1106,0.0,8.9528,0.0,0.0,0.0,0.0,0.0,0.0,0.0,0.0,0.0,0.0,0.0,0.0,0.0,0.0,0.0,8.7105,0.0,0.0,0.0,0.0,0.0,0.0,0.0,0.0,0.0,0.0,0.0,0.0,0.0,0.0,0.0,0.0,0.0,0.0,0.0,0.0,9.4891,9.6485,9.5833,9.5398,9.5398,9.5398,9.5616,9.6086,9.5616,9.5616,9.6086,9.5616,9.5616,9.6086,9.6449,9.7282,9.8513,9.8839,9.9455,10.0215,10.0215,10.0215,10.0288,10.1483,10.1193,10.0324,10.1483,10.1483,10.1012,6.7651,6.7393,6.7461,6.8364,6.9018,6.9745,7.0847,7.2376,7.3723,0.0,0.0,0.0,7.6454,7.6162,0.0,0.0,0.0,7.5859,0.0,0.0,7.3149,7.2789,0.0,0.0,0.0,6.8898,6.7907,6.7687,6.7687,0.0,0.0,0.0,0.0,0.0,0.0,7.7231,8.0021,0.0,0.0,8.0351,8.1746,8.3177,8.4903,8.8793,9.0922,9.1803,9.1803,9.1803,9.1657,9.0629,9.0041,0.0,8.9895,0.0,0.0,0.0,0.0,0.0,8.5967,0.0,0.0,0.0,0.0,0.0,0.0,0.0,0.0,0.0,0.0,0.0,0.0,0.0,0.0,0.0,0.0,0.0,0.0,0.0,0.0,0.0,0.0,0.0,0.0,0.0,0.0,0.0,0.0,0.0,9.6811,9.6159,9.5616,9.5398,9.5398,9.576,9.6593,9.5797,9.5797,9.6593,9.576,9.5797,9.6593,9.6811,9.768,9.902,9.9237,9.9672,10.0215,10.0215,10.0215,10.0288,10.0831,10.0722,10.0288,10.1121,10.1302,10.1193,6.8677,6.8018,6.787,6.915,6.9381,6.9866,7.1303,7.2834,0.0,0.0,0.0,0.0,0.0,0.0,0.0,0.0,0.0,8.0131,7.8552,0.0,7.7047,0.0,0.0,0.0,0.0,0.0,6.8495,6.7687,6.7687,6.8091,0.0,0.0,0.0,0.0,0.0,7.7304,7.7635,8.0791,8.2994,8.4499,8.5306,8.7545,9.0262,0.0,9.0445,9.1803,9.1803,0.0,0.0,8.9968,8.9968,0.0,0.0,0.0,0.0,0.0,0.0,0.0,0.0,0.0,0.0,8.6995,0.0,0.0,0.0,0.0,8.7949,0.0,0.0,0.0,0.0,0.0,0.0,0.0,0.0,0.0,0.0,0.0,0.0,0.0,0.0,0.0,0.0,0.0,0.0,0.0,0.0,0.0,9.7571,9.6992,9.6195,9.5398,9.5398,9.576,9.6593,9.5797,9.5797,9.6593,9.576,9.5797,9.663,9.739,9.8223,9.9056,9.9817,10.0215,10.0215,10.0215,10.0215,10.0215,10.0215,10.0215,10.0288,10.1121,10.0903,10.0215,6.9441,6.9665,6.9631,6.8345,6.8924,7.0228,0.0,7.3452,0.0,0.0,0.0,0.0,0.0,0.0,8.1593,0.0,0.0,8.215,8.1048,7.9433,0.0,0.0,0.0,7.2716,0.0,0.0,6.9559,6.9265,6.9265,6.9412,0.0,0.0,0.0,0.0,0.0,7.8516,0.0,0.0,0.0,0.0,0.0,8.7876,8.9895,0.0,0.0,9.1803,9.1803,9.1803,0.0,9.1179,9.0812,9.0592,9.0592,9.0041,8.9528,9.0041,9.0188,0.0,0.0,0.0,9.1326,8.916,0.0,0.0,0.0,0.0,0.0,0.0,0.0,0.0,0.0,0.0,0.0,0.0,0.0,0.0,0.0,0.0,0.0,0.0,0.0,0.0,0.0,0.0,0.0,0.0,0.0,0.0,0.0,9.7318,9.6485,9.6195,9.5652,9.576,9.6593,9.5797,9.5797,9.6593,9.6304,9.6593,9.7427,9.8223,9.902,9.9817,10.0107,10.0215,10.0215,10.0215,10.0215,10.0215,10.0215,10.0215,10.0288,10.1121,10.1229,10.1121,7.1165,7.1207,7.0751,6.895,6.9894,0.0,0.0,0.0,0.0,0.0,7.9844,0.0,8.2684,0.0,8.3118,0.0,8.3991,8.3654,8.2296,8.1489,0.0,8.0645,7.7084,0.0,0.0,0.0,0.0,7.1358,7.0807,7.055,0.0,0.0,0.0,0.0,0.0,0.0,0.0,0.0,8.3948,0.0,0.0,8.8647,0.0,0.0,9.1436,9.0959,0.0,9.1143,9.1363,9.1363,9.1216,9.1106,9.1657,9.1106,9.0372,9.0886,9.1253,9.1436,9.1106,9.2427,0.0,9.0886,9.0665,0.0,8.7325,0.0,0.0,0.0,0.0,0.0,0.0,0.0,0.0,0.0,0.0,0.0,0.0,0.0,0.0,0.0,0.0,0.0,0.0,0.0,0.0,0.0,0.0,0.0,0.0,0.0,9.6883,9.6593,9.5797,9.576,9.6593,9.6086,9.6086,9.6593,9.6883,9.7282,9.7825,9.8622,9.9455,10.0215,10.0215,10.0215,10.0215,10.0215,10.0215,10.0215,10.0215,10.0215,10.0288,10.1121,10.1592,10.199,7.356,7.2475,7.1427,7.1099,7.2206,0.0,0.0,0.0,7.8165,0.0,8.1666,8.3527,8.4646,8.4682,8.4646,8.4646,8.5306,0.0,8.248,8.2994,0.0,0.0,8.0718,8.0204,8.1122,0.0,0.0,0.0,7.2239,7.1431,7.1468,0.0,0.0,0.0,7.5432,0.0,8.1122,8.1929,8.4132,8.7215,8.883,8.9895,9.0629,9.1436,0.0,8.9417,8.9454,8.9968,9.0592,9.0592,9.1106,9.173,9.1803,9.1803,9.1803,9.1803,9.2427,9.2941,9.2134,9.2574,9.3015,9.2207,0.0,0.0,0.0,0.0,9.1363,0.0,0.0,0.0,0.0,0.0,0.0,0.0,0.0,0.0,0.0,0.0,0.0,0.0,0.0,0.0,0.0,0.0,0.0,0.0,0.0,0.0,0.0,0.0,9.739,9.6666,9.5869,9.5797,9.6521,9.6557,9.6557,9.6557,9.7427,9.7825,9.7825,9.8658,9.9491,10.0179,10.0179,10.0179,10.0179,10.0179,10.0179,10.0215,10.0215,10.0215,10.0396,10.1193,10.199,10.2787,7.3532,7.3847,7.4431,7.4518,7.3447,7.3057,0.0,0.0,0.0,0.0,8.2941,8.4762,8.6224,8.5857,8.549,8.549,8.5123,0.0,0.0,0.0,0.0,8.4829,8.1599,8.0718,8.2737,7.8405,0.0,7.6387,0.0,0.0,7.3083,0.0,0.0,0.0,0.0,0.0,8.1929,8.2774,8.4939,8.8023,8.9638,9.0078,0.0,0.0,9.0298,8.9491,9.0078,9.0445,9.0592,9.0592,9.0739,9.1033,9.162,9.1803,9.1803,9.1803,9.2427,9.3198,9.3565,9.4263,9.4703,9.3859,9.3235,9.2281,0.0,0.0,0.0,0.0,0.0,0.0,0.0,0.0,0.0,0.0,0.0,0.0,0.0,0.0,0.0,0.0,0.0,0.0,0.0,0.0,0.0,0.0,0.0,0.0,0.0,0.0,0.0,9.7463,9.6702,9.6086,9.5688,9.6304,9.6304,9.5724,9.7716,9.8368,9.7861,9.9237,10.0086,10.0406,10.0406,10.0406,10.0406,10.0406,10.0318,10.0215,10.0215,10.0614,10.1193,10.199,10.3113,10.4308,7.5153,7.6235,7.7368,7.7331,0.0,0.0,7.7312,0.0,0.0,8.1593,8.3154,0.0,8.5343,8.5343,8.527,8.527,8.4866,0.0,0.0,0.0,0.0,8.4205,8.2737,8.2517,8.3911,8.0534,0.0,7.8405,0.0,0.0,7.4221,0.0,0.0,0.0,0.0,7.9286,0.0,8.3654,8.5894,8.8316,8.9564,0.0,0.0,9.0812,9.0629,9.0041,9.0849,9.0922,9.0555,9.0188,9.0555,9.1143,9.1253,9.151,9.1803,9.1803,9.2427,9.3198,9.3639,9.4373,9.4887,9.441,9.4226,9.3712,9.206,9.2611,9.3345,0.0,0.0,0.0,0.0,0.0,0.0,0.0,0.0,0.0,0.0,0.0,0.0,0.0,0.0,0.0,0.0,0.0,0.0,0.0,0.0,0.0,0.0,0.0,0.0,9.7752,9.7354,9.6557,9.5398,9.6557,9.6521,9.5398,9.7911,9.8636,9.7861,9.9542,10.0442,10.0492,10.0492,10.0542,10.0627,10.0456,10.0406,10.0355,10.0179,10.0903,10.199,10.2388,10.3366,10.4417,0.0,0.0,0.0,0.0,0.0,0.0,0.0,8.0003,0.0,8.1937,0.0,8.3581,8.3581,8.4095,8.4462,0.0,0.0,8.3691,8.2296,8.3618,8.3838,8.2406,8.3691,8.4499,8.4609,8.292,0.0,0.0,0.0,0.0,7.5065,7.5763,0.0,0.0,0.0,0.0,0.0,8.4682,8.6775,0.0,8.916,8.9931,9.0555,9.1583,9.1546,9.1033,9.184,9.1473,9.0519,8.9931,9.0592,9.1546,9.0959,9.1253,9.1803,9.1803,9.2354,9.2941,9.3088,9.3602,9.4189,9.441,9.4997,9.518,9.3859,9.4666,9.5511,9.4887,9.4777,9.518,0.0,0.0,0.0,0.0,0.0,0.0,0.0,0.0,0.0,0.0,0.0,0.0,0.0,0.0,0.0,0.0,0.0,0.0,0.0,0.0,0.0,9.7983,9.7911,0.0,9.5808,0.0,9.7113,9.5663,9.8227,9.888,9.7911,9.9679,10.0615,10.0578,10.0578,10.0664,10.0761,10.0627,10.0492,10.0406,10.0303,10.1085,10.2515,10.2623,10.3131,10.3928,0.0,0.0,0.0,0.0,0.0,8.1051,8.2524,8.2223,8.1791,8.1915,8.3404,0.0,8.4389,8.3911,8.3618,8.3618,8.2994,0.0,0.0,0.0,0.0,8.3214,8.3471,8.3911,8.4609,8.237,8.1085,0.0,0.0,0.0,0.0,0.0,0.0,0.0,0.0,0.0,8.4095,8.6004,0.0,8.7399,8.9528,9.0078,8.9858,9.206,9.2794,9.2758,9.3565,9.2464,9.0702,9.1216,9.1143,9.0922,9.1436,9.1693,9.1803,9.1803,9.1913,9.217,9.2905,9.3198,9.3639,9.496,9.5401,9.5621,9.5988,9.6282,9.6649,9.7163,9.7273,9.7126,9.6759,0.0,0.0,0.0,0.0,0.0,0.0,0.0,0.0,0.0,0.0,0.0,0.0,0.0,0.0,0.0,0.0,0.0,0.0,0.0,0.0,0.0,9.8372,0.0,0.0,0.0,9.7788,9.6712,9.928,9.9681,9.8166,9.9899,10.0954,10.1121,10.1121,10.1085,10.1085,10.087,10.0615,10.0231,10.0179,10.0847,10.1858,10.2548,10.3274,10.4109,0.0,0.0,0.0,0.0,0.0,0.0,0.0,8.3001,0.0,8.2092,8.2451,8.2737,8.2737,8.2774,8.2774,8.2774,8.2406,8.2186,8.2186,8.2553,8.2774,8.2774,8.2774,0.0,8.3361,0.0,8.1195,8.0388,0.0,0.0,0.0,0.0,0.0,0.0,0.0,8.215,0.0,0.0,0.0,8.7766,8.9344,9.0005,9.0262,9.2317,9.3088,9.3272,9.4483,9.3896,9.2501,9.2464,9.2501,9.2501,9.2464,9.2758,9.3088,9.3088,9.3088,9.3088,9.3088,9.3088,9.3308,9.4079,9.4593,9.5107,9.5878,9.6392,9.6795,9.7199,9.7273,9.7016,9.6245,9.5107,0.0,0.0,0.0,0.0,0.0,0.0,0.0,0.0,0.0,0.0,0.0,0.0,0.0,0.0,0.0,0.0,0.0,0.0,0.0,0.0,0.0,0.0,0.0,0.0,0.0,9.6441,9.8692,9.9239,9.8297,10.0188,10.1121,10.1204,10.1204,10.1287,10.1295,10.1002,10.0627,10.0391,10.065,10.1225,10.1801,10.3073,10.3799,10.4199,0.0,8.3358,0.0,0.0,8.4341,0.0,0.0,8.3374,8.3104,8.2296,8.1636,8.1269,8.1269,8.1819,8.2186,8.2186,8.237,8.2443,8.2443,8.2627,8.27,8.27,8.27,8.27,8.27,8.27,8.1929,0.0,0.0,0.0,0.0,0.0,0.0,0.0,0.0,0.0,0.0,0.0,8.7325,8.828,8.9087,8.9895,9.0812,9.2648,9.3455,9.3822,9.5254,9.5364,9.4703,9.4079,9.4042,9.4189,9.3565,9.3786,9.4299,9.4299,9.4299,9.4153,9.3529,9.3345,9.3418,9.3565,9.4079,9.4777,9.5584,9.6245,9.6759,9.6906,9.7089,9.6979,9.6171,9.5768,0.0,0.0,0.0,0.0,0.0,0.0,0.0,0.0,0.0,0.0,0.0,0.0,0.0,0.0,0.0,0.0,0.0,0.0,0.0,0.0,0.0,9.8582,9.7385,0.0,9.7159,0.0,9.8241,9.8936,9.8546,10.0436,10.1287,10.1287,10.1287,10.1295,10.1413,10.1002,10.0713,10.0565,10.1173,10.1661,10.2339,10.3888,10.447,10.4632,0.0,0.0,0.0,0.0,0.0,0.0,0.0,8.3875,8.3104,8.2296,8.2113,8.2076,8.2076,8.215,8.2186,8.2186,8.2884,8.3287,8.3287,8.3985,8.4389,8.4389,8.4389,8.4389,8.4389,8.4389,8.3581,0.0,0.0,0.0,0.0,0.0,0.0,0.0,0.0,0.0,0.0,8.6114,8.6811,8.828,8.9087,8.9895,9.0849,9.3272,9.463,9.5401,9.6282,9.6539,9.6465,9.6392,9.5437,9.4299,9.4189,9.4226,9.4299,9.4299,9.4299,9.4263,9.4189,9.4189,9.4373,9.5107,9.5327,9.5621,9.6392,9.6649,9.6906,9.764,9.8374,9.8631,9.7823,9.8814,9.8778,0.0,0.0,0.0,0.0,0.0,0.0,0.0,0.0,0.0,0.0,0.0,0.0,0.0,0.0,0.0,0.0,0.0,0.0,9.9474,0.0,9.7808,9.7819,9.8552,9.8437,9.7509,9.9243,9.9646,9.8826,10.0643,10.1494,10.1494,10.1494,10.145,10.1168,10.0881,10.0797,10.0786,10.1225,10.2252,10.3607,10.5042,10.5663,10.5984,0.0,0.0,0.0,0.0,0.0,0.0,0.0,8.3911,8.3104,8.2296,8.2186,8.237,8.2884,8.292,8.3104,8.3618,8.3948,8.4132,8.4132,8.4425,8.4609,8.4609,8.4609,8.4609,8.4609,8.4609,8.4058,0.0,0.0,0.0,0.0,0.0,0.0,0.0,0.0,8.5967,8.7031,8.7692,8.8353,8.8977,8.9271,8.9895,9.0886,9.3345,9.4813,9.5621,9.6428,9.6685,9.6685,9.6685,9.6282,9.5731,9.5731,9.5731,9.5731,9.5731,9.5731,9.5658,9.5144,9.5034,9.5107,9.5437,9.5511,9.5731,9.6539,9.6685,9.6795,9.7126,9.7823,9.8411,9.8594,9.8741,9.8888,0.0,0.0,0.0,0.0,0.0,0.0,0.0,0.0,0.0,0.0,0.0,0.0,0.0,0.0,0.0,0.0,0.0,0.0,9.7442,0.0,9.9066,9.7199,9.797,9.8227,9.774,9.8956,9.9579,9.9763,10.0943,10.1494,10.1494,10.1494,10.1531,10.1368,10.1131,10.0965,10.1111,10.2084,10.2621,10.3217,10.5691,10.6276,10.6217,8.9275,0.0,8.8288,0.0,8.7329,8.6086,8.5416,8.4425,8.3544,8.2994,8.27,8.2774,8.3361,8.3618,8.3985,8.4535,8.4829,8.4939,8.4939,8.5159,8.5306,8.5306,8.5306,0.0,8.5306,8.5306,8.4903,8.4132,8.3544,0.0,0.0,8.1085,0.0,0.0,8.6334,8.7692,8.8096,8.8536,8.883,8.905,8.905,8.9821,9.1179,9.3161,9.474,9.5951,9.6502,9.6685,9.6685,9.6685,9.6685,9.6685,9.6685,9.6685,9.6685,9.6685,9.6685,9.6575,9.6025,9.5878,9.5878,9.5878,9.5878,9.6025,9.6575,9.6685,9.6685,9.6685,9.7163,9.7787,9.8594,9.8484,9.8741,10.0172,0.0,0.0,0.0,0.0,0.0,0.0,0.0,9.8668,0.0,0.0,0.0,0.0,0.0,0.0,0.0,0.0,0.0,0.0,0.0,0.0,0.0,9.7713,9.8117,9.7897,9.8741,9.9512,10.0319,10.109,10.1494,10.1494,10.1494,10.1494,10.1494,10.1287,10.1433,10.1726,10.2779,10.3376,10.3886,10.6583,10.7168,10.6999,8.9166,8.9238,8.9417,8.9417,8.872,8.7912,8.7105,8.56,8.4572,8.4572,8.3875,8.3398,8.3398,8.4132,8.4609,8.4609,8.5306,8.5783,8.5783,8.6518,8.6995,0.0,0.0,8.6995,8.6995,8.6995,8.6591,8.5747,0.0,0.0,8.215,8.2186,8.3875,8.6921,8.6151,8.7582,9.0408,8.8023,8.7509,8.8206,8.8206,8.9638,9.1877,9.2794,9.4593,9.6685,9.6685,9.6685,9.6685,9.6685,9.6685,9.6685,9.6685,9.6685,9.6685,9.6685,9.6685,9.6685,9.6685,9.6685,9.6685,9.6685,9.6685,9.6685,9.6685,9.6685,9.6685,9.6685,9.6722,9.6942,9.775,9.8557,9.8851,9.808,0.0,0.0,0.0,0.0,0.0,0.0,9.4373,9.3492,9.753,0.0,0.0,0.0,0.0,0.0,0.0,0.0,0.0,10.0724,10.0481,0.0,9.6722,9.83,9.8704,9.7897,9.8741,9.9512,10.0319,10.109,10.1494,10.1494,10.1494,10.1494,10.1494,10.1287,10.1845,10.266,10.3084,10.4448,10.6523,10.7878,10.8515,10.9019,8.9566,8.9786,8.9895,8.8793,8.839,8.7729,8.6371,8.527,8.4609,8.4609,8.4389,8.4425,8.4976,8.527,8.5637,0.0,8.6481,8.6628,0.0,8.6885,8.6995,8.6995,8.6995,8.6995,8.6995,8.6995,8.6885,8.6628,0.0,0.0,0.0,8.5233,8.6628,8.8683,8.894,8.9638,9.0482,8.861,8.7986,8.8206,8.8206,8.9674,9.195,9.2794,9.4593,9.6685,9.6685,9.6685,9.6685,9.6685,9.6685,9.6685,9.6685,9.6685,9.6685,9.6685,9.6685,9.6685,9.6685,9.6685,9.6685,9.6685,9.6685,9.6685,9.6685,9.6685,9.6685,9.6685,9.6685,9.6942,9.775,9.8117,9.8557,9.9402,10.0209,0.0,0.0,0.0,0.0,0.0,9.9181,9.8924,0.0,9.7236,0.0,0.0,0.0,0.0,0.0,0.0,0.0,0.0,10.1295,0.0,9.753,9.9108,9.9805,9.9548,9.9805,10.0319,10.109,10.1384,10.1494,10.1494,10.1494,10.1494,10.1494,10.2,10.2073,10.2118,10.4483,10.5363,10.5825,10.8492,10.9482,10.979,8.9601,8.9821,8.9748,8.8426,8.8206,8.7766,8.6444,8.5563,8.5159,8.5453,8.5233,8.5343,8.6151,8.6261,0.0,8.6958,8.6995,8.6995,8.6995,8.6995,8.6995,8.6995,8.6995,8.6995,8.6995,0.0,0.0,8.6995,8.6518,8.6407,8.6701,8.7545,8.8757,9.0335,9.0519,9.0776,9.0922,8.9014,8.8023,8.7766,8.8096,8.9674,9.195,9.2794,9.4593,9.6685,9.6685,9.6685,9.6685,9.6685,9.6685,9.6685,9.6685,9.6685,9.6685,9.6685,9.6685,9.6685,9.6685,9.6685,9.6685,9.6685,9.6685,9.6685,9.6685,9.6685,9.6685,9.6685,9.6685,9.6832,9.7346,9.7676,9.8337,9.9659,10.0099,10.0576,10.1384,0.0,0.0,0.0,0.0,0.0,0.0,9.8961,0.0,0.0,0.0,0.0,0.0,0.0,0.0,10.029,10.2623,0.0,9.9255,9.9952,10.0283,10.0283,10.0613,10.098,10.1494,10.1494,10.1494,10.1494,10.1494,10.1677,10.2008,10.2485,10.2815,10.3109,10.5495,10.6413,10.6816,10.9092,11.0193,11.0487,8.9271,8.9307,8.9087,0.0,8.8133,0.0,8.7105,8.6334,8.6077,8.6885,8.6297,8.6114,8.6921,8.6995,8.6995,8.6995,0.0,0.0,0.0,8.6995,8.6995,8.6995,8.6995,8.6995,8.6995,8.6995,8.6995,8.6995,8.6995,8.7399,8.8133,8.9014,9.0225,9.1693,9.0922,9.1033,9.1546,8.9197,8.7729,8.7068,8.7839,8.9601,9.1877,9.2721,9.4556,9.6685,9.6685,9.6685,9.6685,9.6685,9.6685,9.6685,9.6685,9.6685,9.6685,9.6685,9.6685,9.6685,9.6685,9.6685,9.6685,9.6685,9.6685,9.6685,9.6685,9.6685,9.6685,9.6685,9.6685,9.6685,9.6685,9.7309,9.808,9.8961,9.9732,10.0503,10.1384,10.1494,10.0686,0.0,0.0,0.0,0.0,9.8741,9.9181,0.0,0.0,0.0,0.0,0.0,10.101,10.468,10.4237,10.3182,10.1604,10.0796,10.0393,10.0503,10.12,10.1494,10.1567,10.1567,10.1567,10.1604,10.1604,10.2081,10.2815,10.2815,10.3696,10.5128,10.6192,10.7404,10.8799,10.9679,11.0597,11.1221,0.0,0.0,8.8243,8.7435,8.7288,8.7215,8.7031,8.6334,8.6077,8.6885,8.6297,8.6114,8.6921,8.6995,8.6995,8.6995,8.6995,8.6995,8.6995,8.6995,8.6995,8.6995,8.6995,8.6995,8.6995,8.6995,8.6995,8.6995,8.6995,8.7105,8.7325,8.8757,8.9931,9.0886,9.0702,9.0702,9.0776,8.8977,8.7729,8.7031,8.7215,8.9087,9.1803,9.2024,9.4006,9.6685,9.6685,9.6685,9.6685,9.6685,9.6685,9.6685,9.6685,9.6685,9.6685,9.6685,9.6685,9.6685,9.6685,9.6685,9.6685,9.6685,9.6685,9.6685,9.6685,9.6685,9.6685,9.6685,9.6685,9.6685,9.6685,9.6869,9.7456,9.8888,9.9255,9.9879,10.1274,10.2008,10.2191,0.0,10.2301,10.2779,10.2779,10.2595,10.1971,0.0,0.0,0.0,0.0,10.12,10.2228,10.4897,10.432,10.3403,10.2412,10.1604,10.1494,10.2118,10.1677,10.1788,10.2412,10.2412,10.2412,10.2485,10.3109,10.3403,10.3696,10.432,10.4394,10.4504,10.7183,10.8101,10.8101,11.0193,11.1001,11.1221,8.7178,8.7362,8.7509,8.7105,8.6995,8.6995,8.6995,8.6628,8.6518,8.6958,8.6628,8.6518,8.6958,8.6995,8.6995,8.6995,8.6995,8.6995,8.6995,8.6995,8.6995,8.6995,8.6995,8.6995,8.6995,8.6995,8.6995,8.6995,8.6995,8.6995,8.7031,8.828,8.9307,9.0078,9.0078,9.0078,9.0005,8.9124,8.8096,8.7142,8.861,9.0262,9.195,9.3088,9.4813,9.6685,9.6685,9.6685,9.6685,9.6685,9.6685,9.6685,9.6685,9.6685,9.6685,9.6685,9.6685,9.6685,9.6685,9.6685,9.6685,9.6685,9.6685,9.6685,9.6685,9.6685,9.6795,9.7163,9.7236,9.7346,9.775,9.7787,9.819,9.9438,9.9952,10.0613,10.1898,10.2705,10.3219,10.3219,10.399,10.4394,10.4394,10.4394,10.3917,10.2595,0.0,0.0,10.3109,10.3109,10.3696,10.5091,10.399,10.3109,10.2705,10.2301,10.2081,10.2191,10.2485,10.2595,10.2705,10.3109,10.3219,10.3293,10.3696,10.41,10.4504,10.4908,10.5091,10.5275,10.7807,10.8505,10.8395,11.0414,11.1221,11.1221,8.6925,8.6995,8.6995,8.6995,8.6995,8.6995,8.6995,8.6995,8.6995,8.6995,8.6995,8.6995,8.6995,8.6995,8.6995,8.6995,8.6995,8.6995,8.6995,8.6995,8.6995,8.6995,8.6995,8.6995,8.6995,8.6995,8.6995,8.6995,8.6995,8.6995,8.7031,8.7839,8.8573,8.9234,8.9381,8.9417,8.9417,8.9417,8.861,8.7619,9.0482,9.1803,9.2317,9.4483,9.5878,9.6685,9.6685,9.6685,9.6685,9.6685,9.6685,9.6685,9.6685,9.6685,9.6685,9.6685,9.6685,9.6685,9.6685,9.6685,9.6685,9.6685,9.6685,9.6685,9.6685,9.6795,9.7052,9.775,9.8007,9.83,9.8961,9.9108,9.9255,9.9695,10.0613,10.1494,10.1898,0.0,10.3806,10.388,10.4614,10.5128,10.5128,10.5201,10.5201,10.5128,10.5201,10.5311,10.5311,10.5201,10.5018,10.4908,10.3513,10.2595,10.2522,10.2595,10.2412,10.1677,10.3182,10.3513,10.2889,10.3696,10.41,10.41,10.421,10.4687,10.5311,10.5311,10.5789,10.6706,10.8211,10.8909,10.9202,11.0707,11.1221,11.1221,8.6786,8.6856,8.6995,8.6995,8.6995,8.6995,8.6995,8.6995,8.6995,8.6995,8.6995,8.6995,8.6995,8.6995,8.6995,8.6995,8.6995,8.6995,8.6995,8.6995,8.6995,8.6995,8.6995,8.6995,8.6995,8.6995,8.6995,8.6995,8.6995,8.6995,8.7031,8.7839,8.828,8.8426,8.9124,8.9417,8.9417,8.9417,8.9271,8.916,9.0335,9.1657,9.3015,9.4079,9.5401,9.6685,9.6685,9.6685,9.6685,9.6685,9.6685,9.6685,9.6685,9.6685,9.6685,9.6685,9.6685,9.6685,9.6685,9.6685,9.6685,9.6685,9.6685,9.6685,9.6685,9.7236,9.775,9.786,9.8447,9.8961,9.9071,9.9108,9.8704,9.7456,9.9071,10.0099,9.8814,0.0,10.3109,10.3806,10.4614,10.5128,10.5128,10.5789,10.5899,10.5201,10.5789,10.6192,10.6192,10.5495,10.4798,10.41,10.3219,10.2412,10.1677,10.2412,10.2595,10.2522,10.3476,10.3806,10.3696,10.4504,10.4908,10.5018,10.5678,10.6082,10.6192,10.6192,10.6706,10.7477,10.8395,10.9202,10.99,11.0891,11.1221,11.1221,8.6679,8.6786,8.6856,8.6995,8.6995,8.6995,8.6995,8.6995,8.6995,8.6995,8.6995,8.6995,8.6995,8.6995,8.6995,8.6995,8.6995,8.6995,8.6995,8.6995,8.6995,8.6995,8.6995,8.6995,8.6995,8.6995,8.6995,8.6995,8.6995,8.6995,8.7031,8.7399,8.7545,8.7582,8.839,8.8757,8.883,8.9674,8.9564,8.8977,9.1546,9.2501,9.2648,9.4777,9.6061,9.6685,9.6685,9.6685,9.6685,9.6685,9.6685,9.6685,9.6685,9.6685,9.6685,9.6685,9.6685,9.6685,9.6685,9.6685,9.6795,9.7236,9.7346,9.7456,9.7897,9.83,9.8668,9.9108,9.9475,9.9879,10.0283,10.0393,10.0099,9.9402,10.0613,10.131,10.0613,10.2118,10.3513,10.388,10.421,10.4504,10.4504,10.4798,10.5091,10.5128,10.5091,10.5385,10.6376,10.5201,10.4284,10.388,10.2705,10.1898,10.1494,10.2705,10.3109,10.2705,10.399,10.4504,10.4614,10.4908,10.5422,10.5789,10.6192,10.6376,10.6413,10.689,10.7294,10.7697,10.8982,10.9679,11.0083,11.0891,11.1221,11.1221,8.6536,8.6608,8.6715,8.6856,8.6925,8.6925,8.6925,8.6925,8.6995,8.6995,8.6995,8.6995,8.6995,8.6995,8.6995,8.6995,8.6995,8.6995,8.6995,8.6995,8.6995,8.6995,8.6995,8.6995,8.6995,8.7178,8.7288,8.7288,8.7472,8.7472,8.7288,8.7288,8.7178,8.7031,8.7839,8.8316,8.8573,9.0188,9.0188,8.9344,9.3088,9.3712,9.2684,9.5584,9.6685,9.6685,9.6685,9.6685,9.6685,9.6685,9.6685,9.6685,9.6685,9.6685,9.6685,9.6685,9.6685,9.6685,9.6685,9.6832,9.7126,9.775,9.8043,9.8337,9.8961,9.9255,9.9548,10.0209,10.0393,10.0796,10.1384,10.1494,10.1274,10.0796,10.1677,10.2191,10.1714,10.2595,10.3403,10.3586,10.3586,10.3586,10.3586,10.3806,10.41,10.4504,10.432,10.4687,10.6009,10.5091,10.4284,10.388,10.2301,10.1604,10.1788,10.3182,10.3586,10.2999,10.4614,10.5311,10.5128,10.5311,10.5789,10.6376,10.6376,10.6376,10.6486,10.7294,10.7697,10.7991,10.9386,11.0083,11.0377,11.1001,11.1221,11.1221,8.6174,8.632,8.6429,8.6429,8.6644,8.6679,8.6679,8.6856,8.6995,8.6995,8.6995,8.6995,8.6995,8.6995,8.6995,8.6995,8.6995,8.6995,8.6995,8.6995,8.6995,8.6995,8.6995,8.6995,8.6995,8.7729,8.8096,8.8096,8.8867,8.8867,8.8096,8.8096,8.7729,8.7031,8.7839,8.861,8.9454,9.1033,9.162,9.1767,9.4373,9.4887,9.4299,9.6025,9.6685,9.6685,9.6685,9.6685,9.6685,9.6685,9.6685,9.6685,9.6685,9.6685,9.6685,9.6685,9.6685,9.6685,9.6685,9.7236,9.7823,9.7897,9.8447,9.9035,9.9108,9.9695,10.0209,10.0283,10.0907,10.1384,10.1494,10.1494,10.0796,9.8521,10.0099,10.0796,9.8557,10.0172,10.1971,10.2705,10.2815,10.2815,10.2815,10.3476,10.3586,10.2925,10.421,10.5091,10.5201,10.5789,10.5495,10.3917,10.2301,10.1898,10.2595,10.3476,10.388,10.3806,10.5495,10.5899,10.5128,10.5899,10.6302,10.6376,10.6376,10.6376,10.6486,10.7294,10.7991,10.8799,10.9679,11.0487,11.1111,11.1221,11.1221,11.1221,8.61,8.6174,8.6247,8.6392,8.6465,8.6573,8.6679,8.6786,8.6856,8.6995,8.6995,8.6995,8.6995,8.6995,8.6995,8.6995,8.6995,8.7215,8.7729,8.7729,8.7509,8.7031,8.7472,8.7729,8.7729,8.8536,8.894,8.894,8.9271,8.9271,8.894,8.894,8.8793,8.8536,8.9344,8.9858,9.0225,9.1326,9.1803,9.195,9.3969,9.4556,9.4483,9.6098,9.6685,9.6685,9.6685,9.6685,9.6685,9.6685,9.6685,9.6685,9.6685,9.6685,9.6685,9.6685,9.6685,9.6685,9.6685,9.7273,9.8117,9.9145,9.9622,9.9989,10.0503,10.0796,10.098,10.098,10.1274,10.1494,10.1494,10.1494,10.12,10.0283,10.087,10.12,10.0283,10.0907,10.1604,10.1898,10.1971,10.1971,10.1971,10.2191,10.2485,10.2705,10.2815,10.3293,10.432,10.421,10.3806,10.3182,10.2081,10.1604,10.1971,10.3182,10.388,10.388,10.5091,10.5715,10.5899,10.5715,10.5899,10.6376,10.6376,10.6376,10.6486,10.7807,10.8505,10.8909,11.0193,11.0891,11.1221,11.1221,11.1221,11.1221,8.5987,8.6062,8.6062,8.621,8.6283,8.632,8.6465,8.6608,8.6786,8.6856,8.6925,8.6995,8.6995,8.6995,8.6995,8.6995,8.7252,8.7619,8.8169,8.8426,8.8353,8.7802,8.828,8.8573,8.8573,8.9381,8.9784,8.9784,9.0041,9.0041,8.9784,8.9784,8.9674,8.9454,9.0262,9.0592,9.0702,9.2024,9.2427,9.2354,9.4299,9.4887,9.4813,9.6171,9.6685,9.6685,9.6685,9.6685,9.6685,9.6685,9.6685,9.6685,9.6685,9.6685,9.6685,9.6685,9.6685,9.6759,9.7016,9.764,9.8521,9.9659,10.0283,10.0796,10.1384,10.1494,10.1494,10.1494,10.1494,10.1494,10.1494,10.1494,10.1494,10.1494,10.1494,10.1494,10.1494,10.1494,10.1494,10.1494,10.1494,10.1494,10.1494,10.1494,10.1677,10.2301,10.2008,10.2485,10.3806,10.3109,10.2705,10.2705,10.1898,10.1494,10.1494,10.3109,10.399,10.4284,10.5091,10.5789,10.6376,10.5789,10.5789,10.6376,10.6376,10.6486,10.689,10.8211,10.8909,10.9312,11.0707,11.1221,11.1221,11.1221,11.1221,11.1221,8.5909,8.5909,8.5909,8.5909,8.5987,8.61,8.61,8.6465,8.6679,8.6679,8.6856,8.6995,8.6995,8.6995,8.6995,8.7031,8.7729,8.8206,8.8206,8.8977,8.9417,8.9454,8.9417,8.9417,8.9417,9.0225,9.0629,9.0629,9.14,9.14,9.0629,9.0629,9.0188,8.9454,9.0262,9.0629,9.0776,9.3235,9.3822,9.3308,9.5731,9.6208,9.5621,9.6392,9.6685,9.6685,9.6685,9.6685,9.6685,9.6685,9.6685,9.6685,9.6685,9.6685,9.6685,9.6685,9.6685,9.6869,9.7676,9.8484,9.9108,9.9108,10.0283,10.1494,10.1494,10.1494,10.1494,10.1494,10.1494,10.1494,10.1494,10.1494,10.1494,10.1494,10.1494,10.1494,10.1494,10.1494,10.1494,10.1494,10.1494,10.1494,10.1494,10.1494,10.1494,10.1494,10.2191,10.2999,10.3806,10.3109,10.2705,10.2705,10.1898,10.1494,10.1494,10.3109,10.432,10.5128,10.6009,10.6376,10.6376,10.6376,10.6376,10.6376,10.6376,10.689,10.7661,10.8505,10.9276,11.0083,11.0891,11.1221,11.1221,11.1221,11.1221,11.1221,8.5909,8.5909,8.5948,8.6062,8.61,8.6174,8.6465,8.6608,8.6786,8.6856,8.6925,8.6995,8.6995,8.6995,8.7252,8.7802,8.7545,8.7839,8.8977,8.9821,9.0482,9.1069,9.0555,9.0262,9.0262,9.1033,9.1436,9.1436,9.1693,9.1693,9.1436,9.1436,9.1326,9.1106,9.1326,9.1436,9.1546,9.2868,9.3639,9.4042,9.5364,9.6061,9.6392,9.6612,9.6685,9.6685,9.6685,9.6685,9.6685,9.6685,9.6685,9.6685,9.6685,9.6685,9.6685,9.6685,9.6685,9.6759,9.6979,9.808,9.9255,9.9805,10.0686,10.1494,10.1494,10.1494,10.1494,10.1494,10.1494,10.1494,10.1494,10.1494,10.1494,10.1494,10.1494,10.1494,10.1494,10.1494,10.1494,10.1494,10.1494,10.1677,10.2301,10.2301,10.2301,10.2301,10.2008,10.1971,10.2191,10.1971,10.1898,10.1898,10.1604,10.1494,10.1494,10.3109,10.399,10.4284,10.5678,10.6376,10.6376,10.6376,10.6376,10.6376,10.6376,10.689,10.7661,10.8505,10.9276,11.0083,11.0891,11.1221,11.1221,11.1221,11.1221,11.1221,8.5909,8.5909,8.5948,8.61,8.61,8.6247,8.6536,8.6608,8.6786,8.6856,8.6925,8.6995,8.6995,8.6995,8.7325,8.8133,8.8353,8.8977,9.0262,9.0812,9.1289,9.1767,9.1326,9.1069,9.1069,9.1546,9.1803,9.1803,9.1803,9.1803,9.1803,9.1803,9.1987,9.2281,9.195,9.217,9.2831,9.3345,9.4042,9.485,9.5658,9.6282,9.6685,9.6685,9.6685,9.6685,9.6685,9.6685,9.6685,9.6685,9.6685,9.6685,9.6685,9.6685,9.6685,9.6685,9.6685,9.6759,9.7089,9.8117,9.9292,10.0099,10.0907,10.1494,10.1494,10.1494,10.1494,10.1494,10.1494,10.1494,10.1494,10.1494,10.1494,10.1494,10.1494,10.1494,10.1494,10.1494,10.1494,10.1494,10.1494,10.1677,10.2191,10.2191,10.2191,10.2191,10.1788,10.1494,10.1494,10.1494,10.1494,10.1494,10.1494,10.1494,10.1494,10.3109,10.388,10.388,10.5605,10.6376,10.6376,10.6376,10.6376,10.6413,10.6706,10.7294,10.8101,10.8909,10.9716,11.0487,11.1001,11.1221,11.1221,11.1221,11.1221,11.1221,8.5909,8.5909,8.5948,8.61,8.61,8.6174,8.6392,8.6536,8.6679,8.6679,8.6856,8.6995,8.6995,8.7068,8.7399,8.8133,8.9601,9.0849,9.1657,9.1693,9.173,9.1803,9.1803,9.1803,9.1803,9.1803,9.173,9.1583,9.173,9.1803,9.1803,9.1877,9.2391,9.3161,9.2391,9.2868,9.4299,9.4373,9.4813,9.5584,9.6392,9.6685,9.6685,9.6685,9.6685,9.6685,9.6685,9.6685,9.6685,9.6685,9.6685,9.6685,9.6685,9.6685,9.6685,9.6685,9.6685,9.6869,9.7566,9.8447,9.9292,9.9989,10.087,10.1494,10.1494,10.1494,10.1494,10.1494,10.1494,10.1494,10.1494,10.1494,10.1494,10.1494,10.1494,10.1494,10.1494,10.1494,10.1494,10.1494,10.1494,10.1494,10.1604,10.1604,10.1604,10.1604,10.1494,10.1494,10.1494,10.1494,10.1494,10.1494,10.1494,10.1494,10.1494,10.3109,10.388,10.388,10.5605,10.6376,10.6376,10.6376,10.6376,10.6413,10.7183,10.7991,10.8909,10.9606,11.0414,11.1221,11.1221,11.1221,11.1221,11.1221,11.1221,11.1221,8.5909,8.5909,8.5948,8.61,8.61,8.6247,8.6536,8.6679,8.6786,8.6925,8.6995,8.6995,8.6995,8.7582,8.8023,8.8169,8.9124,9.0005,9.0812,9.0849,9.1143,9.1767,9.1803,9.1803,9.1803,9.1803,9.1179,8.9931,9.1179,9.1803,9.1803,9.2501,9.3272,9.4042,9.3822,9.3969,9.4336,9.496,9.5364,9.5584,9.6392,9.6685,9.6685,9.6685,9.6685,9.6685,9.6685,9.6685,9.6685,9.6685,9.6685,9.6685,9.6685,9.6685,9.6685,9.6685,9.6685,9.6722,9.6906,9.8007,9.9145,9.9328,10.0393,10.1494,10.1494,10.1494,10.1494,10.1494,10.1494,10.1494,10.1494,10.1494,10.1494,10.1494,10.1494,10.1494,10.1494,10.1494,10.1494,10.1494,10.1494,10.1677,10.2412,10.2412,10.2412,10.2412,10.1898,10.1494,10.1494,10.1494,10.1494,10.1494,10.1494,10.1494,10.1494,10.3109,10.388,10.388,10.5605,10.6376,10.6376,10.6376,10.6376,10.6376,10.6596,10.7477,10.8799,10.8982,10.99,11.1221,11.1221,11.1221,11.1221,11.1221,11.1221,11.1221,8.5909,8.5909,8.5948,8.61,8.61,8.6174,8.6465,8.6608,8.6786,8.6856,8.6925,8.7142,8.7545,8.7949,8.85,8.9271,9.0078,9.0739,9.1143,9.1179,9.1179,9.1216,9.1216,9.1069,9.0665,9.1033,9.1216,9.1179,9.2024,9.2611,9.2978,9.3455,9.4116,9.485,9.4483,9.474,9.5437,9.5474,9.5731,9.6098,9.6539,9.6685,9.6685,9.6685,9.6685,9.6685,9.6685,9.6685,9.6685,9.6685,9.6685,9.6685,9.6685,9.6685,9.6685,9.6685,9.6685,9.6795,9.7163,9.819,9.9181,9.9585,10.0613,10.1494,10.1494,10.1494,10.1494,10.1494,10.1494,10.1494,10.1494,10.1494,10.1494,10.1494,10.1494,10.1494,10.1494,10.1494,10.1494,10.1494,10.1494,10.1677,10.2081,10.2081,10.2081,10.2081,10.1677,10.1494,10.1494,10.1494,10.1494,10.1494,10.1494,10.1677,10.2081,10.3293,10.41,10.4504,10.5789,10.6376,10.6376,10.6376,10.6376,10.6413,10.678,10.7697,10.8799,10.9202,11.0083,11.1221,11.1221,11.1221,11.1221,11.1221,11.1221,11.1221,8.5909,8.5909,8.5948,8.6062,8.6026,8.61,8.632,8.6536,8.6679,8.6715,8.6966,8.7472,8.8133,8.8316,8.905,9.0665,9.1289,9.1657,9.1803,9.1803,9.151,9.0849,9.0959,9.0665,8.9858,9.0629,9.151,9.2464,9.2905,9.3382,9.3859,9.4299,9.485,9.5474,9.496,9.5437,9.6649,9.5988,9.6098,9.6685,9.6685,9.6685,9.6685,9.6685,9.6685,9.6685,9.6685,9.6685,9.6685,9.6685,9.6685,9.6685,9.6685,9.6685,9.6685,9.6685,9.6795,9.7052,9.7713,9.8594,9.9475,10.0099,10.0907,10.1494,10.1494,10.1494,10.1494,10.1494,10.1494,10.1494,10.1494,10.1494,10.1494,10.1494,10.1494,10.1494,10.1494,10.1494,10.1494,10.1494,10.1494,10.1494,10.1494,10.1494,10.1494,10.1494,10.1494,10.1494,10.1494,10.1494,10.1494,10.1494,10.1494,10.1898,10.2705,10.3513,10.432,10.5128,10.6009,10.6376,10.6376,10.6376,10.6376,10.6413,10.7294,10.8064,10.8909,10.9679,11.0487,11.1221,11.1221,11.1221,11.1221,11.1221,11.1221,11.1221,8.5909,8.5909,8.5909,8.5948,8.5948,8.6024,8.61,8.632,8.6465,8.6679,8.7442,8.8096,8.8206,8.883,8.9895,9.151,9.1106,9.1069,9.173,9.1803,9.173,9.1657,9.2354,9.2354,9.1473,9.2317,9.184,8.9931,9.206,9.2758,9.217,9.4336,9.5401,9.5547,9.6098,9.6502,9.6685,9.6575,9.6612,9.6685,9.6685,9.6685,9.6685,9.6685,9.6685,9.6685,9.6685,9.6685,9.6685,9.6685,9.6685,9.6685,9.6685,9.6685,9.6685,9.6685,9.7199,9.775,9.786,9.8998,10.0209,10.0283,10.0907,10.1494,10.1494,10.1494,10.1494,10.1494,10.1494,10.1494,10.1494,10.1494,10.1494,10.1494,10.1494,10.1494,10.1494,10.1494,10.1494,10.1494,10.1494,10.1494,10.1494,10.1494,10.1494,10.1494,10.1494,10.1494,10.1494,10.1494,10.1494,10.1494,10.1494,10.1898,10.2705,10.3513,10.432,10.5128,10.6009,10.6376,10.6376,10.6376,10.6376,10.6413,10.7294,10.8064,10.8909,10.9679,11.0487,11.1221,11.1221,11.1221,11.1221,11.1221,11.1221,11.1221,8.6597,8.6525,8.638,8.5982,8.5909,8.5873,8.6024,8.6136,8.632,8.6465,8.741,8.8248,8.883,9.0005,9.1033,9.173,9.1473,9.1436,9.1767,9.1803,9.1803,9.1803,9.173,9.173,9.1803,9.173,9.162,9.1473,9.2574,9.3125,9.3235,9.4777,9.5511,9.5547,9.6355,9.6685,9.6685,9.6685,9.6685,9.6685,9.6685,9.6685,9.6685,9.6685,9.6979,9.7346,9.7346,9.7089,9.6685,9.6685,9.6685,9.6685,9.6685,9.6685,9.6685,9.6685,9.6942,9.7309,9.7787,9.8741,9.9732,10.0209,10.0907,10.1494,10.1494,10.1494,10.1494,10.1494,10.1494,10.1494,10.1494,10.1494,10.1494,10.1494,10.1494,10.1494,10.1494,10.1494,10.1494,10.1494,10.1494,10.1494,10.1494,10.1494,10.1494,10.1494,10.1494,10.1494,10.1494,10.1494,10.1494,10.1494,10.1494,10.2081,10.3403,10.3696,10.4504,10.5789,10.6192,10.6376,10.6376,10.6376,10.6376,10.6413,10.7294,10.8064,10.8909,10.9679,11.0487,11.1221,11.1221,11.1221,11.1221,11.1221,11.1221,11.1221]},{"header":{"parameterUnit":"m.s-1","parameterCategory":1,"la1":30.6,"la2":28.766,"lo1":-90.7593,"lo2":-88.6598,"dx":0.0162,"dy":0.0183,"nx":116,"ny":114,"refTime":"2023-01-12T06:00:00:Z","depth":0,"parameterNumber":3,"parameterNumberName":"V-component_of_WINDS"},"data":[0.0,0.0,0.0,0.0,0.0,0.0,0.0,0.0,0.0,0.0,0.0,0.0,0.0,0.0,0.0,0.0,0.0,0.0,0.0,0.0,0.0,0.0,0.0,0.0,0.0,0.0,0.0,0.0,0.0,0.0,0.0,0.0,0.0,0.0,0.0,0.0,0.0,0.0,0.0,0.0,0.0,0.0,0.0,0.0,0.0,0.0,0.0,0.0,0.0,0.0,0.0,0.0,0.0,0.0,0.0,0.0,0.0,0.0,0.0,0.0,0.0,0.0,0.0,0.0,0.0,0.0,0.0,0.0,0.0,0.0,0.0,0.0,0.0,0.0,0.0,0.0,0.0,0.0,0.0,0.0,0.0,0.0,0.0,0.0,0.0,0.0,0.0,0.0,0.0,0.0,0.0,0.0,0.0,0.0,0.0,0.0,0.0,0.0,0.0,0.0,0.0,0.0,0.0,0.0,0.0,0.0,0.0,0.0,0.0,0.0,0.0,0.0,0.0,0.0,0.0,0.0,0.0,0.0,0.0,0.0,0.0,0.0,0.0,0.0,0.0,0.0,0.0,0.0,0.0,0.0,0.0,0.0,0.0,0.0,0.0,0.0,0.0,0.0,0.0,0.0,0.0,0.0,0.0,0.0,0.0,0.0,0.0,0.0,0.0,0.0,0.0,0.0,0.0,0.0,0.0,0.0,0.0,0.0,0.0,0.0,0.0,0.0,0.0,0.0,0.0,0.0,0.0,0.0,0.0,0.0,0.0,0.0,0.0,0.0,0.0,0.0,0.0,0.0,0.0,0.0,0.0,0.0,0.0,0.0,0.0,0.0,0.0,0.0,0.0,0.0,0.0,0.0,0.0,0.0,0.0,0.0,0.0,0.0,0.0,0.0,0.0,0.0,0.0,0.0,0.0,0.0,0.0,0.0,0.0,0.0,0.0,0.0,0.0,0.0,0.0,0.0,0.0,0.0,0.0,0.0,0.0,0.0,0.0,0.0,0.0,0.0,0.0,0.0,0.0,0.0,0.0,0.0,0.0,0.0,0.0,0.0,0.0,0.0,0.0,0.0,0.0,0.0,0.0,0.0,0.0,0.0,0.0,0.0,0.0,0.0,0.0,0.0,0.0,0.0,0.0,0.0,0.0,0.0,0.0,0.0,0.0,0.0,0.0,0.0,0.0,0.0,0.0,0.0,0.0,0.0,0.0,0.0,0.0,0.0,0.0,0.0,0.0,0.0,0.0,0.0,0.0,0.0,0.0,0.0,0.0,0.0,0.0,0.0,0.0,0.0,0.0,0.0,0.0,0.0,0.0,0.0,0.0,0.0,0.0,0.0,0.0,0.0,0.0,0.0,0.0,0.0,0.0,0.0,0.0,0.0,0.0,0.0,0.0,0.0,0.0,0.0,0.0,0.0,0.0,0.0,0.0,0.0,0.0,0.0,0.0,0.0,0.0,0.0,0.0,0.0,0.0,0.0,0.0,0.0,0.0,0.0,0.0,0.0,0.0,0.0,0.0,0.0,0.0,0.0,0.0,0.0,0.0,0.0,0.0,0.0,0.0,0.0,0.0,0.0,0.0,0.0,0.0,0.0,0.0,0.0,0.0,0.0,0.0,0.0,0.0,0.0,0.0,0.0,0.0,0.0,0.0,0.0,0.0,0.0,0.0,0.0,0.0,0.0,0.0,0.0,0.0,0.0,0.0,0.0,0.0,0.0,0.0,0.0,0.0,0.0,0.0,0.0,0.0,0.0,0.0,0.0,0.0,0.0,0.0,0.0,0.0,0.0,0.0,0.0,0.0,0.0,0.0,0.0,0.0,0.0,0.0,0.0,0.0,0.0,0.0,0.0,0.0,0.0,0.0,0.0,0.0,0.0,0.0,0.0,0.0,0.0,0.0,0.0,0.0,0.0,0.0,0.0,0.0,0.0,0.0,0.0,0.0,0.0,0.0,0.0,0.0,0.0,0.0,0.0,0.0,0.0,0.0,0.0,0.0,0.0,0.0,0.0,0.0,0.0,0.0,0.0,0.0,0.0,0.0,0.0,0.0,0.0,0.0,0.0,0.0,0.0,0.0,0.0,0.0,0.0,0.0,0.0,0.0,0.0,0.0,0.0,0.0,0.0,0.0,0.0,0.0,0.0,0.0,0.0,0.0,0.0,0.0,0.0,0.0,0.0,0.0,0.0,0.0,0.0,0.0,0.0,0.0,0.0,0.0,0.0,0.0,0.0,0.0,0.0,0.0,0.0,0.0,0.0,0.0,0.0,0.0,0.0,0.0,0.0,0.0,0.0,0.0,0.0,0.0,0.0,0.0,0.0,0.0,0.0,0.0,0.0,0.0,0.0,0.0,0.0,0.0,0.0,0.0,0.0,0.0,0.0,0.0,0.0,0.0,0.0,0.0,0.0,0.0,0.0,0.0,0.0,0.0,0.0,0.0,0.0,0.0,0.0,0.0,0.0,0.0,0.0,0.0,0.0,0.0,0.0,0.0,0.0,0.0,0.0,0.0,0.0,0.0,0.0,0.0,0.0,0.0,0.0,0.0,0.0,0.0,0.0,0.0,0.0,0.0,0.0,0.0,0.0,0.0,0.0,0.0,0.0,0.0,0.0,0.0,0.0,0.0,0.0,0.0,0.0,0.0,0.0,0.0,0.0,0.0,0.0,0.0,0.0,0.0,0.0,0.0,0.0,0.0,0.0,0.0,0.0,0.0,0.0,0.0,0.0,0.0,0.0,0.0,0.0,0.0,0.0,0.0,0.0,0.0,0.0,0.0,0.0,0.0,0.0,0.0,0.0,0.0,0.0,0.0,0.0,0.0,0.0,0.0,0.0,0.0,0.0,0.0,0.0,0.0,0.0,0.0,0.0,0.0,0.0,0.0,0.0,0.0,0.0,0.0,0.0,0.0,0.0,0.0,0.0,0.0,0.0,0.0,0.0,0.0,0.0,0.0,0.0,0.0,0.0,0.0,0.0,0.0,0.0,0.0,0.0,0.0,0.0,0.0,0.0,0.0,0.0,0.0,0.0,0.0,0.0,0.0,0.0,0.0,0.0,0.0,0.0,0.0,0.0,0.0,0.0,0.0,0.0,0.0,0.0,0.0,0.0,0.0,0.0,0.0,0.0,0.0,0.0,0.0,0.0,0.0,0.0,0.0,0.0,0.0,0.0,0.0,0.0,0.0,0.0,0.0,0.0,0.0,0.0,0.0,0.0,0.0,0.0,0.0,0.0,0.0,0.0,0.0,0.0,0.0,0.0,0.0,0.0,0.0,0.0,0.0,0.0,0.0,0.0,0.0,0.0,0.0,0.0,0.0,0.0,0.0,0.0,0.0,0.0,0.0,0.0,0.0,0.0,0.0,0.0,0.0,0.0,0.0,0.0,0.0,0.0,0.0,0.0,0.0,0.0,0.0,0.0,0.0,0.0,0.0,0.0,0.0,0.0,0.0,0.0,0.0,0.0,0.0,0.0,0.0,0.0,0.0,0.0,0.0,0.0,0.0,0.0,0.0,0.0,0.0,0.0,0.0,0.0,0.0,0.0,0.0,0.0,0.0,0.0,0.0,0.0,0.0,0.0,0.0,0.0,0.0,0.0,0.0,0.0,0.0,0.0,0.0,0.0,0.0,0.0,0.0,0.0,0.0,0.0,0.0,0.0,0.0,0.0,0.0,0.0,0.0,0.0,0.0,0.0,0.0,0.0,0.0,0.0,0.0,0.0,0.0,0.0,0.0,0.0,0.0,0.0,0.0,0.0,0.0,0.0,0.0,0.0,0.0,0.0,0.0,0.0,0.0,0.0,0.0,0.0,0.0,0.0,0.0,0.0,0.0,0.0,0.0,0.0,0.0,0.0,0.0,0.0,0.0,0.0,0.0,0.0,0.0,0.0,0.0,0.0,0.0,0.0,0.0,0.0,0.0,0.0,0.0,0.0,0.0,0.0,0.0,0.0,0.0,0.0,0.0,0.0,0.0,0.0,0.0,0.0,0.0,0.0,0.0,0.0,0.0,0.0,0.0,0.0,0.0,0.0,0.0,0.0,0.0,0.0,0.0,0.0,0.0,0.0,0.0,0.0,0.0,0.0,0.0,0.0,0.0,0.0,0.0,0.0,0.0,0.0,0.0,0.0,0.0,0.0,0.0,0.0,0.0,0.0,0.0,0.0,0.0,0.0,0.0,0.0,0.0,0.0,0.0,0.0,0.0,0.0,0.0,0.0,0.0,0.0,0.0,0.0,0.0,0.0,0.0,0.0,0.0,0.0,0.0,0.0,0.0,0.0,0.0,0.0,0.0,0.0,0.0,0.0,0.0,0.0,0.0,0.0,0.0,0.0,0.0,0.0,0.0,0.0,0.0,0.0,0.0,0.0,0.0,0.0,0.0,0.0,0.0,0.0,0.0,0.0,0.0,0.0,0.0,0.0,0.0,0.0,0.0,0.0,0.0,0.0,0.0,0.0,0.0,0.0,0.0,0.0,0.0,0.0,0.0,0.0,0.0,0.0,0.0,0.0,0.0,0.0,0.0,0.0,0.0,0.0,0.0,0.0,0.0,0.0,0.0,0.0,0.0,0.0,0.0,0.0,0.0,0.0,0.0,0.0,0.0,0.0,0.0,0.0,0.0,0.0,0.0,0.0,0.0,0.0,0.0,0.0,0.0,0.0,0.0,0.0,0.0,0.0,0.0,0.0,0.0,0.0,0.0,0.0,0.0,0.0,0.0,0.0,0.0,0.0,0.0,0.0,0.0,0.0,0.0,0.0,0.0,0.0,0.0,0.0,0.0,0.0,0.0,0.0,0.0,0.0,0.0,0.0,0.0,0.0,0.0,0.0,0.0,0.0,0.0,0.0,0.0,0.0,0.0,0.0,0.0,0.0,0.0,0.0,0.0,0.0,0.0,0.0,0.0,0.0,0.0,0.0,0.0,0.0,0.0,0.0,0.0,0.0,0.0,0.0,0.0,0.0,0.0,0.0,0.0,0.0,0.0,0.0,0.0,0.0,0.0,0.0,0.0,0.0,0.0,0.0,0.0,0.0,0.0,0.0,0.0,0.0,0.0,0.0,0.0,0.0,0.0,0.0,0.0,0.0,0.0,0.0,0.0,0.0,0.0,0.0,0.0,0.0,0.0,0.0,0.0,0.0,0.0,0.0,0.0,0.0,0.0,0.0,0.0,0.0,0.0,0.0,0.0,0.0,0.0,0.0,0.0,0.0,0.0,0.0,0.0,0.0,0.0,0.0,0.0,0.0,0.0,0.0,0.0,0.0,0.0,0.0,0.0,0.0,0.0,0.0,0.0,0.0,0.0,0.0,0.0,0.0,0.0,0.0,0.0,0.0,0.0,0.0,0.0,0.0,0.0,0.0,0.0,0.0,0.0,0.0,0.0,0.0,0.0,0.0,0.0,0.0,0.0,0.0,0.0,0.0,0.0,0.0,0.0,0.0,0.0,0.0,0.0,0.0,0.0,0.0,0.0,0.0,0.0,0.0,0.0,0.0,0.0,0.0,0.0,0.0,0.0,0.0,0.0,0.0,0.0,0.0,0.0,0.0,0.0,0.0,0.0,0.0,0.0,0.0,0.0,0.0,0.0,0.0,0.0,0.0,0.0,0.0,0.0,0.0,0.0,0.0,0.0,0.0,0.0,0.0,0.0,0.0,0.0,0.0,0.0,0.0,0.0,0.0,0.0,0.0,0.0,0.0,0.0,0.0,0.0,0.0,0.0,0.0,0.0,0.0,0.0,0.0,0.0,0.0,0.0,0.0,0.0,0.0,0.0,0.0,0.0,0.0,0.0,0.0,0.0,0.0,0.0,0.0,0.0,0.0,0.0,0.0,0.0,0.0,0.0,0.0,0.0,0.0,0.0,0.0,0.0,0.0,0.0,0.0,0.0,0.0,0.0,0.0,0.0,0.0,0.0,0.0,0.0,0.0,0.0,0.0,0.0,0.0,0.0,0.0,0.0,0.0,0.0,0.0,0.0,0.0,0.0,0.0,0.0,0.0,0.0,0.0,0.0,0.0,0.0,0.0,0.0,0.0,0.0,0.0,0.0,0.0,0.0,0.0,0.0,0.0,0.0,0.0,0.0,0.0,0.0,0.0,0.0,0.0,0.0,0.0,0.0,0.0,-2.5571,0.0,0.0,0.0,0.0,0.0,0.0,0.0,0.0,0.0,0.0,0.0,0.0,0.0,0.0,0.0,0.0,0.0,0.0,0.0,0.0,0.0,0.0,0.0,0.0,-1.805,-1.817,-1.8464,-1.849,0.0,0.0,0.0,0.0,0.0,0.0,0.0,0.0,0.0,0.0,0.0,0.0,0.0,-2.0828,-2.0361,-2.0013,0.0,0.0,0.0,0.0,0.0,0.0,0.0,0.0,0.0,0.0,0.0,0.0,0.0,0.0,0.0,0.0,0.0,0.0,0.0,0.0,0.0,0.0,0.0,0.0,0.0,0.0,0.0,0.0,0.0,0.0,0.0,0.0,0.0,0.0,0.0,0.0,0.0,0.0,0.0,0.0,0.0,0.0,0.0,0.0,0.0,0.0,0.0,0.0,0.0,0.0,0.0,0.0,0.0,0.0,0.0,0.0,0.0,0.0,0.0,0.0,0.0,0.0,0.0,0.0,0.0,0.0,0.0,0.0,0.0,0.0,0.0,0.0,-2.6106,0.0,0.0,0.0,0.0,0.0,0.0,0.0,0.0,0.0,0.0,0.0,0.0,0.0,0.0,0.0,0.0,0.0,0.0,0.0,0.0,0.0,-1.7822,-1.809,-1.817,-1.8357,-1.8758,-1.8744,-1.8718,-1.8718,0.0,0.0,0.0,0.0,0.0,0.0,0.0,0.0,0.0,0.0,0.0,0.0,0.0,0.0,0.0,0.0,0.0,0.0,0.0,0.0,0.0,0.0,0.0,0.0,0.0,0.0,0.0,0.0,0.0,0.0,0.0,0.0,0.0,0.0,0.0,0.0,0.0,0.0,0.0,0.0,0.0,0.0,0.0,0.0,0.0,0.0,0.0,0.0,0.0,0.0,0.0,0.0,0.0,0.0,0.0,0.0,0.0,0.0,0.0,0.0,0.0,0.0,0.0,0.0,0.0,0.0,0.0,0.0,0.0,0.0,0.0,0.0,0.0,0.0,0.0,0.0,0.0,0.0,0.0,-2.8882,-2.7883,-2.7883,-2.7883,-2.831,-2.9005,-2.7963,-2.7843,-2.8257,0.0,0.0,0.0,0.0,0.0,0.0,0.0,0.0,0.0,0.0,0.0,0.0,0.0,0.0,0.0,0.0,0.0,0.0,0.0,0.0,-1.8022,-1.837,-1.8664,-1.9132,-1.9933,-1.9773,-1.9626,-1.9626,-1.9145,0.0,0.0,0.0,0.0,0.0,0.0,0.0,0.0,0.0,0.0,0.0,0.0,0.0,0.0,0.0,0.0,0.0,0.0,0.0,0.0,0.0,0.0,0.0,0.0,0.0,0.0,0.0,0.0,0.0,0.0,0.0,0.0,0.0,0.0,0.0,0.0,0.0,0.0,0.0,0.0,0.0,0.0,0.0,0.0,0.0,0.0,0.0,0.0,0.0,0.0,0.0,0.0,0.0,0.0,0.0,0.0,0.0,0.0,-3.6035,-3.6523,0.0,0.0,0.0,0.0,0.0,0.0,0.0,0.0,0.0,0.0,0.0,0.0,0.0,-3.62,-3.733,-3.408,-3.3315,-3.5114,-3.1775,-3.0327,-3.0327,-3.0327,-3.0528,-3.0862,-3.0448,0.0,-2.9272,-2.8778,0.0,0.0,0.0,0.0,0.0,0.0,0.0,0.0,0.0,0.0,0.0,0.0,0.0,0.0,0.0,0.0,0.0,0.0,0.0,0.0,0.0,-1.9555,-2.0201,-2.0909,-2.1309,-2.1243,-2.0575,-2.0454,0.0,0.0,0.0,0.0,0.0,0.0,0.0,0.0,0.0,0.0,0.0,0.0,0.0,0.0,0.0,0.0,0.0,0.0,0.0,0.0,0.0,0.0,0.0,0.0,0.0,0.0,0.0,0.0,0.0,0.0,0.0,0.0,0.0,0.0,0.0,0.0,0.0,0.0,0.0,0.0,0.0,0.0,0.0,0.0,0.0,0.0,0.0,0.0,0.0,0.0,0.0,0.0,0.0,0.0,0.0,0.0,0.0,-3.623,-3.6964,-3.836,-3.799,-3.7544,0.0,0.0,0.0,0.0,0.0,0.0,0.0,0.0,0.0,-3.9923,-3.9303,-3.9605,-4.0728,-3.7078,-3.5661,-3.6711,-3.3228,-3.161,-3.1784,-3.1784,-3.1851,-3.1957,-3.1837,-3.2298,-3.2945,-3.1926,-3.0585,-2.9273,0.0,0.0,0.0,0.0,-2.7743,-2.7771,0.0,0.0,0.0,0.0,0.0,0.0,0.0,0.0,0.0,0.0,0.0,0.0,-1.9644,-2.0618,-2.1518,-2.2058,-2.2645,-2.2579,-2.1617,-2.1617,0.0,0.0,0.0,0.0,0.0,0.0,0.0,0.0,0.0,0.0,0.0,0.0,0.0,0.0,0.0,0.0,0.0,0.0,0.0,0.0,0.0,0.0,0.0,0.0,0.0,0.0,0.0,0.0,0.0,0.0,0.0,0.0,0.0,0.0,0.0,0.0,0.0,0.0,0.0,0.0,0.0,0.0,0.0,0.0,0.0,0.0,0.0,0.0,0.0,0.0,0.0,0.0,0.0,0.0,0.0,0.0,0.0,-3.7391,-3.8194,-4.0009,-3.9702,-3.9223,0.0,0.0,0.0,0.0,0.0,0.0,-4.0335,-3.9393,-3.997,-4.2519,-4.197,-4.2186,-4.3236,-3.983,-3.7959,-3.766,-3.5119,-3.3464,-3.2545,-3.3116,-3.3157,-3.2652,-3.2652,-3.3796,-3.5588,-3.4426,-3.322,-3.2294,-3.307,-3.2185,-3.068,-3.1153,-3.068,-3.0139,0.0,0.0,0.0,0.0,0.0,0.0,0.0,0.0,0.0,0.0,0.0,-2.067,-2.0575,-2.1984,-2.3107,-2.3581,-2.3447,-2.3153,-2.2792,-2.2271,0.0,0.0,0.0,0.0,0.0,0.0,0.0,0.0,0.0,0.0,0.0,0.0,0.0,0.0,0.0,0.0,0.0,0.0,0.0,0.0,0.0,0.0,0.0,0.0,0.0,0.0,0.0,0.0,0.0,0.0,0.0,0.0,0.0,0.0,0.0,0.0,0.0,0.0,0.0,0.0,0.0,0.0,0.0,0.0,0.0,0.0,0.0,0.0,0.0,0.0,0.0,0.0,0.0,0.0,0.0,0.0,0.0,0.0,0.0,-4.1035,-4.1816,0.0,0.0,0.0,0.0,-4.0451,-4.1209,-4.1688,-4.1584,-4.2031,-4.2475,-4.3466,-4.3346,-4.3573,-4.3995,-4.2294,-4.0424,-3.8545,-3.8403,-3.634,-3.274,-3.4625,-3.4601,-3.2959,-3.2959,-3.4114,-3.5788,-3.5295,-3.5756,-3.6956,-3.6754,-3.6179,-3.5858,-3.7759,-3.6499,-3.4264,0.0,0.0,0.0,-1.9272,-1.9272,-1.9272,-1.9272,-1.9272,-1.9345,-1.9459,-2.0543,-2.1575,-2.1835,-2.343,-2.4624,-2.4997,-2.5173,-2.493,-2.4062,-2.346,0.0,0.0,0.0,0.0,0.0,0.0,0.0,0.0,0.0,0.0,0.0,0.0,0.0,0.0,0.0,0.0,0.0,0.0,0.0,0.0,0.0,0.0,0.0,0.0,0.0,0.0,0.0,0.0,0.0,0.0,0.0,0.0,0.0,0.0,0.0,0.0,0.0,0.0,0.0,0.0,0.0,0.0,0.0,0.0,0.0,0.0,0.0,0.0,0.0,0.0,0.0,0.0,0.0,0.0,0.0,0.0,0.0,0.0,0.0,-4.2598,-4.2832,0.0,0.0,-4.3448,-4.3137,-4.2137,-4.3251,-4.3614,-4.2888,-4.3298,-4.3671,-4.3969,-4.3586,-4.3683,-4.4086,-4.2337,-4.1136,-4.0874,-3.972,-3.8317,-3.7177,-3.7939,-3.7237,-3.521,-3.521,-3.5802,-3.6922,-3.7578,-3.8071,-3.8562,-3.9673,-3.9704,-3.9159,-3.954,-3.9282,-3.8842,0.0,0.0,0.0,-1.9272,-1.9272,-1.9272,-1.9272,-1.9272,-1.955,-2.0311,-2.1598,-2.2673,-2.3346,-2.4887,-2.5978,-2.6071,-2.6262,-2.5972,-2.5147,-2.4622,0.0,0.0,0.0,0.0,0.0,0.0,0.0,0.0,0.0,0.0,0.0,0.0,0.0,0.0,0.0,0.0,0.0,0.0,0.0,0.0,0.0,0.0,-2.3594,0.0,0.0,0.0,0.0,0.0,0.0,0.0,0.0,0.0,0.0,0.0,0.0,0.0,0.0,0.0,0.0,0.0,0.0,0.0,0.0,0.0,0.0,0.0,0.0,0.0,0.0,0.0,0.0,0.0,0.0,0.0,0.0,0.0,0.0,0.0,-4.2012,-4.373,-4.3808,-4.3965,-4.4551,-4.4746,-4.4485,-4.3785,-4.478,-4.5009,-4.394,-4.4397,-4.437,-4.4015,-4.4115,-4.4193,-4.4288,-4.3225,-4.2668,-4.2416,-4.1829,-4.0799,-3.9673,-4.0449,-3.9673,-3.7523,-3.7523,-3.805,-3.9079,-4.0116,-4.0949,-4.1577,-4.2828,-4.3064,-4.2557,-4.2802,-4.2706,-4.2002,0.0,0.0,-1.9272,-1.9272,-1.9272,-1.9272,-1.9272,-1.9286,-1.9872,-2.1496,-2.2828,-2.4101,-2.517,-2.6458,-2.7125,-2.6934,-2.656,-2.6302,-2.6197,-2.554,0.0,0.0,0.0,0.0,0.0,0.0,0.0,0.0,0.0,0.0,0.0,0.0,0.0,0.0,0.0,0.0,0.0,0.0,0.0,0.0,0.0,0.0,-2.5064,0.0,0.0,0.0,0.0,0.0,0.0,0.0,0.0,0.0,0.0,0.0,0.0,0.0,0.0,0.0,0.0,0.0,0.0,0.0,0.0,0.0,0.0,0.0,0.0,0.0,0.0,0.0,0.0,0.0,0.0,0.0,0.0,0.0,-4.1777,-4.2578,-4.3437,-4.4336,-4.4805,-4.5058,-4.5058,-4.5449,-4.553,-4.4991,-4.5919,-4.5802,-4.4389,-4.5097,-4.4939,-4.3715,-4.4814,-4.5222,-4.4691,-4.548,-4.4903,-4.2967,-4.4921,-4.3747,-3.9867,-4.2008,-4.1816,-3.9867,-3.9867,-4.0639,-4.2244,-4.2758,-4.4209,-4.6133,-4.6114,-4.6133,-4.6227,-4.7615,-4.6579,-4.3832,-1.9272,-1.9272,-1.9272,-1.9272,-1.9272,-1.9272,-1.9272,-1.9477,-2.0208,-2.1832,-2.3369,-2.4815,-2.6373,-2.7084,-2.7675,-2.7748,-2.7196,-2.725,-2.8284,-2.7627,0.0,0.0,0.0,0.0,0.0,0.0,0.0,0.0,0.0,0.0,0.0,0.0,0.0,0.0,0.0,0.0,0.0,0.0,0.0,0.0,0.0,0.0,-2.6012,0.0,0.0,0.0,0.0,0.0,0.0,0.0,0.0,0.0,0.0,0.0,0.0,0.0,0.0,0.0,0.0,0.0,0.0,0.0,0.0,0.0,0.0,0.0,0.0,0.0,0.0,0.0,0.0,0.0,0.0,0.0,0.0,-4.2598,-4.2715,-4.3476,-4.4355,-4.5215,-4.543,-4.5625,-4.5918,-4.6055,-4.5958,-4.5434,-4.6171,-4.6227,-4.5159,-4.5621,-4.5792,-4.5431,-4.5111,-4.5187,-4.5668,-4.5538,-4.5403,-4.5111,-4.5695,-4.53,-4.4145,-4.4714,-4.3937,-4.2008,-4.2008,-4.1574,-4.1073,-4.2313,-4.3643,-4.5021,-4.6227,-4.703,-4.7703,-4.8118,-4.7061,-4.4966,-1.9272,-1.9272,-1.9272,-1.9272,-1.9272,-1.9316,-1.9462,-2.0046,-2.1113,-2.2995,-2.4501,-2.5936,-2.7405,-2.7691,-2.7773,-2.7762,-2.7244,-2.7295,-2.8201,0.0,0.0,0.0,0.0,0.0,0.0,0.0,0.0,0.0,0.0,0.0,0.0,0.0,0.0,0.0,0.0,0.0,0.0,0.0,0.0,0.0,0.0,0.0,-2.7108,-2.6987,-2.6386,-2.5611,-2.5438,-2.5184,-2.4917,-2.4743,0.0,0.0,0.0,0.0,0.0,0.0,0.0,0.0,0.0,0.0,0.0,0.0,0.0,0.0,0.0,0.0,0.0,0.0,0.0,0.0,0.0,0.0,0.0,0.0,-4.2651,-4.3632,-4.3807,-4.4441,-4.5176,-4.5859,-4.5937,-4.6035,-4.6289,-4.6308,-4.6133,-4.5958,-4.6347,-4.6385,-4.5846,-4.6274,-4.6304,-4.6133,-4.5755,-4.5593,-4.6038,-4.5834,-4.5851,-4.5883,-4.6072,-4.6072,-4.5883,-4.5883,-4.53,0.0,-4.4145,-4.3556,-4.2775,-4.4069,-4.4732,0.0,0.0,0.0,0.0,0.0,-4.7692,-4.6691,-1.9272,-1.9272,-1.9272,-1.9272,-1.9301,-1.9433,-1.9711,-2.0757,-2.2193,-2.429,-2.551,-2.6664,-2.8284,-2.7961,-2.7616,-2.7616,-2.6895,-2.6849,0.0,0.0,0.0,0.0,0.0,0.0,0.0,0.0,0.0,0.0,0.0,0.0,0.0,0.0,0.0,0.0,0.0,0.0,0.0,0.0,0.0,0.0,0.0,0.0,-2.827,-2.8003,-2.7348,-2.6587,-2.6587,-2.6386,-2.6106,-2.6106,0.0,0.0,0.0,0.0,0.0,0.0,0.0,0.0,0.0,0.0,0.0,0.0,0.0,0.0,0.0,0.0,0.0,0.0,0.0,0.0,0.0,0.0,0.0,0.0,-4.3458,-4.4568,-4.4991,-4.5396,-4.5879,-4.625,-4.6308,-4.6308,-4.6308,-4.6308,-4.6308,-4.6308,-4.6387,-4.6425,-4.6439,0.0,0.0,0.0,0.0,-4.6649,-4.6279,-4.6448,-4.6447,-4.5883,-4.6259,-4.6259,-4.5883,-4.5883,-4.5883,-4.5883,-4.5883,-4.5883,-4.5883,-4.6259,-4.6635,-4.6597,-4.7335,-4.7733,-4.8137,-4.7807,-4.8127,-4.8439,-1.9272,-1.9272,-1.9272,-1.9272,-1.9491,-1.9696,-1.9755,-2.0411,-2.1728,-2.4218,-2.5056,-2.6239,-2.8608,-2.8104,-2.7917,-2.84,-2.7311,-2.7668,0.0,0.0,0.0,0.0,0.0,0.0,0.0,0.0,0.0,0.0,0.0,0.0,0.0,0.0,0.0,0.0,0.0,0.0,0.0,0.0,0.0,0.0,0.0,0.0,-2.9219,-2.9165,-2.8577,-2.7802,-2.7802,-2.7468,-2.7014,-2.7014,-2.6814,-2.6613,-2.6854,0.0,0.0,0.0,0.0,0.0,0.0,0.0,0.0,0.0,0.0,0.0,0.0,0.0,0.0,0.0,0.0,0.0,0.0,0.0,0.0,-4.3828,-4.4485,-4.5184,-4.5939,-4.5842,-4.5686,-4.5763,-4.6133,-4.6308,-4.6308,-4.6308,-4.6308,-4.6308,-4.6933,-4.7363,-4.7262,-4.7761,0.0,-4.8429,-4.7583,-4.7455,-4.764,-4.6971,-4.6635,-4.6447,0.0,0.0,-4.5883,-4.5883,-4.5883,-4.5883,-4.5883,-4.5883,-4.5883,-4.6072,-4.6259,-4.6616,-4.7102,-4.7455,-4.7455,-4.6204,-4.6803,-4.7922,-1.9725,-1.9623,-1.9564,-1.9725,-1.9886,-2.0062,-2.0223,-2.1053,-2.2206,-2.3907,-2.4743,-2.5906,-2.7466,-2.6786,-2.6542,-2.7164,-2.7759,0.0,0.0,0.0,0.0,0.0,0.0,0.0,0.0,0.0,0.0,0.0,0.0,0.0,0.0,0.0,0.0,0.0,0.0,0.0,0.0,0.0,0.0,0.0,0.0,0.0,-3.1049,-3.1315,-3.0525,-2.9295,-3.0312,-3.0548,-3.0289,-3.0289,-3.0807,-3.1332,-3.1362,-3.0374,-2.9478,0.0,0.0,0.0,0.0,0.0,0.0,0.0,0.0,0.0,0.0,0.0,0.0,0.0,0.0,-3.9493,0.0,0.0,-4.3837,-4.4621,-4.4703,-4.4731,-4.5503,-4.5388,-4.5431,-4.5958,-4.6133,-4.6308,-4.6308,-4.6308,-4.6387,-4.6601,-4.7012,-4.7441,-4.7871,-4.8118,-4.8449,-4.8848,-4.8127,-4.796,-4.8127,-4.7569,-4.7196,-4.7009,-4.6822,-4.6447,-4.6259,-4.6072,-4.6072,-4.6259,-4.6072,-4.6072,-4.6259,-4.6072,-4.6072,-4.6259,-4.6447,-4.7009,-4.7569,-4.6803,-4.7364,-4.8312,-2.0267,-2.012,-2.0003,-2.0194,-2.0281,-2.0413,-2.0676,-2.1532,-2.259,-2.3392,-2.4276,-2.5216,-2.6149,-2.5355,-2.5068,-2.6011,0.0,0.0,0.0,0.0,0.0,0.0,0.0,0.0,0.0,0.0,0.0,0.0,0.0,0.0,0.0,0.0,0.0,0.0,0.0,0.0,0.0,0.0,0.0,0.0,0.0,0.0,-3.3205,-3.4217,-3.3146,-3.1345,-3.3239,-3.3708,-3.3753,-3.3753,-3.4686,-3.5792,-3.5557,-3.4207,-3.2813,-3.3468,-3.2873,0.0,0.0,0.0,0.0,0.0,0.0,0.0,0.0,0.0,-3.7773,-4.0702,-4.1285,-4.1575,-4.2818,-4.4058,-4.501,-4.5435,-4.5097,-4.4867,-4.5111,-4.5045,-4.5331,-4.6133,-4.6308,-4.6308,-4.6308,-4.6367,-4.6562,-4.6914,-4.709,-4.748,-4.8164,-4.8281,-4.8496,-4.8848,-4.8497,-4.8312,-4.8312,-4.8127,-4.7941,-4.7401,-4.7196,-4.7009,-4.6635,-4.6072,-4.6072,-4.6635,-4.6072,-4.6072,-4.6447,-4.6072,-4.5883,-4.5883,-4.6072,-4.6822,-4.7941,-4.7941,-4.8312,-4.8682,-2.0603,-2.0633,-2.053,-2.0281,-2.0472,-2.0676,-2.072,-2.1082,-2.1759,-2.2988,-2.3315,-2.3767,-2.5077,-2.4764,-2.4947,0.0,0.0,0.0,0.0,0.0,0.0,0.0,0.0,0.0,0.0,0.0,0.0,0.0,0.0,0.0,0.0,0.0,0.0,0.0,0.0,0.0,0.0,0.0,0.0,0.0,0.0,0.0,-3.6161,-3.8175,-3.6897,-3.4433,-3.5478,-3.5792,-3.5557,-3.5557,-3.551,-3.546,-3.5792,-3.5691,-3.5459,-3.5676,0.0,-3.4981,0.0,0.0,0.0,-3.806,-3.8707,-3.9196,0.0,0.0,-4.306,-4.4188,-4.4771,-4.5258,-4.5801,-4.6328,-4.6678,-4.7285,-4.6864,-4.6607,-4.6617,-4.6006,-4.5655,-4.6172,-4.6308,-4.6308,-4.6308,-4.6641,-4.6875,-4.6933,-4.7637,-4.8105,-4.8203,-4.8574,-4.8808,-4.8867,-4.8867,-4.8867,-4.8867,-4.8312,-4.7941,-4.7401,-4.7009,-4.6635,-4.6635,-4.6072,-4.6072,-4.6635,-4.6072,-4.5883,-4.5883,-4.5883,-4.5883,-4.6072,-4.6841,-4.7382,-4.7401,-4.7401,-4.7755,-4.8312,-2.094,-2.1013,-2.0969,-2.0823,-2.0911,-2.1013,-2.1013,-2.1115,-2.1467,-2.2198,-2.2198,-2.262,-2.3508,-2.3615,-2.3947,-2.479,0.0,0.0,0.0,0.0,0.0,0.0,0.0,0.0,0.0,0.0,0.0,0.0,0.0,0.0,0.0,0.0,0.0,0.0,0.0,0.0,0.0,0.0,0.0,0.0,0.0,0.0,-3.7908,-4.0579,-4.0929,-3.9819,-3.9304,-3.888,0.0,0.0,-3.9138,-3.9905,-3.9995,-3.895,-3.7935,-3.9357,-3.8469,0.0,-3.9613,0.0,0.0,0.0,-4.2416,-4.2569,-4.3518,-4.4083,-4.4707,-4.5586,-4.5918,-4.625,-4.6914,-4.7009,-4.7082,0.0,-4.7011,-4.6514,-4.6409,-4.6381,-4.6351,-4.6159,-4.6675,-4.6953,-4.6699,-4.7051,-4.7402,-4.7656,-4.8008,-4.832,-4.8574,-4.875,-4.8867,-4.8867,-4.8867,-4.8867,-4.8867,-4.8682,-4.8497,-4.8312,-4.7755,-4.7382,-4.7009,-4.6447,-4.6259,-4.6259,-4.6259,-4.6072,-4.5883,-4.5883,-4.5883,-4.5883,-4.6447,-4.6635,-4.7009,-4.7941,-4.8312,-4.8682,-2.1159,-2.1203,-2.1203,-2.1203,-2.1203,-2.1203,-2.1203,-2.1203,-2.1291,-2.1525,-2.155,-2.1797,-2.2284,-2.2567,-2.3107,-2.4027,-2.6817,-2.8764,0.0,0.0,0.0,0.0,0.0,0.0,0.0,0.0,0.0,0.0,0.0,0.0,0.0,0.0,0.0,0.0,0.0,0.0,0.0,0.0,0.0,0.0,0.0,0.0,-3.9179,-4.1978,-4.3144,-4.3273,-4.1973,-4.1528,0.0,0.0,-4.1295,-4.2617,-4.2605,-4.1398,-4.0358,-4.225,-4.1216,-4.0173,-4.277,0.0,0.0,-4.4883,-4.5156,-4.5215,-4.5625,-4.5723,-4.5898,-4.6523,-4.6562,-4.6738,-4.7598,-4.7476,0.0,-4.7752,-4.7117,-4.6561,-4.6201,-4.6504,-4.6638,-4.6143,-4.7057,-4.7437,-4.7305,-4.7578,-4.7871,-4.8183,-4.832,-4.8535,-4.8848,-4.8867,-4.8867,-4.8867,-4.8867,-4.8867,-4.8867,-4.8867,-4.8867,-4.8682,-4.8312,-4.7755,-4.7401,-4.6822,-4.6259,-4.5883,-4.6259,-4.6259,-4.5883,-4.5883,-4.5883,-4.6072,-4.6259,-4.6635,-4.7196,-4.8497,-4.8867,-4.8682,-2.1203,-2.1203,-2.1203,-2.1203,-2.1203,-2.1203,-2.1203,-2.1203,-2.1218,-2.1218,-2.1524,-2.1661,-2.1672,-2.1992,-2.299,-2.5016,-2.5383,-2.6937,0.0,0.0,0.0,0.0,0.0,0.0,0.0,0.0,0.0,0.0,0.0,0.0,0.0,0.0,0.0,0.0,0.0,0.0,0.0,0.0,0.0,0.0,0.0,0.0,-4.031,-4.2496,-4.341,-4.3534,-4.3036,0.0,0.0,0.0,-4.0879,-4.123,-4.125,-4.1797,0.0,-4.3437,-4.3379,0.0,0.0,0.0,-4.4004,-4.5332,-4.6269,-4.6973,-4.7402,-4.75,-4.7519,-4.7539,-4.7207,-4.7168,-4.8027,-4.7851,-4.7851,-4.8691,-4.811,-4.7319,-4.6934,-4.6514,-4.6162,-4.628,-4.6953,-4.7636,0.0,-4.8183,-4.8203,-4.8203,-4.8594,-4.8848,-4.8867,-4.8867,-4.8867,-4.8867,-4.8867,-4.8867,-4.8867,-4.8867,-4.8682,-4.8127,-4.8146,-4.7755,-4.7401,-4.6822,-4.6259,-4.5883,-4.5883,-4.5883,-4.5883,-4.5883,-4.6259,-4.6635,-4.7196,-4.7588,-4.8127,-4.8682,-4.8497,-4.8127,-2.1247,-2.1203,-2.1203,-2.1203,-2.1203,-2.1276,-2.1496,-2.135,-2.1291,-2.1511,-2.1603,0.0,0.0,0.0,0.0,0.0,-2.4694,-2.6023,-2.7955,0.0,0.0,0.0,0.0,0.0,0.0,0.0,0.0,0.0,0.0,0.0,0.0,0.0,0.0,0.0,0.0,0.0,0.0,0.0,0.0,0.0,0.0,0.0,-4.0292,-4.3588,-4.4203,-4.3215,0.0,0.0,0.0,0.0,0.0,0.0,-4.1074,-4.1172,-4.1328,-4.2187,-4.293,0.0,0.0,0.0,-4.5312,-4.6621,-4.7148,-4.7402,-4.7539,-4.7578,-4.7656,-4.793,-4.7656,-4.7617,-4.8476,-4.8066,-4.7773,-4.834,-4.7885,-4.7373,-4.6857,-4.7269,-4.7405,-4.7069,-4.7916,0.0,0.0,0.0,0.0,-4.8633,-4.8769,-4.8867,-4.8867,-4.8867,-4.8867,-4.8867,-4.8867,-4.8867,-4.8867,-4.8867,-4.8867,-4.8682,-4.8312,-4.796,-4.7774,-4.7009,-4.6447,-4.6259,-4.6072,-4.5883,-4.5883,-4.5883,-4.6072,-4.6072,-4.6259,-4.6447,-4.6635,-4.7196,-4.7196,-4.7196,-2.1598,-2.1554,-2.1554,-2.1554,-2.1554,0.0,0.0,0.0,0.0,0.0,0.0,0.0,0.0,0.0,0.0,0.0,0.0,-2.5192,0.0,0.0,0.0,0.0,0.0,0.0,0.0,0.0,0.0,0.0,0.0,0.0,0.0,0.0,0.0,0.0,0.0,0.0,0.0,0.0,0.0,0.0,0.0,0.0,-4.0349,-4.3519,-4.3769,0.0,0.0,0.0,0.0,0.0,0.0,0.0,-4.0625,-4.1055,-4.1582,-4.2266,-4.3183,0.0,0.0,-4.5781,-4.6211,-4.748,-4.7793,-4.7851,-4.8008,-4.8047,-4.8105,-4.8379,-4.8105,-4.8027,-4.873,-4.8164,-4.7773,-4.834,-4.7651,-4.7044,-4.6819,-4.7451,-4.7625,-4.7059,-4.7945,0.0,0.0,0.0,0.0,-4.8867,-4.8867,-4.8867,-4.8867,-4.8867,-4.8867,-4.8867,-4.8867,-4.8867,-4.8867,-4.8867,-4.8867,-4.8682,-4.8312,-4.7941,-4.7755,-4.7196,-4.6822,-4.6822,-4.6447,-4.6072,-4.6072,-4.5883,-4.6072,-4.6278,-4.6614,-4.6858,-4.7065,-4.7592,-4.7742,-4.7778,-2.2184,-2.2184,-2.2184,0.0,0.0,0.0,0.0,0.0,0.0,0.0,0.0,0.0,0.0,0.0,0.0,0.0,0.0,0.0,0.0,0.0,0.0,0.0,0.0,0.0,0.0,0.0,0.0,0.0,0.0,0.0,0.0,0.0,0.0,0.0,0.0,0.0,0.0,0.0,0.0,0.0,0.0,0.0,-4.0272,-4.2318,0.0,0.0,0.0,0.0,0.0,0.0,0.0,0.0,0.0,-4.1445,-4.3183,-4.3652,-4.4121,-4.4668,-4.5566,-4.6094,-4.6699,-4.793,-4.8242,-4.834,-4.8769,-4.8848,-4.8828,-4.8828,-4.8457,-4.8281,0.0,0.0,-4.7773,-4.8594,-4.7334,-4.6318,-4.6703,-4.6819,-4.6676,0.0,0.0,0.0,0.0,0.0,0.0,-4.8848,0.0,-4.8867,-4.8867,-4.8867,-4.8867,-4.8867,-4.8867,-4.8867,-4.8867,-4.8867,-4.8682,-4.8127,-4.8127,-4.796,-4.7401,-4.7401,-4.7401,-4.7401,-4.6822,-4.6635,-4.6447,-4.609,-4.6296,-4.6709,-4.7686,-4.8423,-4.8858,-4.983,-4.9922,-4.9305,0.0,0.0,0.0,0.0,0.0,0.0,0.0,0.0,0.0,0.0,0.0,0.0,0.0,0.0,0.0,0.0,0.0,0.0,0.0,0.0,0.0,0.0,0.0,0.0,0.0,0.0,0.0,0.0,0.0,0.0,0.0,0.0,0.0,0.0,0.0,0.0,0.0,0.0,0.0,0.0,0.0,0.0,-3.9061,0.0,0.0,0.0,0.0,0.0,0.0,0.0,0.0,0.0,0.0,0.0,-4.3359,-4.4766,-4.5254,-4.5664,-4.7168,-4.7637,-4.7871,-4.8535,-4.8691,-4.873,-4.8828,-4.8613,-4.8379,-4.8379,-4.7773,-4.7383,0.0,0.0,0.0,-4.6914,-4.6503,0.0,-4.6017,-4.6795,0.0,0.0,0.0,-4.8682,-4.8682,-4.8682,0.0,0.0,-4.8867,-4.8867,-4.8867,-4.8867,-4.8867,-4.8867,-4.8867,-4.8867,-4.8867,-4.8867,-4.8867,-4.8682,-4.8682,-4.8682,-4.8497,-4.8127,-4.7774,-4.7401,-4.6822,-4.6447,-4.609,-4.6781,-4.7101,-4.7138,-4.812,-4.8672,-4.8672,-4.8977,-4.8957,-4.8843,0.0,0.0,0.0,0.0,0.0,0.0,0.0,0.0,0.0,0.0,0.0,0.0,0.0,0.0,0.0,0.0,0.0,0.0,0.0,0.0,0.0,0.0,0.0,0.0,0.0,0.0,0.0,0.0,0.0,0.0,0.0,0.0,0.0,0.0,0.0,0.0,0.0,0.0,0.0,0.0,0.0,0.0,0.0,0.0,0.0,0.0,0.0,0.0,0.0,0.0,0.0,-4.1973,-4.3457,-4.4062,-4.4473,-4.584,0.0,-4.6758,-4.7891,-4.834,-4.8555,-4.8789,-4.8867,-4.8808,-4.8613,-4.8379,-4.8164,-4.7969,-4.7558,0.0,0.0,0.0,0.0,0.0,0.0,0.0,-4.6211,-4.7012,-4.7578,0.0,-4.7974,0.0,-4.8497,-4.8497,-4.8682,0.0,-4.8867,-4.8867,-4.8867,-4.8867,-4.8867,-4.8867,-4.8867,-4.8867,-4.8867,-4.8867,-4.8867,-4.8497,-4.8867,-4.8867,-4.8497,-4.8497,-4.8127,-4.7774,0.0,-4.7084,-4.6933,-4.7343,-4.7511,-4.7739,-4.8554,-4.8897,-4.8916,-4.9492,-4.9646,-4.9685,0.0,0.0,0.0,0.0,0.0,0.0,0.0,0.0,0.0,0.0,0.0,0.0,0.0,0.0,0.0,0.0,0.0,0.0,0.0,0.0,0.0,0.0,0.0,0.0,0.0,0.0,0.0,0.0,0.0,0.0,0.0,0.0,0.0,0.0,0.0,0.0,0.0,0.0,0.0,0.0,0.0,0.0,0.0,0.0,0.0,0.0,0.0,0.0,0.0,0.0,-4.2871,-4.291,-4.4648,-4.5488,-4.5996,-4.6777,-4.7324,-4.7754,-4.8183,-4.8574,-4.8867,-4.8867,-4.8867,-4.875,-4.8301,-4.8164,-4.8008,-4.7578,0.0,0.0,-4.748,0.0,-4.6543,-4.7285,0.0,-4.6016,-4.6738,-4.7266,-4.7418,-4.7096,-4.7646,-4.8127,-4.8127,-4.8127,-4.8312,-4.8867,-4.8867,-4.8867,-4.8867,-4.8867,-4.8867,-4.8867,-4.8867,-4.8867,-4.8867,-4.8867,-4.8682,-4.8127,-4.8682,-4.8682,-4.8127,-4.8682,-4.8721,-4.8242,-4.8044,0.0,-4.8121,-4.8155,-4.8132,-4.8169,-4.9163,-4.9527,-4.9565,-5.0512,-5.0804,-5.0898,0.0,0.0,0.0,0.0,0.0,0.0,0.0,0.0,0.0,0.0,-2.2784,-2.2842,0.0,0.0,0.0,0.0,0.0,0.0,0.0,0.0,0.0,0.0,0.0,0.0,0.0,0.0,0.0,0.0,0.0,0.0,0.0,0.0,0.0,0.0,0.0,0.0,0.0,0.0,0.0,0.0,0.0,0.0,0.0,0.0,0.0,0.0,0.0,0.0,0.0,0.0,-4.3262,-4.3789,-4.5527,-4.6367,-4.6816,-4.7324,-4.7773,-4.8203,-4.8633,-4.8808,-4.8867,-4.8867,-4.8867,-4.875,-4.8301,-4.793,0.0,0.0,0.0,-4.6641,-4.6973,0.0,0.0,-4.6504,0.0,0.0,0.0,0.0,-4.7715,0.0,0.0,0.0,0.0,0.0,0.0,0.0,0.0,-4.8867,-4.8867,-4.8867,-4.8867,-4.8867,-4.8867,-4.8867,-4.8867,-4.8867,-4.8867,-4.8682,-4.8867,-4.8867,-4.8682,-4.8867,-4.8877,-4.8665,-4.8742,0.0,-4.8557,-4.8973,-4.9125,-4.9182,-5.0183,-5.055,-5.055,-5.1017,-5.1387,-5.1328,0.0,0.0,0.0,0.0,0.0,0.0,0.0,-2.2462,-2.2828,-2.3296,-2.3369,-2.3501,-2.3823,-2.3998,-2.4159,0.0,0.0,0.0,0.0,0.0,0.0,0.0,0.0,0.0,0.0,0.0,0.0,0.0,0.0,0.0,0.0,0.0,0.0,0.0,0.0,0.0,0.0,0.0,0.0,0.0,0.0,0.0,0.0,0.0,0.0,0.0,0.0,0.0,0.0,0.0,-4.3535,-4.4004,-4.5762,-4.6738,-4.7266,-4.7246,-4.7851,-4.8535,-4.8535,-4.8691,-4.8867,-4.8867,-4.8867,-4.8691,-4.8027,0.0,0.0,0.0,0.0,0.0,-4.6562,0.0,0.0,0.0,0.0,0.0,0.0,0.0,0.0,0.0,0.0,0.0,0.0,0.0,0.0,0.0,0.0,-4.8867,-4.8867,-4.8867,-4.8867,-4.8867,-4.8867,-4.8867,-4.8867,-4.8867,-4.8867,-4.8867,-4.8867,-4.8867,-4.8867,-4.8867,-4.8916,-4.8781,-4.9011,0.0,-4.8973,-4.9409,-4.9579,-4.9598,-5.0198,-5.0451,-5.0646,-5.1037,-5.1231,-5.1426,0.0,0.0,0.0,0.0,0.0,0.0,0.0,-2.3062,-2.3427,-2.3764,-2.4086,-2.4291,-2.4291,-2.4452,-2.4598,0.0,0.0,0.0,0.0,0.0,0.0,0.0,0.0,0.0,0.0,0.0,0.0,0.0,0.0,0.0,0.0,0.0,0.0,0.0,0.0,0.0,0.0,0.0,0.0,0.0,0.0,0.0,0.0,0.0,0.0,0.0,0.0,0.0,0.0,0.0,-4.3828,-4.4238,-4.5703,-4.6699,-4.7266,-4.6992,-4.7773,-4.8672,-4.8418,-4.8594,-4.8867,-4.8867,-4.8867,-4.8633,-4.7773,-4.7578,0.0,0.0,0.0,0.0,0.0,0.0,0.0,0.0,0.0,0.0,0.0,0.0,0.0,0.0,0.0,0.0,0.0,0.0,0.0,0.0,0.0,0.0,-4.8867,-4.8867,-4.8867,-4.8867,-4.8867,-4.8867,-4.8867,-4.8867,-4.8906,-4.9004,-4.9004,-4.9043,-4.9141,-4.9141,-4.9188,-4.9258,-4.9586,0.0,0.0,-4.9945,-4.9882,-5.0078,-4.9882,-5.0274,-5.0646,-5.0842,-5.1037,-5.1426,0.0,0.0,0.0,0.0,0.0,0.0,0.0,-2.3588,-2.4115,-2.4437,-2.4759,-2.4964,-2.4964,-2.473,-2.4553,0.0,0.0,0.0,0.0,0.0,0.0,0.0,0.0,0.0,0.0,0.0,0.0,0.0,0.0,0.0,0.0,0.0,0.0,0.0,0.0,0.0,0.0,0.0,0.0,0.0,0.0,0.0,0.0,0.0,0.0,0.0,0.0,0.0,0.0,0.0,0.0,-4.5,-4.5566,-4.6055,-4.6484,-4.6836,0.0,0.0,-4.8711,-4.8828,-4.8867,-4.8867,-4.8867,-4.8633,-4.7773,0.0,0.0,0.0,0.0,0.0,0.0,0.0,0.0,0.0,0.0,0.0,0.0,0.0,0.0,0.0,0.0,0.0,0.0,0.0,0.0,0.0,0.0,0.0,-4.8867,-4.8867,-4.8867,-4.8867,-4.8867,-4.8867,-4.8867,-4.8867,-4.9062,-4.9473,-4.9473,-4.9668,-5.0058,-5.0058,-5.0293,-5.0683,-5.0723,0.0,0.0,-5.0255,-5.0274,-5.0666,-5.0078,-5.0274,-5.0842,-5.1231,-5.1426,-5.1426,0.0,0.0,0.0,0.0,0.0,0.0,-2.3632,-2.4086,-2.4496,-2.4818,-2.514,-2.5271,-2.5081,-2.4935,-2.4905,-2.4902,0.0,0.0,0.0,0.0,0.0,0.0,0.0,0.0,0.0,0.0,0.0,0.0,0.0,0.0,0.0,0.0,0.0,0.0,0.0,0.0,0.0,0.0,0.0,0.0,0.0,0.0,0.0,0.0,0.0,0.0,0.0,0.0,0.0,0.0,0.0,0.0,-4.4433,-4.4961,0.0,0.0,-4.7344,-4.8183,-4.8105,-4.8457,-4.8867,-4.8867,-4.8867,-4.8633,-4.7773,0.0,0.0,0.0,-4.6308,-4.6348,-4.6523,0.0,0.0,0.0,0.0,0.0,0.0,0.0,0.0,0.0,0.0,0.0,0.0,0.0,0.0,0.0,0.0,0.0,-4.8867,-4.8867,-4.8867,-4.8867,-4.8867,-4.8984,-4.9258,-4.9258,-4.9492,-4.9922,-4.9922,-5.0019,-5.0176,-5.0176,-5.041,-5.0801,-5.0801,0.0,0.0,-5.047,-5.047,-5.0646,-5.047,-5.0646,-5.1231,-5.1231,-5.1426,-5.1426,0.0,0.0,0.0,0.0,0.0,-2.3325,-2.3984,-2.4364,-2.4686,-2.5008,-2.533,-2.5403,-2.5096,-2.5052,-2.5052,-2.5052,-2.4444,0.0,0.0,0.0,0.0,0.0,0.0,0.0,0.0,0.0,0.0,0.0,0.0,0.0,0.0,0.0,0.0,0.0,0.0,0.0,0.0,0.0,0.0,0.0,0.0,0.0,0.0,0.0,0.0,0.0,0.0,0.0,0.0,0.0,0.0,0.0,0.0,0.0,0.0,0.0,-4.6933,-4.7812,-4.7773,-4.8203,-4.8691,-4.8828,-4.8769,-4.8476,0.0,0.0,0.0,-4.6445,-4.6308,-4.6308,-4.6308,-4.6758,0.0,0.0,0.0,0.0,0.0,0.0,0.0,0.0,0.0,0.0,0.0,0.0,0.0,0.0,0.0,0.0,0.0,-4.8867,-4.8926,-4.9043,-4.9062,-4.9277,-4.9707,-4.9726,-4.9941,-5.0371,-5.0371,-5.043,-5.0547,-5.0547,-5.0703,-5.0996,-5.0996,0.0,0.0,-5.0842,-5.0842,-5.0842,-5.0842,-5.1037,-5.1426,-5.1426,-5.1426,-5.1426,0.0,0.0,0.0,0.0,0.0,0.0,-2.3984,-2.4364,-2.4686,-2.5008,-2.533,-2.5403,-2.5096,-2.5052,-2.5052,-2.5052,-2.4374,0.0,0.0,0.0,0.0,0.0,0.0,0.0,0.0,0.0,-2.3419,-2.4414,-2.4136,0.0,0.0,0.0,0.0,0.0,0.0,0.0,0.0,0.0,0.0,0.0,0.0,0.0,0.0,0.0,0.0,0.0,0.0,0.0,0.0,0.0,0.0,0.0,0.0,0.0,0.0,0.0,-4.6289,-4.7129,-4.7969,-4.8203,-4.832,-4.875,-4.8535,-4.8105,0.0,0.0,0.0,0.0,-4.6308,-4.6308,-4.6308,-4.6992,-4.7578,-4.7578,-4.8301,0.0,-4.8867,0.0,0.0,0.0,0.0,0.0,0.0,0.0,0.0,0.0,0.0,0.0,0.0,-4.8867,-4.9062,-4.9512,-4.9512,-4.9726,-5.0176,-5.0176,-5.0391,-5.0801,-5.0801,-5.1016,-5.1426,-5.1426,-5.1426,0.0,0.0,0.0,0.0,-5.0842,-5.1037,-5.1426,-5.0842,-5.1037,-5.1426,-5.1426,-5.1426,-5.1426,0.0,0.0,0.0,0.0,0.0,0.0,0.0,-2.4364,-2.4686,-2.5008,-2.533,-2.5403,-2.5096,-2.5052,-2.5052,-2.5052,-2.4175,0.0,0.0,0.0,0.0,0.0,0.0,0.0,0.0,0.0,-2.3252,-2.4045,-2.3967,-2.4118,-2.4768,-2.4734,0.0,0.0,0.0,0.0,0.0,0.0,0.0,0.0,0.0,0.0,0.0,0.0,0.0,0.0,0.0,0.0,0.0,0.0,0.0,0.0,0.0,0.0,0.0,-4.3803,0.0,0.0,-4.7266,-4.7558,-4.7812,-4.7949,-4.7871,-4.7676,-4.7226,0.0,0.0,0.0,-4.6308,-4.6308,-4.6308,-4.6523,-4.6894,-4.748,-4.7812,-4.8183,0.0,0.0,0.0,0.0,0.0,0.0,0.0,0.0,0.0,0.0,0.0,0.0,0.0,-4.9141,-4.9375,-4.9531,-4.9531,-4.9883,-5.0605,-5.0605,-5.082,-5.123,-5.123,-5.1308,-5.1426,-5.1426,-5.1426,0.0,0.0,0.0,0.0,-4.7419,-4.7816,-4.9217,-4.902,-5.0021,-5.1231,-4.9825,-4.9217,-4.9217,0.0,0.0,0.0,0.0,0.0,0.0,0.0,-2.4071,-2.4364,-2.4818,-2.5037,-2.514,-2.5066,-2.5052,-2.5052,-2.5052,-2.4189,0.0,0.0,0.0,0.0,0.0,0.0,0.0,-2.2859,-2.2859,-2.3273,-2.4102,-2.4188,-2.4404,-2.4985,-2.5112,-2.4994,-2.4915,0.0,0.0,0.0,0.0,0.0,0.0,0.0,0.0,-3.2363,0.0,0.0,0.0,0.0,0.0,0.0,0.0,0.0,0.0,0.0,0.0,0.0,0.0,-4.3603,-4.5603,0.0,-4.6574,-4.6446,-4.7359,-4.6902,0.0,0.0,0.0,0.0,0.0,0.0,-4.6308,-4.6308,-4.6426,-4.6719,-4.7246,-4.7598,-4.7949,0.0,0.0,0.0,0.0,0.0,0.0,0.0,0.0,0.0,0.0,0.0,0.0,0.0,-4.9091,-4.9402,-4.9389,-4.9733,-5.0332,-5.1035,-5.1035,-5.1172,-5.1426,-5.1426,-5.1426,-5.1426,-5.0627,-5.0217,0.0,0.0,0.0,0.0,-4.6405,-4.7021,-4.8212,-4.8212,-4.902,-5.0021,-4.8626,-4.7618,-4.7021,0.0,0.0,0.0,0.0,0.0,0.0,0.0,-2.3618,-2.3823,-2.4452,-2.4554,-2.4686,-2.4993,-2.5052,-2.5052,-2.5052,-2.451,0.0,0.0,0.0,0.0,0.0,0.0,0.0,-2.2859,-2.2899,-2.3474,-2.4609,-2.4649,-2.4943,-2.5478,-2.5499,-2.5066,-2.4367,-2.5072,-2.5229,0.0,0.0,0.0,0.0,0.0,0.0,0.0,0.0,0.0,0.0,0.0,0.0,0.0,0.0,0.0,0.0,0.0,0.0,0.0,0.0,0.0,0.0,0.0,-4.5196,-4.4212,-4.6466,-4.5517,0.0,0.0,0.0,0.0,0.0,0.0,0.0,-4.6308,-4.6621,-4.6894,-4.6933,-4.7617,-4.8027,0.0,0.0,0.0,0.0,0.0,0.0,0.0,0.0,0.0,0.0,0.0,0.0,0.0,-4.8756,-4.9181,-4.9225,-5.0242,-5.0842,-5.1426,-5.1231,-5.1231,-5.1231,-5.1037,-5.1037,-5.0822,-4.8823,-4.8014,0.0,0.0,0.0,0.0,-4.7004,-4.7816,-4.7816,-4.7816,-4.8014,-4.8014,-4.7816,-4.6405,-4.5001,0.0,0.0,0.0,0.0,0.0,0.0,0.0,0.0,0.0,0.0,-2.4423,-2.4598,-2.4671,-2.4905,-2.5052,0.0,0.0,0.0,0.0,0.0,0.0,0.0,0.0,0.0,-2.2859,-2.3313,-2.3808,-2.4302,-2.4756,-2.505,-2.5184,-2.5268,-2.5188,-2.497,-2.5194,-2.559,0.0,0.0,0.0,0.0,0.0,0.0,0.0,0.0,0.0,0.0,-3.5638,-3.8024,0.0,0.0,0.0,0.0,0.0,0.0,0.0,0.0,-4.0262,-4.0859,-4.139,0.0,-4.1541,-4.2008,-4.2874,-4.3715,0.0,0.0,0.0,0.0,0.0,0.0,0.0,-4.6387,-4.6562,-4.6875,-4.7383,-4.7695,0.0,0.0,0.0,0.0,0.0,0.0,0.0,0.0,0.0,0.0,0.0,0.0,0.0,-4.5868,-4.6071,-4.7887,-4.8471,-4.9731,-5.1426,-4.9825,-4.902,-4.902,-4.722,-4.6423,-4.6423,-4.6023,-4.5822,0.0,0.0,0.0,-4.2571,-4.3181,-4.3384,-4.3384,-4.5203,-4.5822,-4.5622,-4.3992,-4.2978,-4.2571,0.0,0.0,0.0,0.0,0.0,0.0,0.0,0.0,0.0,0.0,-2.4232,-2.4466,-2.4759,-2.4949,-2.5052,0.0,0.0,0.0,0.0,0.0,0.0,0.0,0.0,-2.2859,-2.2859,-2.318,-2.3768,-2.4609,-2.4917,-2.5358,-2.5879,-2.5611,-2.5469,-2.5323,-2.5201,-2.552,0.0,0.0,0.0,0.0,0.0,0.0,0.0,0.0,0.0,0.0,-3.4423,-3.6491,0.0,-3.9613,-4.1301,-4.2705,0.0,0.0,0.0,0.0,-3.8839,-3.8201,-3.716,-3.7843,-3.9141,-4.0044,-4.0541,-4.1256,-4.3251,0.0,0.0,0.0,0.0,0.0,0.0,0.0,0.0,0.0,-4.7285,0.0,0.0,0.0,0.0,0.0,0.0,0.0,0.0,0.0,0.0,0.0,0.0,0.0,0.0,-4.4016,-4.4411,-4.5643,-4.641,-4.7816,-4.9825,-4.8823,-4.7618,-4.6822,-4.5622,-4.5019,-4.5019,-4.4009,-4.3587,0.0,0.0,0.0,-4.0363,-4.136,-4.177,-4.1974,-4.2978,-4.3587,-4.3417,-4.2355,-4.1405,-4.0608,0.0,0.0,0.0,0.0,0.0,0.0,0.0,0.0,0.0,0.0,0.0,0.0,0.0,0.0,0.0,0.0,0.0,0.0,0.0,0.0,0.0,0.0,-2.2859,-2.2886,-2.2939,-2.302,-2.3728,-2.5077,-2.5211,-2.5785,-2.6747,-2.6306,-2.5905,-2.5558,-2.5269,-2.5442,-2.5926,0.0,0.0,0.0,0.0,0.0,0.0,0.0,0.0,0.0,0.0,0.0,0.0,-3.6873,-3.8663,-4.0868,-4.1069,0.0,0.0,0.0,0.0,0.0,-3.3903,-3.4955,-3.6988,-3.8661,-3.8399,-3.8575,-4.2167,0.0,0.0,0.0,0.0,0.0,0.0,0.0,0.0,0.0,0.0,0.0,0.0,0.0,0.0,0.0,0.0,0.0,0.0,0.0,0.0,0.0,0.0,0.0,0.0,-4.246,-4.2856,-4.3357,-4.4043,-4.5203,-4.7203,-4.7203,-4.6205,-4.4615,-4.4211,-4.4009,-4.4009,-4.2179,-4.136,-4.1155,0.0,0.0,-3.8737,-4.0965,-4.1565,-4.136,-4.177,-4.1565,-4.1407,-4.1484,-4.0584,-3.9193,0.0,0.0,0.0,0.0,0.0,0.0,0.0,0.0,0.0,0.0,0.0,0.0,0.0,0.0,0.0,0.0,0.0,0.0,0.0,0.0,0.0,-2.2859,-2.2859,-2.2993,-2.3247,-2.3741,-2.4356,-2.5077,-2.5825,-2.6279,-2.6453,-2.6613,-2.64,-2.5865,-2.5429,-2.531,-2.58,-2.6446,0.0,0.0,0.0,0.0,0.0,0.0,0.0,0.0,0.0,0.0,0.0,-3.6254,-3.7944,-3.9617,-3.8856,0.0,0.0,0.0,0.0,0.0,-3.4126,-3.3896,-3.4394,-3.486,-3.6436,-3.7775,0.0,0.0,0.0,0.0,0.0,0.0,0.0,0.0,0.0,0.0,0.0,0.0,0.0,0.0,0.0,0.0,0.0,0.0,0.0,0.0,0.0,0.0,0.0,0.0,0.0,-3.9221,-3.9366,-4.2083,-4.1722,-4.1942,-4.2774,-4.2774,-4.2571,-4.2179,-4.0363,-3.9552,-3.9552,-3.9137,-3.8945,-3.8945,0.0,-3.8543,-3.8737,-4.0965,-4.076,-3.9137,-4.1171,-4.076,-3.8945,-3.8989,-3.881,-3.8854,0.0,0.0,0.0,0.0,0.0,0.0,0.0,0.0,0.0,0.0,0.0,0.0,0.0,0.0,0.0,0.0,0.0,0.0,0.0,0.0,-2.3997,-2.3557,-2.3457,-2.334,-2.3327,-2.3901,-2.4569,-2.5317,-2.6039,-2.6627,-2.7094,-2.6907,-2.6507,-2.5932,-2.5504,-2.5563,-2.5891,-2.6776,-2.7451,-2.7862,0.0,0.0,0.0,0.0,0.0,0.0,0.0,0.0,0.0,0.0,-3.5386,-3.7095,-3.697,0.0,0.0,0.0,0.0,0.0,-3.3396,-3.3466,-3.3773,-3.3919,-3.5054,0.0,0.0,0.0,0.0,0.0,0.0,0.0,0.0,0.0,0.0,0.0,0.0,0.0,0.0,0.0,0.0,0.0,0.0,0.0,0.0,0.0,0.0,0.0,0.0,0.0,0.0,0.0,-3.7939,-3.995,-3.9728,-3.9744,-3.995,-3.995,-3.995,-3.995,-3.8945,-3.8543,-3.8543,-3.8543,-3.8543,-3.8543,0.0,-3.8543,-3.8529,-3.9552,-3.9345,-3.8529,-3.9552,-3.9345,-3.8558,-3.8734,-3.9026,-3.9546,0.0,0.0,0.0,0.0,0.0,0.0,0.0,0.0,0.0,0.0,0.0,0.0,0.0,0.0,0.0,0.0,0.0,0.0,0.0,-2.4384,-2.4136,-2.383,-2.4004,-2.3834,-2.3541,-2.4102,-2.4836,-2.5718,-2.6373,-2.7108,-2.7896,-2.7308,-2.6747,-2.6239,-2.5812,-2.5785,-2.6222,-2.7079,-2.7829,-2.8151,0.0,0.0,0.0,0.0,0.0,0.0,0.0,0.0,0.0,0.0,0.0,0.0,0.0,0.0,0.0,-3.5488,-3.4586,-3.3635,-3.319,-3.3305,-3.3656,-3.3802,0.0,0.0,0.0,0.0,0.0,0.0,0.0,0.0,0.0,0.0,0.0,0.0,0.0,0.0,0.0,0.0,0.0,0.0,0.0,0.0,0.0,0.0,0.0,0.0,0.0,0.0,0.0,0.0,-3.7277,-3.8112,-3.8321,-3.8321,-3.8321,-3.8321,-3.8335,-3.8543,-3.8543,-3.8543,-3.8543,-3.8543,-3.8543,-3.8543,-3.8543,-3.8543,-3.8543,-3.8543,-3.8543,-3.8543,-3.8543,-3.8543,-3.8573,-3.8821,-3.9231,-3.987,0.0,0.0,0.0,0.0,0.0,0.0,0.0,0.0,0.0,0.0,0.0,0.0,0.0,0.0,0.0,0.0,0.0,0.0,0.0,-2.397,-2.3721,-2.342,-2.4098,-2.4436,-2.4142,-2.4716,-2.5451,-2.6333,-2.7188,-2.7923,-2.8524,-2.7923,-2.7468,-2.7134,-2.6293,-2.6092,-2.636,-2.686,-2.7513,-2.8151,-2.8945,0.0,0.0,0.0,0.0,0.0,0.0,0.0,0.0,0.0,0.0,0.0,0.0,0.0,-3.5272,-3.3858,-3.4256,-3.4999,-3.3856,-3.348,-3.3422,-3.4036,0.0,0.0,0.0,0.0,0.0,0.0,0.0,0.0,0.0,0.0,0.0,0.0,0.0,0.0,0.0,0.0,0.0,0.0,0.0,0.0,0.0,0.0,0.0,0.0,0.0,0.0,0.0,0.0,0.0,-3.7068,-3.7486,-3.7695,-3.7695,-3.7695,-3.7904,-3.8543,-3.8543,-3.8543,-3.8543,-3.8543,-3.8543,-3.8543,-3.8543,-3.8543,-3.8543,-3.8543,-3.8543,-3.8543,-3.8543,-3.8543,-3.8543,-3.8573,-3.8602,-3.869,0.0,0.0,0.0,0.0,0.0,0.0,0.0,0.0,0.0,0.0,0.0,-2.5052,-2.5052,0.0,0.0,0.0,0.0,0.0,0.0,-2.4414,-2.4274,-2.397,-2.4843,-2.5148,-2.4756,-2.5504,-2.6319,-2.7201,-2.7909,-2.847,-2.8858,-2.7883,-2.7539,-2.7568,-2.6692,-2.6652,-2.7418,-2.7592,-2.8029,-2.8662,-2.9049,-2.9646,0.0,0.0,0.0,0.0,0.0,0.0,0.0,0.0,-3.1783,-3.2032,-3.2368,-3.3115,-3.3616,-3.2837,-3.3219,-3.3646,-3.2999,-3.3173,0.0,0.0,0.0,0.0,0.0,0.0,0.0,0.0,0.0,0.0,0.0,0.0,0.0,0.0,0.0,0.0,0.0,0.0,0.0,0.0,0.0,0.0,0.0,0.0,0.0,0.0,0.0,0.0,0.0,0.0,0.0,-3.6859,-3.7486,-3.7695,-3.7695,-3.7695,-3.7904,-3.8543,-3.8543,-3.8543,-3.8543,-3.8543,-3.8543,-3.8543,-3.8543,-3.8543,-3.8543,-3.8543,-3.8543,-3.8543,-3.8543,-3.8543,-3.8543,-3.8543,-3.866,-3.8865,0.0,0.0,0.0,0.0,0.0,0.0,0.0,0.0,-2.5052,0.0,0.0,0.0,0.0,-2.5052,0.0,0.0,0.0,0.0,-2.4495,-2.4581,-2.4484,-2.4289,-2.507,-2.5459,-2.5211,-2.6235,-2.7069,-2.7696,-2.8404,-2.8751,-2.8738,-2.7923,-2.7606,-2.7744,-2.7001,-2.7109,-2.7894,-2.8071,-2.8359,-2.8824,-2.916,-2.9663,0.0,0.0,0.0,0.0,0.0,0.0,0.0,0.0,-3.1724,-3.1724,-3.2149,-3.2441,-3.2559,-3.2222,-3.2573,-3.3027,-3.2807,-3.3232,0.0,0.0,0.0,0.0,0.0,0.0,0.0,0.0,0.0,0.0,0.0,0.0,0.0,0.0,0.0,0.0,0.0,0.0,0.0,0.0,0.0,0.0,0.0,0.0,0.0,0.0,0.0,0.0,0.0,0.0,0.0,0.0,-3.7068,-3.7486,-3.7486,-3.7695,-3.7904,-3.8543,-3.8543,-3.8543,-3.8543,-3.8543,-3.8543,-3.8543,-3.8543,-3.8543,-3.8543,-3.8543,-3.8543,-3.8543,-3.8543,-3.8543,-3.8543,-3.8543,-3.8675,-3.888,0.0,0.0,0.0,0.0,0.0,0.0,0.0,-2.5052,-2.5052,-2.5052,-2.5052,0.0,0.0,0.0,0.0,0.0,-2.4781,0.0,-2.4495,-2.4108,-2.3858,-2.3858,-2.4747,-2.5364,-2.5491,-2.6689,-2.7446,-2.7709,-2.8591,-2.8724,-2.8136,-2.8136,-2.7816,-2.7268,-2.7268,-2.7428,-2.7696,-2.8207,-2.855,-2.8824,-2.8824,-2.9328,-3.0179,0.0,0.0,0.0,0.0,0.0,0.0,0.0,-3.1578,-3.1432,-3.2076,-3.228,-3.2222,-3.19,-3.2705,-3.3715,-3.3715,0.0,0.0,0.0,0.0,0.0,0.0,0.0,0.0,0.0,0.0,0.0,0.0,0.0,0.0,0.0,0.0,0.0,0.0,0.0,0.0,0.0,0.0,0.0,0.0,0.0,0.0,0.0,0.0,0.0,0.0,0.0,0.0,0.0,-3.6229,-3.6859,-3.6859,-3.7486,-3.7904,-3.8543,-3.8543,-3.8543,-3.8543,-3.8543,-3.8543,-3.8543,-3.8543,-3.8543,-3.8543,-3.8543,-3.8543,-3.8543,-3.8543,-3.8543,-3.8543,-3.8543,-3.8543,-3.8587,0.0,0.0,0.0,0.0,0.0,0.0,-2.5052,-2.5052,-2.5052,-2.5052,-2.5052,0.0,0.0,0.0,0.0,0.0,0.0,0.0,-2.4495,-2.4384,-2.4233,-2.4186,-2.4856,-2.5255,-2.5197,-2.6423,-2.7485,-2.8337,-2.839,-2.8323,-2.8136,-2.7722,-2.7485,-2.7459,0.0,-2.7485,-2.7907,-2.7946,-2.8036,-2.8332,-2.8547,-2.8846,-2.9187,0.0,0.0,0.0,0.0,0.0,0.0,0.0,0.0,0.0,-3.1885,-3.2251,-3.2515,-3.1959,-3.2398,-3.2954,-3.25,0.0,0.0,0.0,0.0,0.0,0.0,0.0,0.0,0.0,0.0,0.0,0.0,0.0,0.0,0.0,0.0,0.0,0.0,0.0,0.0,0.0,0.0,0.0,0.0,0.0,0.0,0.0,0.0,0.0,0.0,0.0,0.0,0.0,-3.5823,-3.6453,-3.6859,-3.7068,-3.7695,-3.8543,-3.8543,-3.8543,-3.8543,-3.8543,-3.8543,-3.8543,-3.8543,-3.8543,-3.8543,-3.8543,-3.8543,-3.8543,-3.8543,-3.8543,-3.8543,-3.8543,-3.869,-3.8865,0.0,0.0,0.0,0.0,0.0,0.0,-2.5052,-2.5052,-2.5052,-2.5052,-2.5052,-2.5052,0.0,0.0,0.0,-2.5052,-2.5052,-2.4916,-2.4495,-2.4408,-2.4289,-2.4309,-2.4788,-2.5404,-2.5891,-2.64,-2.7228,-2.807,-2.8003,-2.7843,-2.7615,-2.7615,-2.762,-2.7527,0.0,-2.8009,-2.7973,-2.8103,-2.803,-2.8003,-2.843,-2.8771,-2.8851,0.0,0.0,0.0,0.0,0.0,0.0,0.0,0.0,0.0,-3.1266,-3.1786,-3.2339,-3.2076,-3.2544,-3.3129,0.0,0.0,0.0,0.0,0.0,0.0,0.0,0.0,0.0,0.0,0.0,0.0,0.0,0.0,0.0,0.0,0.0,0.0,0.0,0.0,0.0,0.0,0.0,0.0,0.0,0.0,0.0,0.0,0.0,0.0,0.0,0.0,0.0,0.0,-3.5401,-3.6033,-3.6859,-3.6859,-3.7486,-3.8543,-3.8543,-3.8543,-3.8543,-3.8543,-3.8543,-3.8543,-3.8543,-3.8543,-3.8543,-3.8543,-3.8543,-3.8543,-3.8543,-3.8543,-3.8543,-3.8543,-3.8748,-3.8997,0.0,0.0,0.0,0.0,0.0,-2.5052,-2.5052,-2.5052,-2.5052,-2.5052,-2.5052,-2.5052,0.0,0.0,0.0,-2.5052,-2.5052,-2.4916,-2.4495,-2.4238,-2.4108,-2.4309,-2.4665,-2.5513,-2.6949,-2.6773,-2.6894,-2.7188,-2.7482,-2.7348,-2.6841,-2.7669,-2.7923,-2.7696,0.0,-2.8617,-2.8123,-2.8377,-2.8177,-2.7749,-2.8337,-2.856,-2.8851,-2.9166,0.0,0.0,0.0,0.0,0.0,0.0,0.0,0.0,-3.0651,-3.1237,-3.1929,-3.2134,-3.291,0.0,0.0,0.0,0.0,0.0,0.0,0.0,0.0,0.0,0.0,0.0,0.0,0.0,0.0,0.0,0.0,0.0,0.0,0.0,0.0,0.0,0.0,0.0,0.0,0.0,0.0,0.0,0.0,0.0,0.0,0.0,0.0,0.0,0.0,-3.5191,-3.5191,-3.5823,-3.6859,-3.6859,-3.7486,-3.8543,-3.8543,-3.8543,-3.8543,-3.8543,-3.8543,-3.8543,-3.8543,-3.8543,-3.8543,-3.8543,-3.8543,-3.8543,-3.8543,-3.8543,-3.8543,-3.8543,-3.8763,-3.907,0.0,0.0,0.0,0.0,0.0,0.0,-2.5052,-2.5052,-2.5052,-2.5052,-2.5052,-2.5052,-2.5052,-2.5052,0.0,-2.5052,-2.5052,-2.4916,-2.4495,-2.4238,-2.4108,-2.4309,-2.4782,-2.5402,-2.6195,-2.6262,-2.6279,-2.6573,-2.6867,-2.6947,-2.6827,-2.7255,-2.7415,-2.7375,-2.7802,-2.7923,-2.7789,-2.7615,-2.7615,-2.7736,-2.8096,-2.8372,-2.8345,-2.8654,-2.8587,0.0,0.0,0.0,0.0,0.0,0.0,0.0,-3.0624,-3.1195,-3.1901,-3.1553,0.0,0.0,0.0,0.0,0.0,0.0,0.0,0.0,0.0,0.0,0.0,0.0,0.0,0.0,0.0,0.0,0.0,0.0,0.0,0.0,0.0,0.0,0.0,0.0,0.0,0.0,0.0,0.0,0.0,0.0,0.0,0.0,0.0,0.0,0.0,-3.5823,-3.5401,-3.6033,-3.7486,-3.7068,-3.7486,0.0,-3.8543,-3.8543,-3.8543,-3.8543,-3.8543,-3.8543,-3.8543,-3.8543,-3.8543,-3.8543,-3.8543,-3.8543,-3.8543,-3.8543,-3.8543,-3.8543,-3.8909,-3.9363,0.0,0.0,0.0,0.0,0.0,0.0,0.0,0.0,-2.5052,-2.5052,-2.5052,-2.5052,-2.5052,-2.5052,0.0,0.0,-2.5052,-2.5052,-2.4781,-2.451,-2.4372,-2.472,-2.4905,-2.5358,-2.5945,-2.5959,-2.5959,-2.5972,-2.6266,-2.648,0.0,0.0,0.0,-2.7495,-2.7936,-2.7976,-2.7682,-2.7535,-2.7482,-2.7535,-2.7963,-2.8056,-2.7976,-2.843,-2.8323,-2.7949,-2.8601,0.0,0.0,0.0,0.0,0.0,0.0,0.0,-3.1568,0.0,0.0,0.0,0.0,0.0,0.0,0.0,0.0,0.0,0.0,0.0,0.0,0.0,0.0,0.0,0.0,0.0,0.0,0.0,0.0,0.0,0.0,0.0,0.0,0.0,0.0,0.0,0.0,0.0,0.0,0.0,0.0,0.0,0.0,-3.5401,-3.5401,-3.5612,-3.5415,-3.5823,-3.7277,-3.7068,-3.7486,-3.8543,-3.8543,-3.8543,-3.8543,-3.8543,-3.8543,-3.8543,-3.8543,-3.8543,-3.8543,-3.8543,-3.8543,-3.8543,-3.8543,-3.8543,-3.8543,-3.8543,-3.8851,-3.926,0.0,0.0,0.0,0.0,0.0,0.0,0.0,0.0,0.0,-2.5052,-2.5052,-2.5052,-2.5052,-2.5052,-2.5052,0.0,0.0,0.0,-2.5052,-2.4746,-2.4735,-2.4956,-2.5052,-2.5331,-2.5865,-2.5879,-2.5758,-2.5518,-2.5812,0.0,0.0,0.0,0.0,-2.7642,-2.815,-2.8096,-2.7615,-2.7522,-2.7362,-2.7228,-2.7722,-2.7802,-2.7682,-2.8243,-2.8136,-2.7736,-2.8379,-2.8514,-2.8426,-2.8955,0.0,0.0,0.0,0.0,0.0,0.0,0.0,0.0,0.0,0.0,0.0,0.0,0.0,0.0,0.0,0.0,0.0,0.0,0.0,0.0,0.0,0.0,0.0,0.0,0.0,0.0,0.0,0.0,0.0,0.0,0.0,0.0,0.0,0.0,0.0,0.0,0.0,0.0,-3.5191,-3.5191,-3.5401,-3.5401,-3.5401,-3.5823,-3.7068,-3.6859,-3.7486,-3.8543,-3.8543,-3.8543,-3.8543,-3.8543,-3.8543,-3.8543,-3.8543,-3.8543,-3.8543,-3.8543,-3.8543,-3.8543,-3.8543,-3.8543,-3.8543,-3.8543,-3.8748,-3.9026,0.0,0.0,0.0,0.0,0.0,0.0,0.0,0.0,0.0,0.0,-2.5052,-2.5052,-2.5052,-2.5052,-2.5052,-2.5052,-2.5052,-2.5052,-2.5052,0.0,0.0,-2.4394,-2.4783,-2.5237,-2.5558,-2.5571,-2.5558,-2.5518,-2.5812,0.0,0.0,0.0,0.0,-2.7321,0.0,0.0,-2.7295,-2.6774,-2.668,-2.6894,-2.6961,-2.7121,-2.7362,-2.7696,-2.7762,-2.7736,-2.8197,-2.831,-2.8511,-2.8453,-2.8896,0.0,0.0,0.0,0.0,0.0,0.0,0.0,0.0,0.0,0.0,0.0,0.0,0.0,0.0,0.0,0.0,0.0,0.0,0.0,0.0,0.0,0.0,0.0,0.0,0.0,0.0,0.0,0.0,0.0,0.0,0.0,0.0,0.0,0.0,0.0,0.0,0.0,-3.5191,-3.5612,-3.5823,-3.5823,-3.5823,-3.6453,-3.7486,-3.7068,-3.7486,-3.8543,-3.8543,-3.8543,-3.8543,-3.8543,-3.8543,-3.8543,-3.8543,-3.8543,-3.8543,-3.8543,-3.8543,-3.8543,-3.8543,-3.8543,-3.8543,-3.8543,-3.8748,-3.907,0.0,0.0,0.0,0.0,0.0,0.0,0.0,0.0,0.0,0.0,0.0,-2.5052,-2.5052,-2.5052,-2.5052,-2.5052,-2.4916,-2.4781,-2.4781,-2.4649,-2.4693,-2.4761,-2.5051,-2.512,-2.5264,-2.5277,-2.5184,-2.5024,0.0,0.0,0.0,-2.6747,-2.7188,0.0,0.0,0.0,0.0,0.0,0.0,-2.6827,-2.6827,-2.7295,-2.7989,-2.7776,-2.8016,-2.843,-2.8217,0.0,0.0,0.0,0.0,0.0,0.0,0.0,0.0,0.0,0.0,0.0,0.0,0.0,0.0,0.0,0.0,0.0,0.0,0.0,0.0,0.0,0.0,0.0,0.0,0.0,0.0,0.0,0.0,0.0,0.0,0.0,0.0,0.0,0.0,0.0,0.0,0.0,0.0,0.0,0.0,-3.6033,-3.5612,-3.6243,-3.6243,-3.5612,-3.5823,-3.6453,-3.7277,-3.7068,-3.7486,-3.8543,-3.8543,-3.8543,-3.8543,-3.8543,-3.8543,-3.8543,-3.8543,-3.8543,-3.8543,-3.8543,-3.8543,-3.8543,-3.8543,-3.8543,-3.8543,-3.8543,-3.8748,-3.907,0.0,0.0,0.0,0.0,0.0,0.0,0.0,0.0,0.0,0.0,0.0,-2.5096,-2.5169,0.0,0.0,0.0,-2.5013,-2.4739,-2.4602,-2.4484,-2.472,-2.5194,-2.5062,-2.5039,-2.4957,-2.497,-2.4863,-2.4636,0.0,0.0,-2.6079,-2.6667,-2.7295,0.0,-2.7535,0.0,0.0,0.0,0.0,-2.6841,-2.7068,-2.7696,-2.8484,-2.8404,-2.8791,-2.9299,-2.8698,0.0,0.0,0.0,0.0,0.0,-2.9271,-2.9852,0.0,0.0,0.0,0.0,0.0,0.0,0.0,0.0,0.0,0.0,0.0,0.0,0.0,0.0,0.0,0.0,0.0,0.0,0.0,0.0,0.0,0.0,0.0,0.0,0.0,0.0,0.0,0.0,0.0,0.0,0.0,0.0,0.0,-3.6649,-3.6033,-3.6649,-3.6649,-3.5401,-3.6033,-3.6453,-3.7068,-3.7277,-3.7695,-3.8543,-3.8543,-3.8543,-3.8543,-3.8543,-3.8543,-3.8543,-3.8543,-3.8543,-3.8543,-3.8543,-3.8543,-3.8543,-3.8631,-3.8617,-3.8558,-3.8719,-3.8939,-3.9202,0.0,0.0,0.0,0.0,0.0,0.0,0.0,0.0,0.0,0.0,0.0,-2.5169,-2.5476,-2.5505,-2.5622,-2.5944,-2.5538,-2.5257,-2.4834,-2.4699,-2.4733,-2.4761,-2.4769,0.0,-2.4663,-2.4663,-2.4649,0.0,0.0,0.0,-2.6373,-2.6961,-2.7709,-2.8537,-2.7936,-2.7682,-2.7642,0.0,0.0,0.0,-2.7736,-2.811,-2.831,-2.97,0.0,0.0,0.0,0.0,0.0,0.0,0.0,-2.8631,-2.8631,-2.9379,-3.0192,0.0,0.0,0.0,0.0,0.0,0.0,0.0,0.0,0.0,0.0,0.0,0.0,0.0,0.0,0.0,0.0,0.0,0.0,0.0,0.0,0.0,0.0,0.0,0.0,0.0,0.0,0.0,0.0,0.0,0.0,0.0,0.0,-3.6649,-3.6033,-3.7068,-3.7068,-3.6033,-3.6439,-3.7068,-3.7695,-3.8112,-3.8543,-3.8543,-3.8543,-3.8543,-3.8543,-3.8543,-3.8543,-3.8543,-3.8543,-3.8543,-3.8543,-3.8543,-3.8543,-3.8573,-3.888,-3.8807,-3.8617,-3.9231,-3.9465,-3.9538,0.0,0.0,0.0,0.0,0.0,0.0,0.0,0.0,0.0,0.0,0.0,0.0,0.0,-2.5842,-2.5886,-2.6003,-2.5736,-2.5299,-2.4876,-2.5027,-2.5063,-2.4774,-2.4915,-2.4931,-2.4636,-2.4636,0.0,0.0,0.0,-2.5344,-2.6119,-2.652,-2.7281,-2.8297,-2.7883,-2.7802,-2.7949,-2.7362,0.0,0.0,0.0,0.0,0.0,0.0,0.0,0.0,0.0,0.0,0.0,0.0,0.0,-2.8604,-2.8604,-2.9044,-2.9407,-2.9771,-2.9907,0.0,0.0,0.0,0.0,0.0,0.0,0.0,0.0,0.0,0.0,0.0,0.0,0.0,0.0,0.0,0.0,0.0,0.0,0.0,0.0,0.0,0.0,0.0,0.0,0.0,0.0,0.0,0.0,0.0,0.0,0.0,-3.7068,-3.7695,-3.7695,-3.6649,-3.6859,-3.7068,-3.7277,-3.8112,-3.8543,-3.8543,-3.8543,-3.8543,-3.8543,-3.8543,-3.8543,-3.8543,-3.8543,-3.8543,-3.8543,-3.8543,-3.866,-3.8865,-3.8982,-3.9085,-3.9217,-3.9656,-3.9831,-3.9904,0.0,0.0,0.0,0.0,0.0,0.0,0.0,0.0,0.0,0.0,0.0,0.0,0.0,0.0,-2.6081,-2.5898,-2.5627,-2.5341,-2.5054,-2.5091,-2.507,-2.4925,-2.4983,-2.4931,-2.4636,-2.4636,0.0,0.0,0.0,0.0,0.0,0.0,-2.6907,-2.7843,-2.7749,0.0,0.0,0.0,0.0,-2.7495,0.0,0.0,-2.9967,0.0,0.0,0.0,0.0,0.0,0.0,0.0,0.0,-2.9005,-2.8818,-2.8818,-2.8951,-2.9245,-2.9406,-2.9593,-3.0074,0.0,0.0,0.0,0.0,0.0,0.0,0.0,0.0,0.0,0.0,0.0,0.0,0.0,0.0,0.0,0.0,0.0,0.0,0.0,0.0,0.0,0.0,0.0,0.0,0.0,0.0,0.0,0.0,0.0,-3.7695,-3.8112,-3.7904,-3.6859,-3.7277,-3.7277,-3.6859,-3.7904,-3.8543,-3.8543,-3.8543,-3.8543,-3.8543,-3.8543,-3.8543,-3.8543,-3.8543,-3.8543,-3.8543,-3.866,-3.8836,-3.9041,-3.926,-3.948,-3.9714,-4.0036,-4.0226,-4.0387,0.0,0.0,0.0,0.0,0.0,0.0,0.0,0.0,0.0,0.0,0.0,0.0,0.0,0.0,0.0,-2.5918,-2.552,-2.5226,-2.5226,-2.4784,-2.4784,-2.5226,-2.4784,-2.4636,-2.4636,-2.4636,0.0,0.0,0.0,0.0,0.0,0.0,-2.668,0.0,-2.7549,-2.8016,-2.8577,0.0,0.0,-2.7883,0.0,-2.9833,-2.9312,0.0,0.0,0.0,-3.0929,-3.0808,0.0,0.0,0.0,0.0,-2.9205,-2.8831,-2.8644,-2.8951,-2.9245,-2.9539,0.0,0.0,0.0,0.0,0.0,0.0,0.0,0.0,0.0,0.0,0.0,0.0,0.0,0.0,0.0,0.0,0.0,0.0,0.0,0.0,0.0,0.0,0.0,0.0,0.0,0.0,0.0,0.0,0.0,-3.8335,-3.7695,-3.8127,-3.7904,-3.6859,-3.7904,-3.7904,-3.6859,-3.7904,-3.8543,-3.8543,-3.8543,-3.8543,-3.8543,-3.8543,-3.8543,-3.8558,-3.8558,-3.8558,-3.8587,-3.8895,-3.9041,-3.9114,-3.9758,-4.0007,-4.0051,-4.0387,-4.0694,-4.0973,0.0,0.0,0.0,0.0,0.0,-2.6111,-2.5965,-2.6185,-2.6272,0.0,0.0,0.0,0.0,0.0,0.0,-2.6239,-2.58,-2.5653,-2.5653,-2.5226,-2.4931,-2.4784,-2.4636,-2.4636,-2.4636,-2.4636,-2.4636,0.0,0.0,0.0,0.0,0.0,0.0,0.0,-2.7161,-2.7589,-2.7963,-2.8177,0.0,0.0,0.0,-2.9953,0.0,0.0,0.0,0.0,0.0,-3.133,0.0,0.0,-3.0127,-2.9499,0.0,-2.8524,-2.8377,-2.8885,-2.9098,-2.9272,-2.978,0.0,0.0,0.0,0.0,0.0,0.0,0.0,0.0,0.0,0.0,0.0,0.0,0.0,0.0,0.0,0.0,0.0,0.0,0.0,0.0,0.0,0.0,0.0,0.0,0.0,0.0,0.0,-3.8543,-3.8543,-3.8335,-3.8335,-3.7904,-3.6859,-3.7904,-3.7904,-3.6859,-3.7904,-3.8543,-3.8543,-3.8543,-3.8543,-3.8543,-3.8543,-3.866,-3.8895,-3.8895,-3.9026,-3.9231,-3.9085,-3.9304,-3.9743,-3.9934,-4.0138,-4.0402,-4.0973,-4.109,-4.106,0.0,0.0,-2.5359,-2.5506,-2.5912,-2.6101,-2.6121,-2.6353,-2.6543,0.0,0.0,0.0,0.0,0.0,0.0,-2.6399,-2.5946,-2.552,-2.552,-2.5226,-2.4784,-2.4636,-2.4636,-2.4636,-2.4636,-2.4636,-2.4636,0.0,0.0,0.0,0.0,0.0,0.0,0.0,0.0,0.0,0.0,0.0,0.0,0.0,-2.9513,0.0,0.0,-3.1169,-3.1436,0.0,0.0,0.0,-3.0835,-3.1076,-3.0581,0.0,0.0,0.0,0.0,-2.8791,-2.9032,-2.9299,-2.9646,-2.982,-2.9993,0.0,0.0,0.0,0.0,0.0,0.0,0.0,0.0,0.0,0.0,0.0,0.0,0.0,0.0,0.0,0.0,0.0,0.0,0.0,0.0,0.0,0.0,0.0,0.0,-3.8543,-3.8543,-3.8543,-3.8543,-3.8543,-3.8112,-3.7277,-3.8112,-3.8112,-3.7277,-3.8112,-3.8543,-3.8543,-3.8543,-3.8543,-3.8543,-3.8543,-3.8719,-3.9026,-3.9026,-3.929,-3.9699,-3.9509,-3.9656,-4.0007,-4.0153,-4.0402,-4.0724,-4.1119,-4.1207,-4.1251,0.0,-2.4784,-2.4945,-2.5281,-2.5662,-2.5907,-2.6396,-2.67,-2.692,0.0,0.0,0.0,0.0,0.0,0.0,0.0,-2.5681,-2.5226,-2.5226,-2.4931,-2.4636,-2.4636,-2.4636,-2.4636,-2.4636,-2.4636,-2.4636,0.0,0.0,0.0,0.0,0.0,0.0,0.0,-2.6199,-2.6707,-2.6814,0.0,0.0,-2.8751,-2.9833,-3.0007,0.0,0.0,-3.0969,0.0,-3.1169,-3.1209,-3.1062,-3.1517,0.0,0.0,0.0,0.0,0.0,0.0,-2.9125,-2.9579,-2.9539,-2.974,-3.0034,0.0,0.0,0.0,0.0,0.0,0.0,0.0,0.0,0.0,0.0,0.0,0.0,0.0,0.0,0.0,0.0,0.0,0.0,0.0,0.0,0.0,0.0,-3.8368,-3.8543,-3.8543,-3.8543,-3.8543,-3.8543,-3.8543,-3.8321,-3.7695,-3.8112,-3.8335,-3.7695,-3.8321,-3.8543,-3.8543,-3.8543,-3.8543,-3.8543,-3.8543,-3.8734,-3.9085,-3.9085,-3.9451,-4.0051,-4.0051,-4.0051,-4.008,-4.0402,-4.0694,-4.0929,-4.1016,-4.1177,-4.1441,-2.5506,-2.5506,-2.5736,-2.6432,-2.668,-2.6631,-2.6664,-2.6837,-2.6944,-2.728,0.0,0.0,0.0,0.0,0.0,-2.6786,-2.6101,-2.5653,-2.5653,-2.5373,-2.4931,-2.4636,-2.4636,-2.4636,-2.4636,-2.4636,-2.4636,-2.4636,0.0,0.0,0.0,0.0,0.0,0.0,0.0,-2.6026,-2.6507,0.0,0.0,-2.8991,-2.9459,0.0,0.0,-3.1316,-3.165,-3.181,-3.2158,-3.2251,-3.2144,0.0,-3.1396,-3.0929,0.0,0.0,0.0,0.0,0.0,0.0,0.0,0.0,0.0,0.0,0.0,0.0,0.0,0.0,0.0,0.0,0.0,0.0,0.0,0.0,0.0,0.0,0.0,0.0,0.0,0.0,0.0,0.0,0.0,0.0,0.0,-3.85,-3.8543,-3.8543,-3.8543,-3.8543,-3.8543,-3.8543,-3.8321,-3.7695,-3.8112,-3.8335,-3.7695,-3.8321,-3.8543,-3.8543,-3.8543,-3.8543,-3.8543,-3.8543,-3.8865,-3.9421,-3.9421,-3.9787,-4.0387,-4.0387,-4.0387,-4.0402,-4.0768,-4.0768,-4.0651,-4.1163,-4.1251,-4.1133,-2.5373,-2.552,-2.575,-2.6517,-2.6552,-2.6556,-2.6696,-2.6875,-2.7179,-2.7344,0.0,0.0,0.0,0.0,0.0,-2.7415,-2.6815,-2.6333,-2.6024,-2.5456,-2.5079,-2.4636,-2.4636,-2.4636,-2.4636,-2.4636,-2.4636,-2.4636,0.0,0.0,0.0,0.0,0.0,0.0,0.0,0.0,0.0,0.0,-2.7776,-2.8671,-2.9566,0.0,-3.1289,-3.1877,-3.2198,-3.2345,-3.2492,-3.2545,-3.2452,-3.1864,-3.157,0.0,0.0,-3.0768,-3.0862,0.0,-3.0234,-3.0488,0.0,0.0,0.0,-3.0327,0.0,0.0,0.0,0.0,0.0,0.0,0.0,0.0,0.0,0.0,0.0,0.0,0.0,0.0,0.0,0.0,0.0,0.0,0.0,0.0,0.0,-3.8778,-3.8778,-3.8778,-3.8631,-3.8543,-3.8543,-3.8543,-3.8335,-3.8112,-3.8321,-3.8335,-3.8112,-3.8335,-3.8543,-3.8543,-3.8543,-3.8543,-3.8543,-3.8543,-3.8895,-3.9509,-3.9509,-3.9875,-4.049,-4.049,-4.049,-4.049,-4.0651,-4.0651,-4.0563,-4.1207,-4.1324,-4.1294,-2.5226,-2.5373,-2.5631,-2.6439,-2.657,-2.6613,-2.703,-2.7367,-2.7423,-2.7545,0.0,0.0,0.0,0.0,0.0,0.0,-2.7481,-2.6815,-2.6444,-2.5717,-2.531,-2.497,-2.4756,-2.4716,-2.489,-2.473,-2.4636,-2.4636,0.0,0.0,0.0,0.0,0.0,0.0,0.0,0.0,0.0,0.0,0.0,-2.8511,0.0,-3.0755,-3.141,-3.2104,-3.2412,-3.2478,-3.2652,-3.2679,-3.2545,-3.1944,0.0,-3.1757,-3.1289,-3.1289,0.0,0.0,0.0,0.0,0.0,0.0,0.0,0.0,0.0,-3.0782,0.0,0.0,0.0,0.0,0.0,0.0,0.0,0.0,0.0,0.0,0.0,0.0,0.0,0.0,0.0,0.0,0.0,0.0,0.0,-3.8924,-3.8982,-3.9114,-3.8704,-3.85,-3.8617,-3.8573,-3.8543,-3.8543,-3.8543,-3.8543,-3.8543,-3.8543,-3.8543,-3.8543,-3.8543,-3.8543,-3.8543,-3.8602,-3.8953,-3.9509,-3.9582,-3.9948,-4.049,-4.049,-4.049,-4.049,-4.0607,-4.0607,-4.0563,-4.1207,-4.1368,-4.1324,-2.5653,-2.58,-2.6129,-2.7488,-2.7769,-2.7987,-2.854,-2.8424,-2.8212,-2.8132,-2.9254,0.0,0.0,0.0,0.0,0.0,0.0,0.0,-2.6484,-2.6197,-2.6112,-2.6172,-2.5197,-2.4997,-2.5785,-2.5037,-2.4636,-2.4636,0.0,0.0,0.0,0.0,0.0,0.0,-2.6547,0.0,0.0,0.0,-2.8791,0.0,-3.0087,-3.0261,0.0,-3.1343,-3.1931,-3.2251,-3.304,-3.3146,-3.2839,0.0,-3.2225,-3.2251,0.0,-3.1557,0.0,0.0,0.0,0.0,0.0,0.0,0.0,0.0,-3.1129,0.0,0.0,0.0,0.0,0.0,0.0,0.0,0.0,0.0,0.0,0.0,0.0,0.0,0.0,0.0,0.0,0.0,0.0,0.0,0.0,0.0,-3.8836,-3.9421,-3.8631,-3.8368,-3.8939,-3.869,-3.8543,-3.8543,-3.8543,-3.8543,-3.8543,-3.8543,-3.8543,-3.8543,-3.8543,-3.8543,-3.8543,-3.8836,-3.9173,-3.9524,-3.9816,-4.0153,-4.049,-4.049,-4.049,-4.0534,-4.1119,-4.1002,-4.0563,-4.1207,-4.109,-4.0651,-2.5653,-2.5946,-2.6381,-2.7136,-2.7517,-2.764,-2.7931,-2.8033,-2.8303,-2.8776,-2.9338,0.0,0.0,0.0,0.0,0.0,0.0,0.0,0.0,0.0,-2.6452,-2.5879,-2.5251,-2.5064,-2.5438,-2.4917,-2.4636,-2.4636,-2.4636,0.0,0.0,0.0,0.0,0.0,-2.6987,0.0,-2.8217,0.0,0.0,0.0,0.0,0.0,0.0,-3.1784,-3.2612,-3.2906,-3.328,-3.3334,-3.316,0.0,-3.2585,0.0,0.0,0.0,0.0,0.0,0.0,0.0,0.0,0.0,0.0,0.0,0.0,0.0,0.0,0.0,-3.1704,0.0,0.0,0.0,0.0,0.0,0.0,0.0,0.0,0.0,0.0,0.0,0.0,0.0,0.0,0.0,0.0,0.0,0.0,0.0,0.0,-3.8339,-3.8982,-3.8719,-3.8543,-3.8543,-3.8543,-3.8631,-3.8821,-3.8631,-3.8631,-3.8821,-3.8631,-3.8631,-3.8821,-3.8968,-3.9304,-3.9802,-3.9934,-4.0182,-4.049,-4.049,-4.049,-4.0519,-4.1002,-4.0885,-4.0534,-4.1002,-4.1002,-4.0812,-2.5631,-2.587,-2.6234,-2.6929,-2.7187,-2.7473,-2.7551,-2.8146,-2.8669,0.0,0.0,0.0,-2.9731,-2.9618,0.0,0.0,0.0,-2.8551,0.0,0.0,-2.6986,-2.6493,0.0,0.0,0.0,-2.5077,-2.4716,-2.4636,-2.4636,0.0,0.0,0.0,0.0,0.0,0.0,-2.811,-2.9125,0.0,0.0,-2.9245,-2.9753,-3.0274,-3.0902,-3.2318,-3.3093,-3.3414,-3.3414,-3.3414,-3.336,-3.2986,-3.2772,0.0,-3.2719,0.0,0.0,0.0,0.0,0.0,-3.1289,0.0,0.0,0.0,0.0,0.0,0.0,0.0,0.0,0.0,0.0,0.0,0.0,0.0,0.0,0.0,0.0,0.0,0.0,0.0,0.0,0.0,0.0,0.0,0.0,0.0,0.0,0.0,0.0,0.0,-3.9114,-3.8851,-3.8631,-3.8543,-3.8543,-3.869,-3.9026,-3.8704,-3.8704,-3.9026,-3.869,-3.8704,-3.9026,-3.9114,-3.9465,-4.0007,-4.0095,-4.027,-4.049,-4.049,-4.049,-4.0519,-4.0738,-4.0694,-4.0519,-4.0855,-4.0929,-4.0885,-2.5677,-2.5431,-2.5714,-2.7065,-2.733,-2.7697,-2.8628,-2.9427,0.0,0.0,0.0,0.0,0.0,0.0,0.0,0.0,0.0,-2.9165,-2.8591,0.0,-2.8043,0.0,0.0,0.0,0.0,0.0,-2.493,-2.4636,-2.4636,-2.4783,0.0,0.0,0.0,0.0,0.0,-2.8136,-2.8257,-2.9406,-3.0207,-3.0755,-3.1049,-3.1864,-3.2853,0.0,-3.2919,-3.3414,-3.3414,0.0,0.0,-3.2746,-3.2746,0.0,0.0,0.0,0.0,0.0,0.0,0.0,0.0,0.0,0.0,-3.1664,0.0,0.0,0.0,0.0,-3.2011,0.0,0.0,0.0,0.0,0.0,0.0,0.0,0.0,0.0,0.0,0.0,0.0,0.0,0.0,0.0,0.0,0.0,0.0,0.0,0.0,0.0,-3.9421,-3.9187,-3.8865,-3.8543,-3.8543,-3.869,-3.9026,-3.8704,-3.8704,-3.9026,-3.869,-3.8704,-3.9041,-3.9348,-3.9685,-4.0021,-4.0329,-4.049,-4.049,-4.049,-4.049,-4.049,-4.049,-4.049,-4.0519,-4.0855,-4.0768,-4.049,-2.6309,-2.6047,-2.5688,-2.5894,-2.6458,-2.731,0.0,-2.8933,0.0,0.0,0.0,0.0,0.0,0.0,-3.0506,0.0,0.0,-2.99,-2.9499,-2.8911,0.0,0.0,0.0,-2.6466,0.0,0.0,-2.5317,-2.5211,-2.5211,-2.5264,0.0,0.0,0.0,0.0,0.0,-2.8577,0.0,0.0,0.0,0.0,0.0,-3.1984,-3.2719,0.0,0.0,-3.3414,-3.3414,-3.3414,0.0,-3.3187,-3.3053,-3.2973,-3.2973,-3.2772,-3.2585,-3.2772,-3.2826,0.0,0.0,0.0,-3.324,-3.2452,0.0,0.0,0.0,0.0,0.0,0.0,0.0,0.0,0.0,0.0,0.0,0.0,0.0,0.0,0.0,0.0,0.0,0.0,0.0,0.0,0.0,0.0,0.0,0.0,0.0,0.0,0.0,-3.9319,-3.8982,-3.8865,-3.8646,-3.869,-3.9026,-3.8704,-3.8704,-3.9026,-3.8909,-3.9026,-3.9363,-3.9685,-4.0007,-4.0329,-4.0446,-4.049,-4.049,-4.049,-4.049,-4.049,-4.049,-4.049,-4.0519,-4.0855,-4.0899,-4.0855,-2.6607,-2.627,-2.5926,-2.5951,-2.6655,0.0,0.0,0.0,0.0,0.0,-3.0051,0.0,-3.0709,0.0,-3.0664,0.0,-3.0778,-3.0448,-2.9953,-2.9659,0.0,-2.9352,-2.8056,0.0,0.0,0.0,0.0,-2.5972,-2.5772,-2.5678,0.0,0.0,0.0,0.0,0.0,0.0,0.0,0.0,-3.0555,0.0,0.0,-3.2265,0.0,0.0,-3.328,-3.3106,0.0,-3.3173,-3.3253,-3.3253,-3.32,-3.316,-3.336,-3.316,-3.2893,-3.308,-3.3213,-3.328,-3.316,-3.3641,0.0,-3.308,-3.3,0.0,-3.1784,0.0,0.0,0.0,0.0,0.0,0.0,0.0,0.0,0.0,0.0,0.0,0.0,0.0,0.0,0.0,0.0,0.0,0.0,0.0,0.0,0.0,0.0,0.0,0.0,0.0,-3.9143,-3.9026,-3.8704,-3.869,-3.9026,-3.8821,-3.8821,-3.9026,-3.9143,-3.9304,-3.9524,-3.9846,-4.0182,-4.049,-4.049,-4.049,-4.049,-4.049,-4.049,-4.049,-4.049,-4.049,-4.0519,-4.0855,-4.1046,-4.1207,-2.6774,-2.6558,-2.6351,-2.7114,-2.7717,0.0,0.0,0.0,-3.0397,0.0,-3.0534,-3.1022,-3.0808,-3.0822,-3.0808,-3.0808,-3.1049,0.0,-3.002,-3.0207,0.0,0.0,-2.9379,-2.9192,-2.9526,0.0,0.0,0.0,-2.6293,-2.5999,-2.6012,0.0,0.0,0.0,-2.7455,0.0,-2.9526,-2.982,-3.0621,-3.1744,-3.2332,-3.2719,-3.2986,-3.328,0.0,-3.2545,-3.2559,-3.2746,-3.2973,-3.2973,-3.316,-3.3387,-3.3414,-3.3414,-3.3414,-3.3414,-3.3641,-3.3828,-3.3534,-3.3694,-3.3855,-3.3561,0.0,0.0,0.0,0.0,-3.3253,0.0,0.0,0.0,0.0,0.0,0.0,0.0,0.0,0.0,0.0,0.0,0.0,0.0,0.0,0.0,0.0,0.0,0.0,0.0,0.0,0.0,0.0,0.0,-3.9348,-3.9056,-3.8734,-3.8704,-3.8997,-3.9012,-3.9012,-3.9012,-3.9363,-3.9524,-3.9524,-3.986,-4.0197,-4.0475,-4.0475,-4.0475,-4.0475,-4.0475,-4.0475,-4.049,-4.049,-4.049,-4.0563,-4.0885,-4.1207,-4.1529,-2.7859,-2.8347,-2.8571,-2.8233,-2.7643,-2.7679,0.0,0.0,0.0,0.0,-3.0804,-3.106,-3.1383,-3.1249,-3.1116,-3.1116,-3.0982,0.0,0.0,0.0,0.0,-3.0875,-2.97,-2.9379,-3.0114,-2.8537,0.0,-2.7802,0.0,0.0,-2.66,0.0,0.0,0.0,0.0,0.0,-2.982,-3.0127,-3.0915,-3.2038,-3.2625,-3.2786,0.0,0.0,-3.2866,-3.2572,-3.2786,-3.2919,-3.2973,-3.2973,-3.3026,-3.3133,-3.3347,-3.3414,-3.3414,-3.3414,-3.3641,-3.3921,-3.4055,-3.4309,-3.4469,-3.4162,-3.3935,-3.3587,0.0,0.0,0.0,0.0,0.0,0.0,0.0,0.0,0.0,0.0,0.0,0.0,0.0,0.0,0.0,0.0,0.0,0.0,0.0,0.0,0.0,0.0,0.0,0.0,0.0,0.0,0.0,-3.9377,-3.907,-3.8821,-3.866,-3.8909,-3.8909,-3.8675,-3.948,-3.9743,-3.9538,-4.0095,-4.0184,-3.9804,-3.9804,-3.9804,-3.9804,-3.9804,-4.0023,-4.049,-4.049,-4.0651,-4.0885,-4.1207,-4.166,-4.2143,-2.8099,-2.8883,-2.9312,-2.9298,0.0,0.0,-2.8906,0.0,0.0,-3.0506,-3.0677,0.0,-3.1062,-3.1062,-3.1036,-3.1036,-3.0889,0.0,0.0,0.0,0.0,-3.0648,-3.0114,-3.0034,-3.0541,-2.9312,0.0,-2.8537,0.0,0.0,-2.7014,0.0,0.0,0.0,0.0,-2.8858,0.0,-3.0448,-3.1263,-3.2144,-3.2599,0.0,0.0,-3.3053,-3.2986,-3.2772,-3.3066,-3.3093,-3.2959,-3.2826,-3.2959,-3.3173,-3.3213,-3.3307,-3.3414,-3.3414,-3.3641,-3.3921,-3.4082,-3.4349,-3.4536,-3.4362,-3.4295,-3.4108,-3.3507,-3.3708,-3.3975,0.0,0.0,0.0,0.0,0.0,0.0,0.0,0.0,0.0,0.0,0.0,0.0,0.0,0.0,0.0,0.0,0.0,0.0,0.0,0.0,0.0,0.0,0.0,0.0,-3.9495,-3.9334,-3.9012,-3.8543,-3.9012,-3.8997,-3.8543,-3.931,-3.9601,-3.9538,-3.9965,-3.9818,-3.9585,-3.9585,-3.9351,-3.9132,-3.9571,-3.9804,-4.0037,-4.0475,-4.0768,-4.1207,-4.1368,-4.1763,-4.2187,0.0,0.0,0.0,0.0,0.0,0.0,0.0,-2.9515,0.0,-3.0025,0.0,-3.0421,-3.0421,-3.0608,-3.0742,0.0,0.0,-3.0461,-2.9953,-3.0434,-3.0515,-2.9993,-3.0461,-3.0755,-3.0795,-3.0181,0.0,0.0,0.0,0.0,-2.7321,-2.7575,0.0,0.0,0.0,0.0,0.0,-3.0822,-3.1583,0.0,-3.2452,-3.2732,-3.2959,-3.3334,-3.332,-3.3133,-3.3427,-3.3293,-3.2946,-3.2732,-3.2973,-3.332,-3.3106,-3.3213,-3.3414,-3.3414,-3.3614,-3.3828,-3.3881,-3.4068,-3.4282,-3.4362,-3.4576,-3.4643,-3.4162,-3.4456,-3.4763,-3.4536,-3.4496,-3.4643,0.0,0.0,0.0,0.0,0.0,0.0,0.0,0.0,0.0,0.0,0.0,0.0,0.0,0.0,0.0,0.0,0.0,0.0,0.0,0.0,0.0,-3.9339,-3.931,0.0,-3.8466,0.0,-3.899,-3.8408,-3.894,-3.9199,-3.931,-3.9516,-3.938,-3.9366,-3.9366,-3.9146,-3.8678,-3.9132,-3.9585,-3.9804,-4.0271,-4.0841,-4.1159,-4.1202,-4.1406,-4.1726,0.0,0.0,0.0,0.0,0.0,-3.0505,-3.024,-2.9927,-2.9972,-3.0423,-3.0563,0.0,-3.0715,-3.0541,-3.0434,-3.0434,-3.0207,0.0,0.0,0.0,0.0,-3.0287,-3.0381,-3.0541,-3.0795,-2.998,-2.9513,0.0,0.0,0.0,0.0,0.0,0.0,0.0,0.0,0.0,-3.0608,-3.1303,0.0,-3.181,-3.2585,-3.2786,-3.2706,-3.3507,-3.3774,-3.3761,-3.4055,-3.3654,-3.3013,-3.32,-3.3173,-3.3093,-3.328,-3.3374,-3.3414,-3.3414,-3.3454,-3.3547,-3.3814,-3.3921,-3.4082,-3.4563,-3.4723,-3.4803,-3.4937,-3.5044,-3.5177,-3.5364,-3.5404,-3.5351,-3.5217,0.0,0.0,0.0,0.0,0.0,0.0,0.0,0.0,0.0,0.0,0.0,0.0,0.0,0.0,0.0,0.0,0.0,0.0,0.0,0.0,0.0,-3.8998,0.0,0.0,0.0,-3.8028,-3.8096,-3.8608,-3.8764,-3.8669,-3.8849,-3.85,-3.8059,-3.8059,-3.8046,-3.8046,-3.872,-3.938,-4.0242,-4.0475,-4.0489,-4.038,-4.0653,-4.0941,-4.1272,0.0,0.0,0.0,0.0,0.0,0.0,0.0,-3.0415,0.0,-3.0285,-3.0214,-3.0114,-3.0114,-3.0127,-3.0127,-3.0127,-2.9993,-2.9913,-2.9913,-3.0047,-3.0127,-3.0127,-3.0127,0.0,-3.0341,0.0,-2.9553,-2.9259,0.0,0.0,0.0,0.0,0.0,0.0,0.0,-2.99,0.0,0.0,0.0,-3.1944,-3.2519,-3.2759,-3.2853,-3.3601,-3.3881,-3.3948,-3.4389,-3.4175,-3.3668,-3.3654,-3.3668,-3.3668,-3.3654,-3.3761,-3.3881,-3.3881,-3.3881,-3.3881,-3.3881,-3.3881,-3.3961,-3.4242,-3.4429,-3.4616,-3.4897,-3.5084,-3.5231,-3.5378,-3.5404,-3.5311,-3.503,-3.4616,0.0,0.0,0.0,0.0,0.0,0.0,0.0,0.0,0.0,0.0,0.0,0.0,0.0,0.0,0.0,0.0,0.0,0.0,0.0,0.0,0.0,0.0,0.0,0.0,0.0,-3.7504,-3.7637,-3.7846,-3.8226,-3.8208,-3.8059,-3.7839,-3.7839,-3.7618,-3.737,-3.8266,-3.9132,-4.0052,-4.0665,-4.0385,-4.01,-4.0601,-4.0888,-4.1045,0.0,-3.1582,0.0,0.0,-3.1744,0.0,0.0,-3.0758,-3.0247,-2.9953,-2.9713,-2.9579,-2.9579,-2.978,-2.9913,-2.9913,-2.998,-3.0007,-3.0007,-3.0074,-3.01,-3.01,-3.01,-3.01,-3.01,-3.01,-2.982,0.0,0.0,0.0,0.0,0.0,0.0,0.0,0.0,0.0,0.0,0.0,-3.1784,-3.2131,-3.2425,-3.2719,-3.3053,-3.3721,-3.4015,-3.4148,-3.467,-3.471,-3.4469,-3.4242,-3.4229,-3.4282,-3.4055,-3.4135,-3.4322,-3.4322,-3.4322,-3.4269,-3.4042,-3.3975,-3.4002,-3.4055,-3.4242,-3.4496,-3.479,-3.503,-3.5217,-3.5271,-3.5338,-3.5297,-3.5004,-3.4857,0.0,0.0,0.0,0.0,0.0,0.0,0.0,0.0,0.0,0.0,0.0,0.0,0.0,0.0,0.0,0.0,0.0,0.0,0.0,0.0,0.0,-3.7596,-3.6896,0.0,-3.7053,0.0,-3.6731,-3.6991,-3.7582,-3.7551,-3.7618,-3.7618,-3.7618,-3.737,-3.7162,-3.8266,-3.8912,-3.9614,-4.062,-4.0559,-3.9797,-4.0661,-4.0889,-4.0689,0.0,0.0,0.0,0.0,0.0,0.0,0.0,-3.0528,-3.0247,-2.9953,-2.9887,-2.9873,-2.9873,-2.99,-2.9913,-2.9913,-3.0167,-3.0314,-3.0314,-3.0568,-3.0715,-3.0715,-3.0715,-3.0715,-3.0715,-3.0715,-3.0421,0.0,0.0,0.0,0.0,0.0,0.0,0.0,0.0,0.0,0.0,-3.1343,-3.1597,-3.2131,-3.2425,-3.2719,-3.3066,-3.3948,-3.4442,-3.4723,-3.5044,-3.5137,-3.511,-3.5084,-3.4736,-3.4322,-3.4282,-3.4295,-3.4322,-3.4322,-3.4322,-3.4309,-3.4282,-3.4282,-3.4349,-3.4616,-3.4696,-3.4803,-3.5084,-3.5177,-3.5271,-3.5538,-3.5805,-3.5899,-3.5605,-3.5965,-3.5952,0.0,0.0,0.0,0.0,0.0,0.0,0.0,0.0,0.0,0.0,0.0,0.0,0.0,0.0,0.0,0.0,0.0,0.0,-3.8434,0.0,-3.6326,-3.5845,-3.6114,-3.6315,-3.6457,-3.6613,-3.6761,-3.695,-3.688,-3.6941,-3.6941,-3.6941,-3.7176,-3.7825,-3.8472,-3.8692,-3.894,-4.0385,-4.002,-3.8995,-4.0059,-4.0296,-3.9889,0.0,0.0,0.0,0.0,0.0,0.0,0.0,-3.0541,-3.0247,-2.9953,-2.9913,-2.998,-3.0167,-3.0181,-3.0247,-3.0434,-3.0555,-3.0621,-3.0621,-3.0728,-3.0795,-3.0795,-3.0795,-3.0795,-3.0795,-3.0795,-3.0595,0.0,0.0,0.0,0.0,0.0,0.0,0.0,0.0,-3.1289,-3.1677,-3.1917,-3.2158,-3.2385,-3.2492,-3.2719,-3.308,-3.3975,-3.4509,-3.4803,-3.5097,-3.5191,-3.5191,-3.5191,-3.5044,-3.4843,-3.4843,-3.4843,-3.4843,-3.4843,-3.4843,-3.4817,-3.4629,-3.4589,-3.4616,-3.4736,-3.4763,-3.4843,-3.5137,-3.5191,-3.5231,-3.5351,-3.5605,-3.5819,-3.5885,-3.5939,-3.5992,0.0,0.0,0.0,0.0,0.0,0.0,0.0,0.0,0.0,0.0,0.0,0.0,0.0,0.0,0.0,0.0,0.0,0.0,-3.7405,0.0,-3.6302,-3.5378,-3.5658,-3.5752,-3.6058,-3.6262,-3.649,-3.6557,-3.674,-3.6941,-3.6941,-3.6941,-3.6954,-3.7397,-3.7811,-3.8252,-3.8308,-3.9698,-3.9392,-3.8591,-3.9779,-4.0,-3.9713,-3.2935,0.0,-3.301,0.0,-3.2001,-3.1759,-3.1089,-3.0728,-3.0408,-3.0207,-3.01,-3.0127,-3.0341,-3.0434,-3.0568,-3.0768,-3.0875,-3.0915,-3.0915,-3.0996,-3.1049,-3.1049,-3.1049,0.0,-3.1049,-3.1049,-3.0902,-3.0621,-3.0408,0.0,0.0,-2.9513,0.0,0.0,-3.1423,-3.1917,-3.2064,-3.2225,-3.2332,-3.2412,-3.2412,-3.2692,-3.3187,-3.3908,-3.4482,-3.4923,-3.5124,-3.5191,-3.5191,-3.5191,-3.5191,-3.5191,-3.5191,-3.5191,-3.5191,-3.5191,-3.5191,-3.5151,-3.495,-3.4897,-3.4897,-3.4897,-3.4897,-3.495,-3.5151,-3.5191,-3.5191,-3.5191,-3.5364,-3.5591,-3.5885,-3.5845,-3.5939,-3.646,0.0,0.0,0.0,0.0,0.0,0.0,0.0,-3.5912,0.0,0.0,0.0,0.0,0.0,0.0,0.0,0.0,0.0,0.0,0.0,0.0,0.0,-3.5565,-3.5712,-3.5631,-3.5939,-3.6219,-3.6513,-3.6794,-3.6941,-3.6941,-3.6941,-3.6941,-3.6941,-3.7618,-3.7672,-3.7781,-3.9196,-3.9166,-3.8583,-3.985,-4.0069,-3.9739,-3.3116,-3.2922,-3.2545,-3.2545,-3.2291,-3.1998,-3.1704,-3.1156,-3.0782,-3.0782,-3.0528,-3.0354,-3.0354,-3.0621,-3.0795,-3.0795,-3.1049,-3.1223,-3.1223,-3.149,-3.1664,0.0,0.0,-3.1664,-3.1664,-3.1664,-3.1517,-3.1209,0.0,0.0,-2.99,-2.9913,-3.0528,-3.1637,-3.1356,-3.1877,-3.2906,-3.2038,-3.1851,-3.2104,-3.2104,-3.2625,-3.344,-3.3774,-3.4429,-3.5191,-3.5191,-3.5191,-3.5191,-3.5191,-3.5191,-3.5191,-3.5191,-3.5191,-3.5191,-3.5191,-3.5191,-3.5191,-3.5191,-3.5191,-3.5191,-3.5191,-3.5191,-3.5191,-3.5191,-3.5191,-3.5191,-3.5191,-3.5204,-3.5284,-3.5578,-3.5872,-3.5979,-3.5698,0.0,0.0,0.0,0.0,0.0,0.0,-3.4349,-3.4028,-3.5498,0.0,0.0,0.0,0.0,0.0,0.0,0.0,0.0,-3.8664,-3.7319,0.0,-3.5204,-3.5778,-3.5925,-3.5631,-3.5939,-3.6219,-3.6513,-3.6794,-3.6941,-3.6941,-3.6941,-3.6941,-3.6941,-3.7618,-3.7573,-3.7619,-3.9055,-3.9312,-3.8771,-4.0066,-4.0033,-3.968,-3.2821,-3.2902,-3.2719,-3.2318,-3.2171,-3.1931,-3.1436,-3.1036,-3.0795,-3.0795,-3.0715,-3.0728,-3.0929,-3.1036,-3.1169,0.0,-3.1476,-3.153,0.0,-3.1623,-3.1664,-3.1664,-3.1664,-3.1664,-3.1664,-3.1664,-3.1623,-3.153,0.0,0.0,0.0,-3.1022,-3.153,-3.2278,-3.2372,-3.2625,-3.2933,-3.2251,-3.2024,-3.2104,-3.2104,-3.2639,-3.3467,-3.3774,-3.4429,-3.5191,-3.5191,-3.5191,-3.5191,-3.5191,-3.5191,-3.5191,-3.5191,-3.5191,-3.5191,-3.5191,-3.5191,-3.5191,-3.5191,-3.5191,-3.5191,-3.5191,-3.5191,-3.5191,-3.5191,-3.5191,-3.5191,-3.5191,-3.5191,-3.5284,-3.5578,-3.5712,-3.5872,-3.6179,-3.6473,0.0,0.0,0.0,0.0,0.0,-3.6099,-3.6006,0.0,-3.5391,0.0,0.0,0.0,0.0,0.0,0.0,0.0,0.0,-3.737,0.0,-3.5498,-3.6072,-3.6326,-3.6233,-3.6326,-3.6513,-3.6794,-3.6901,-3.6941,-3.6941,-3.6941,-3.6941,-3.6941,-3.7377,-3.7404,-3.7168,-3.8546,-3.887,-3.8517,-3.9756,-4.0119,-3.996,-3.2612,-3.2692,-3.2666,-3.2185,-3.2104,-3.1944,-3.1463,-3.1142,-3.0996,-3.1102,-3.1022,-3.1062,-3.1356,-3.1396,0.0,-3.165,-3.1664,-3.1664,-3.1664,-3.1664,-3.1664,-3.1664,-3.1664,-3.1664,-3.1664,0.0,0.0,-3.1664,-3.149,-3.145,-3.1557,-3.1864,-3.2305,-3.2879,-3.2946,-3.304,-3.3093,-3.2398,-3.2038,-3.1944,-3.2064,-3.2639,-3.3467,-3.3774,-3.4429,-3.5191,-3.5191,-3.5191,-3.5191,-3.5191,-3.5191,-3.5191,-3.5191,-3.5191,-3.5191,-3.5191,-3.5191,-3.5191,-3.5191,-3.5191,-3.5191,-3.5191,-3.5191,-3.5191,-3.5191,-3.5191,-3.5191,-3.5191,-3.5191,-3.5244,-3.5431,-3.5551,-3.5792,-3.6273,-3.6433,-3.6607,-3.6901,0.0,0.0,0.0,0.0,0.0,0.0,-3.6019,0.0,0.0,0.0,0.0,0.0,0.0,0.0,-3.7497,-3.7606,0.0,-3.6126,-3.638,-3.65,-3.65,-3.662,-3.6754,-3.6941,-3.6941,-3.6941,-3.6941,-3.6941,-3.7008,-3.7128,-3.7301,-3.7422,-3.7529,-3.8397,-3.8731,-3.8878,-3.9706,-4.0107,-4.0214,-3.2492,-3.2505,-3.2425,0.0,-3.2078,0.0,-3.1704,-3.1423,-3.133,-3.1623,-3.141,-3.1343,-3.1637,-3.1664,-3.1664,-3.1664,0.0,0.0,0.0,-3.1664,-3.1664,-3.1664,-3.1664,-3.1664,-3.1664,-3.1664,-3.1664,-3.1664,-3.1664,-3.181,-3.2078,-3.2398,-3.2839,-3.3374,-3.3093,-3.3133,-3.332,-3.2465,-3.1931,-3.169,-3.1971,-3.2612,-3.344,-3.3748,-3.4416,-3.5191,-3.5191,-3.5191,-3.5191,-3.5191,-3.5191,-3.5191,-3.5191,-3.5191,-3.5191,-3.5191,-3.5191,-3.5191,-3.5191,-3.5191,-3.5191,-3.5191,-3.5191,-3.5191,-3.5191,-3.5191,-3.5191,-3.5191,-3.5191,-3.5191,-3.5191,-3.5418,-3.5698,-3.6019,-3.6299,-3.658,-3.6901,-3.6941,-3.6647,0.0,0.0,0.0,0.0,-3.5939,-3.6099,0.0,0.0,0.0,0.0,0.0,-3.7014,-3.9138,-3.8197,-3.7555,-3.6981,-3.6687,-3.654,-3.658,-3.6834,-3.6941,-3.6967,-3.6967,-3.6967,-3.6981,-3.6981,-3.7155,-3.7422,-3.7422,-3.7742,-3.8263,-3.8651,-3.9092,-3.9599,-3.992,-4.0254,-4.0481,0.0,0.0,-3.2118,-3.1824,-3.177,-3.1744,-3.1677,-3.1423,-3.133,-3.1623,-3.141,-3.1343,-3.1637,-3.1664,-3.1664,-3.1664,-3.1664,-3.1664,-3.1664,-3.1664,-3.1664,-3.1664,-3.1664,-3.1664,-3.1664,-3.1664,-3.1664,-3.1664,-3.1664,-3.1704,-3.1784,-3.2305,-3.2732,-3.308,-3.3013,-3.3013,-3.304,-3.2385,-3.1931,-3.1677,-3.1744,-3.2425,-3.3414,-3.3494,-3.4215,-3.5191,-3.5191,-3.5191,-3.5191,-3.5191,-3.5191,-3.5191,-3.5191,-3.5191,-3.5191,-3.5191,-3.5191,-3.5191,-3.5191,-3.5191,-3.5191,-3.5191,-3.5191,-3.5191,-3.5191,-3.5191,-3.5191,-3.5191,-3.5191,-3.5191,-3.5191,-3.5257,-3.5471,-3.5992,-3.6126,-3.6353,-3.6861,-3.7128,-3.7195,0.0,-3.7235,-3.7408,-3.7408,-3.7342,-3.7114,0.0,0.0,0.0,0.0,-3.6834,-3.7208,-3.8439,-3.7969,-3.7635,-3.7275,-3.6981,-3.6941,-3.7168,-3.7008,-3.7048,-3.7275,-3.7275,-3.7275,-3.7301,-3.7529,-3.7635,-3.7742,-3.7969,-3.7996,-3.8036,-3.9012,-3.9346,-3.9346,-4.0107,-4.0401,-4.0481,-3.173,-3.1797,-3.1851,-3.1704,-3.1664,-3.1664,-3.1664,-3.153,-3.149,-3.165,-3.153,-3.149,-3.165,-3.1664,-3.1664,-3.1664,-3.1664,-3.1664,-3.1664,-3.1664,-3.1664,-3.1664,-3.1664,-3.1664,-3.1664,-3.1664,-3.1664,-3.1664,-3.1664,-3.1664,-3.1677,-3.2131,-3.2505,-3.2786,-3.2786,-3.2786,-3.2759,-3.2438,-3.2064,-3.1717,-3.2251,-3.2853,-3.3467,-3.3881,-3.4509,-3.5191,-3.5191,-3.5191,-3.5191,-3.5191,-3.5191,-3.5191,-3.5191,-3.5191,-3.5191,-3.5191,-3.5191,-3.5191,-3.5191,-3.5191,-3.5191,-3.5191,-3.5191,-3.5191,-3.5191,-3.5191,-3.5231,-3.5364,-3.5391,-3.5431,-3.5578,-3.5591,-3.5738,-3.6193,-3.638,-3.662,-3.7088,-3.7382,-3.7569,-3.7569,-3.7849,-3.7996,-3.7996,-3.7996,-3.7823,-3.7342,0.0,0.0,-3.7529,-3.7529,-3.7742,-3.825,-3.7849,-3.7529,-3.7382,-3.7235,-3.7155,-3.7195,-3.7301,-3.7342,-3.7382,-3.7529,-3.7569,-3.7595,-3.7742,-3.7889,-3.8036,-3.8183,-3.825,-3.8317,-3.9239,-3.9493,-3.9452,-4.0187,-4.0481,-4.0481,-3.1853,-3.1664,-3.1664,-3.1664,-3.1664,-3.1664,-3.1664,-3.1664,-3.1664,-3.1664,-3.1664,-3.1664,-3.1664,-3.1664,-3.1664,-3.1664,-3.1664,-3.1664,-3.1664,-3.1664,-3.1664,-3.1664,-3.1664,-3.1664,-3.1664,-3.1664,-3.1664,-3.1664,-3.1664,-3.1664,-3.1677,-3.1971,-3.2238,-3.2478,-3.2532,-3.2545,-3.2545,-3.2545,-3.2251,-3.1891,-3.2933,-3.3414,-3.3601,-3.4389,-3.4897,-3.5191,-3.5191,-3.5191,-3.5191,-3.5191,-3.5191,-3.5191,-3.5191,-3.5191,-3.5191,-3.5191,-3.5191,-3.5191,-3.5191,-3.5191,-3.5191,-3.5191,-3.5191,-3.5191,-3.5191,-3.5231,-3.5324,-3.5578,-3.5672,-3.5778,-3.6019,-3.6072,-3.6126,-3.6286,-3.662,-3.6941,-3.7088,0.0,-3.7782,-3.7809,-3.8076,-3.8263,-3.8263,-3.829,-3.829,-3.8263,-3.829,-3.833,-3.833,-3.829,-3.8223,-3.8183,-3.7676,-3.7342,-3.7315,-3.7342,-3.7275,-3.7008,-3.7555,-3.7676,-3.7448,-3.7742,-3.7889,-3.7889,-3.7929,-3.8103,-3.833,-3.833,-3.8504,-3.8838,-3.9386,-3.964,-3.9746,-4.0294,-4.0481,-4.0481,-3.2232,-3.2043,-3.1664,-3.1664,-3.1664,-3.1664,-3.1664,-3.1664,-3.1664,-3.1664,-3.1664,-3.1664,-3.1664,-3.1664,-3.1664,-3.1664,-3.1664,-3.1664,-3.1664,-3.1664,-3.1664,-3.1664,-3.1664,-3.1664,-3.1664,-3.1664,-3.1664,-3.1664,-3.1664,-3.1664,-3.1677,-3.1971,-3.2131,-3.2185,-3.2438,-3.2545,-3.2545,-3.2545,-3.2492,-3.2452,-3.2879,-3.336,-3.3855,-3.4242,-3.4723,-3.5191,-3.5191,-3.5191,-3.5191,-3.5191,-3.5191,-3.5191,-3.5191,-3.5191,-3.5191,-3.5191,-3.5191,-3.5191,-3.5191,-3.5191,-3.5191,-3.5191,-3.5191,-3.5191,-3.5191,-3.5391,-3.5578,-3.5618,-3.5832,-3.6019,-3.6059,-3.6072,-3.5925,-3.5471,-3.6059,-3.6433,-3.5965,0.0,-3.7529,-3.7782,-3.8076,-3.8263,-3.8263,-3.8504,-3.8544,-3.829,-3.8504,-3.8651,-3.8651,-3.8397,-3.8143,-3.7889,-3.7569,-3.7275,-3.7008,-3.7275,-3.7342,-3.7315,-3.7662,-3.7782,-3.7742,-3.8036,-3.8183,-3.8223,-3.8464,-3.8611,-3.8651,-3.8651,-3.8838,-3.9118,-3.9452,-3.9746,-4.0,-4.0361,-4.0481,-4.0481,-3.2408,-3.2232,-3.2043,-3.1664,-3.1664,-3.1664,-3.1664,-3.1664,-3.1664,-3.1664,-3.1664,-3.1664,-3.1664,-3.1664,-3.1664,-3.1664,-3.1664,-3.1664,-3.1664,-3.1664,-3.1664,-3.1664,-3.1664,-3.1664,-3.1664,-3.1664,-3.1664,-3.1664,-3.1664,-3.1664,-3.1677,-3.181,-3.1864,-3.1877,-3.2171,-3.2305,-3.2332,-3.2639,-3.2599,-3.2385,-3.332,-3.3668,-3.3721,-3.4496,-3.4963,-3.5191,-3.5191,-3.5191,-3.5191,-3.5191,-3.5191,-3.5191,-3.5191,-3.5191,-3.5191,-3.5191,-3.5191,-3.5191,-3.5191,-3.5191,-3.5231,-3.5391,-3.5431,-3.5471,-3.5631,-3.5778,-3.5912,-3.6072,-3.6206,-3.6353,-3.65,-3.654,-3.6433,-3.6179,-3.662,-3.6874,-3.662,-3.7168,-3.7676,-3.7809,-3.7929,-3.8036,-3.8036,-3.8143,-3.825,-3.8263,-3.825,-3.8357,-3.8718,-3.829,-3.7956,-3.7809,-3.7382,-3.7088,-3.6941,-3.7382,-3.7529,-3.7382,-3.7849,-3.8036,-3.8076,-3.8183,-3.837,-3.8504,-3.8651,-3.8718,-3.8731,-3.8905,-3.9052,-3.9199,-3.9666,-3.992,-4.0067,-4.0361,-4.0481,-4.0481,-3.2786,-3.2597,-3.2421,-3.2043,-3.1853,-3.1853,-3.1853,-3.1853,-3.1664,-3.1664,-3.1664,-3.1664,-3.1664,-3.1664,-3.1664,-3.1664,-3.1664,-3.1664,-3.1664,-3.1664,-3.1664,-3.1664,-3.1664,-3.1664,-3.1664,-3.173,-3.177,-3.177,-3.1837,-3.1837,-3.177,-3.177,-3.173,-3.1677,-3.1971,-3.2144,-3.2238,-3.2826,-3.2826,-3.2519,-3.3881,-3.4108,-3.3734,-3.479,-3.5191,-3.5191,-3.5191,-3.5191,-3.5191,-3.5191,-3.5191,-3.5191,-3.5191,-3.5191,-3.5191,-3.5191,-3.5191,-3.5191,-3.5191,-3.5244,-3.5351,-3.5578,-3.5685,-3.5792,-3.6019,-3.6126,-3.6233,-3.6473,-3.654,-3.6687,-3.6901,-3.6941,-3.6861,-3.6687,-3.7008,-3.7195,-3.7021,-3.7342,-3.7635,-3.7702,-3.7702,-3.7702,-3.7702,-3.7782,-3.7889,-3.8036,-3.7969,-3.8103,-3.8584,-3.825,-3.7956,-3.7809,-3.7235,-3.6981,-3.7048,-3.7555,-3.7702,-3.7489,-3.8076,-3.833,-3.8263,-3.833,-3.8504,-3.8718,-3.8718,-3.8718,-3.8758,-3.9052,-3.9199,-3.9306,-3.9813,-4.0067,-4.0174,-4.0401,-4.0481,-4.0481,-3.3728,-3.3351,-3.3177,-3.3177,-3.2611,-3.2408,-3.2408,-3.2043,-3.1664,-3.1664,-3.1664,-3.1664,-3.1664,-3.1664,-3.1664,-3.1664,-3.1664,-3.1664,-3.1664,-3.1664,-3.1664,-3.1664,-3.1664,-3.1664,-3.1664,-3.1931,-3.2064,-3.2064,-3.2345,-3.2345,-3.2064,-3.2064,-3.1931,-3.1677,-3.1971,-3.2251,-3.2559,-3.3133,-3.3347,-3.34,-3.4349,-3.4536,-3.4322,-3.495,-3.5191,-3.5191,-3.5191,-3.5191,-3.5191,-3.5191,-3.5191,-3.5191,-3.5191,-3.5191,-3.5191,-3.5191,-3.5191,-3.5191,-3.5191,-3.5391,-3.5605,-3.5631,-3.5832,-3.6046,-3.6072,-3.6286,-3.6473,-3.65,-3.6727,-3.6901,-3.6941,-3.6941,-3.6687,-3.5859,-3.6433,-3.6687,-3.5872,-3.646,-3.7114,-3.7382,-3.7422,-3.7422,-3.7422,-3.7662,-3.7702,-3.7462,-3.7929,-3.825,-3.829,-3.8504,-3.8397,-3.7823,-3.7235,-3.7088,-3.7342,-3.7662,-3.7809,-3.7782,-3.8397,-3.8544,-3.8263,-3.8544,-3.8691,-3.8718,-3.8718,-3.8718,-3.8758,-3.9052,-3.9306,-3.9599,-3.992,-4.0214,-4.0441,-4.0481,-4.0481,-4.0481,-3.3916,-3.3728,-3.354,-3.3163,-3.2974,-3.28,-3.2408,-3.2232,-3.2043,-3.1664,-3.1664,-3.1664,-3.1664,-3.1664,-3.1664,-3.1664,-3.1664,-3.1744,-3.1931,-3.1931,-3.1851,-3.1677,-3.1837,-3.1931,-3.1931,-3.2225,-3.2372,-3.2372,-3.2492,-3.2492,-3.2372,-3.2372,-3.2318,-3.2225,-3.2519,-3.2706,-3.2839,-3.324,-3.3414,-3.3467,-3.4202,-3.4416,-3.4389,-3.4977,-3.5191,-3.5191,-3.5191,-3.5191,-3.5191,-3.5191,-3.5191,-3.5191,-3.5191,-3.5191,-3.5191,-3.5191,-3.5191,-3.5191,-3.5191,-3.5404,-3.5712,-3.6086,-3.6259,-3.6393,-3.658,-3.6687,-3.6754,-3.6754,-3.6861,-3.6941,-3.6941,-3.6941,-3.6834,-3.65,-3.6714,-3.6834,-3.65,-3.6727,-3.6981,-3.7088,-3.7114,-3.7114,-3.7114,-3.7195,-3.7301,-3.7382,-3.7422,-3.7595,-3.7969,-3.7929,-3.7782,-3.7555,-3.7155,-3.6981,-3.7114,-3.7555,-3.7809,-3.7809,-3.825,-3.8477,-3.8544,-3.8477,-3.8544,-3.8718,-3.8718,-3.8718,-3.8758,-3.9239,-3.9493,-3.964,-4.0107,-4.0361,-4.0481,-4.0481,-4.0481,-4.0481,-3.4305,-3.4118,-3.4118,-3.3742,-3.3554,-3.3351,-3.2974,-3.2597,-3.2232,-3.2043,-3.1853,-3.1664,-3.1664,-3.1664,-3.1664,-3.1664,-3.1757,-3.1891,-3.2091,-3.2185,-3.2158,-3.1957,-3.2131,-3.2238,-3.2238,-3.2532,-3.2679,-3.2679,-3.2772,-3.2772,-3.2679,-3.2679,-3.2639,-3.2559,-3.2853,-3.2973,-3.3013,-3.3494,-3.3641,-3.3614,-3.4322,-3.4536,-3.4509,-3.5004,-3.5191,-3.5191,-3.5191,-3.5191,-3.5191,-3.5191,-3.5191,-3.5191,-3.5191,-3.5191,-3.5191,-3.5191,-3.5191,-3.5217,-3.5311,-3.5538,-3.5859,-3.6273,-3.65,-3.6687,-3.6901,-3.6941,-3.6941,-3.6941,-3.6941,-3.6941,-3.6941,-3.6941,-3.6941,-3.6941,-3.6941,-3.6941,-3.6941,-3.6941,-3.6941,-3.6941,-3.6941,-3.6941,-3.6941,-3.6941,-3.7008,-3.7235,-3.7128,-3.7301,-3.7782,-3.7529,-3.7382,-3.7382,-3.7088,-3.6941,-3.6941,-3.7529,-3.7849,-3.7956,-3.825,-3.8504,-3.8718,-3.8504,-3.8504,-3.8718,-3.8718,-3.8758,-3.8905,-3.9386,-3.964,-3.9786,-4.0294,-4.0481,-4.0481,-4.0481,-4.0481,-4.0481,-3.471,-3.471,-3.471,-3.471,-3.4305,-3.3916,-3.3916,-3.2974,-3.2408,-3.2408,-3.2043,-3.1664,-3.1664,-3.1664,-3.1664,-3.1677,-3.1931,-3.2104,-3.2104,-3.2385,-3.2545,-3.2559,-3.2545,-3.2545,-3.2545,-3.2839,-3.2986,-3.2986,-3.3267,-3.3267,-3.2986,-3.2986,-3.2826,-3.2559,-3.2853,-3.2986,-3.304,-3.3935,-3.4148,-3.3961,-3.4843,-3.5017,-3.4803,-3.5084,-3.5191,-3.5191,-3.5191,-3.5191,-3.5191,-3.5191,-3.5191,-3.5191,-3.5191,-3.5191,-3.5191,-3.5191,-3.5191,-3.5257,-3.5551,-3.5845,-3.6072,-3.6072,-3.65,-3.6941,-3.6941,-3.6941,-3.6941,-3.6941,-3.6941,-3.6941,-3.6941,-3.6941,-3.6941,-3.6941,-3.6941,-3.6941,-3.6941,-3.6941,-3.6941,-3.6941,-3.6941,-3.6941,-3.6941,-3.6941,-3.6941,-3.6941,-3.7195,-3.7489,-3.7782,-3.7529,-3.7382,-3.7382,-3.7088,-3.6941,-3.6941,-3.7529,-3.7969,-3.8263,-3.8584,-3.8718,-3.8718,-3.8718,-3.8718,-3.8718,-3.8718,-3.8905,-3.9185,-3.9493,-3.9773,-4.0067,-4.0361,-4.0481,-4.0481,-4.0481,-4.0481,-4.0481,-3.471,-3.471,-3.4508,-3.4118,-3.3916,-3.3728,-3.2974,-3.2597,-3.2232,-3.2043,-3.1853,-3.1664,-3.1664,-3.1664,-3.1757,-3.1957,-3.1864,-3.1971,-3.2385,-3.2692,-3.2933,-3.3146,-3.2959,-3.2853,-3.2853,-3.3133,-3.328,-3.328,-3.3374,-3.3374,-3.328,-3.328,-3.324,-3.316,-3.324,-3.328,-3.332,-3.3801,-3.4082,-3.4229,-3.471,-3.4963,-3.5084,-3.5164,-3.5191,-3.5191,-3.5191,-3.5191,-3.5191,-3.5191,-3.5191,-3.5191,-3.5191,-3.5191,-3.5191,-3.5191,-3.5191,-3.5217,-3.5297,-3.5698,-3.6126,-3.6326,-3.6647,-3.6941,-3.6941,-3.6941,-3.6941,-3.6941,-3.6941,-3.6941,-3.6941,-3.6941,-3.6941,-3.6941,-3.6941,-3.6941,-3.6941,-3.6941,-3.6941,-3.6941,-3.6941,-3.7008,-3.7235,-3.7235,-3.7235,-3.7235,-3.7128,-3.7114,-3.7195,-3.7114,-3.7088,-3.7088,-3.6981,-3.6941,-3.6941,-3.7529,-3.7849,-3.7956,-3.8464,-3.8718,-3.8718,-3.8718,-3.8718,-3.8718,-3.8718,-3.8905,-3.9185,-3.9493,-3.9773,-4.0067,-4.0361,-4.0481,-4.0481,-4.0481,-4.0481,-4.0481,-3.471,-3.471,-3.4508,-3.3916,-3.3916,-3.354,-3.2786,-3.2597,-3.2232,-3.2043,-3.1853,-3.1664,-3.1664,-3.1664,-3.1784,-3.2078,-3.2158,-3.2385,-3.2853,-3.3053,-3.3227,-3.34,-3.324,-3.3146,-3.3146,-3.332,-3.3414,-3.3414,-3.3414,-3.3414,-3.3414,-3.3414,-3.348,-3.3587,-3.3467,-3.3547,-3.3788,-3.3975,-3.4229,-3.4523,-3.4817,-3.5044,-3.5191,-3.5191,-3.5191,-3.5191,-3.5191,-3.5191,-3.5191,-3.5191,-3.5191,-3.5191,-3.5191,-3.5191,-3.5191,-3.5191,-3.5191,-3.5217,-3.5338,-3.5712,-3.6139,-3.6433,-3.6727,-3.6941,-3.6941,-3.6941,-3.6941,-3.6941,-3.6941,-3.6941,-3.6941,-3.6941,-3.6941,-3.6941,-3.6941,-3.6941,-3.6941,-3.6941,-3.6941,-3.6941,-3.6941,-3.7008,-3.7195,-3.7195,-3.7195,-3.7195,-3.7048,-3.6941,-3.6941,-3.6941,-3.6941,-3.6941,-3.6941,-3.6941,-3.6941,-3.7529,-3.7809,-3.7809,-3.8437,-3.8718,-3.8718,-3.8718,-3.8718,-3.8731,-3.8838,-3.9052,-3.9346,-3.964,-3.9933,-4.0214,-4.0401,-4.0481,-4.0481,-4.0481,-4.0481,-4.0481,-3.471,-3.471,-3.4508,-3.3916,-3.3916,-3.3728,-3.3163,-3.2786,-3.2408,-3.2408,-3.2043,-3.1664,-3.1664,-3.169,-3.181,-3.2078,-3.2612,-3.3066,-3.336,-3.3374,-3.3387,-3.3414,-3.3414,-3.3414,-3.3414,-3.3414,-3.3387,-3.3334,-3.3387,-3.3414,-3.3414,-3.344,-3.3627,-3.3908,-3.3627,-3.3801,-3.4322,-3.4349,-3.4509,-3.479,-3.5084,-3.5191,-3.5191,-3.5191,-3.5191,-3.5191,-3.5191,-3.5191,-3.5191,-3.5191,-3.5191,-3.5191,-3.5191,-3.5191,-3.5191,-3.5191,-3.5191,-3.5257,-3.5511,-3.5832,-3.6139,-3.6393,-3.6714,-3.6941,-3.6941,-3.6941,-3.6941,-3.6941,-3.6941,-3.6941,-3.6941,-3.6941,-3.6941,-3.6941,-3.6941,-3.6941,-3.6941,-3.6941,-3.6941,-3.6941,-3.6941,-3.6941,-3.6981,-3.6981,-3.6981,-3.6981,-3.6941,-3.6941,-3.6941,-3.6941,-3.6941,-3.6941,-3.6941,-3.6941,-3.6941,-3.7529,-3.7809,-3.7809,-3.8437,-3.8718,-3.8718,-3.8718,-3.8718,-3.8731,-3.9012,-3.9306,-3.964,-3.9893,-4.0187,-4.0481,-4.0481,-4.0481,-4.0481,-4.0481,-4.0481,-4.0481,-3.471,-3.471,-3.4508,-3.3916,-3.3916,-3.354,-3.2786,-3.2408,-3.2232,-3.1853,-3.1664,-3.1664,-3.1664,-3.1877,-3.2038,-3.2091,-3.2438,-3.2759,-3.3053,-3.3066,-3.3173,-3.34,-3.3414,-3.3414,-3.3414,-3.3414,-3.3187,-3.2732,-3.3187,-3.3414,-3.3414,-3.3668,-3.3948,-3.4229,-3.4148,-3.4202,-3.4336,-3.4563,-3.471,-3.479,-3.5084,-3.5191,-3.5191,-3.5191,-3.5191,-3.5191,-3.5191,-3.5191,-3.5191,-3.5191,-3.5191,-3.5191,-3.5191,-3.5191,-3.5191,-3.5191,-3.5191,-3.5204,-3.5271,-3.5672,-3.6086,-3.6153,-3.654,-3.6941,-3.6941,-3.6941,-3.6941,-3.6941,-3.6941,-3.6941,-3.6941,-3.6941,-3.6941,-3.6941,-3.6941,-3.6941,-3.6941,-3.6941,-3.6941,-3.6941,-3.6941,-3.7008,-3.7275,-3.7275,-3.7275,-3.7275,-3.7088,-3.6941,-3.6941,-3.6941,-3.6941,-3.6941,-3.6941,-3.6941,-3.6941,-3.7529,-3.7809,-3.7809,-3.8437,-3.8718,-3.8718,-3.8718,-3.8718,-3.8718,-3.8798,-3.9118,-3.9599,-3.9666,-4.0,-4.0481,-4.0481,-4.0481,-4.0481,-4.0481,-4.0481,-4.0481,-3.471,-3.471,-3.4508,-3.3916,-3.3916,-3.3728,-3.2974,-3.2597,-3.2232,-3.2043,-3.1853,-3.1717,-3.1864,-3.2011,-3.2211,-3.2492,-3.2786,-3.3026,-3.3173,-3.3187,-3.3187,-3.32,-3.32,-3.3146,-3.3,-3.3133,-3.32,-3.3187,-3.3494,-3.3708,-3.3841,-3.4015,-3.4255,-3.4523,-3.4389,-3.4482,-3.4736,-3.475,-3.4843,-3.4977,-3.5137,-3.5191,-3.5191,-3.5191,-3.5191,-3.5191,-3.5191,-3.5191,-3.5191,-3.5191,-3.5191,-3.5191,-3.5191,-3.5191,-3.5191,-3.5191,-3.5191,-3.5231,-3.5364,-3.5738,-3.6099,-3.6246,-3.662,-3.6941,-3.6941,-3.6941,-3.6941,-3.6941,-3.6941,-3.6941,-3.6941,-3.6941,-3.6941,-3.6941,-3.6941,-3.6941,-3.6941,-3.6941,-3.6941,-3.6941,-3.6941,-3.7008,-3.7155,-3.7155,-3.7155,-3.7155,-3.7008,-3.6941,-3.6941,-3.6941,-3.6941,-3.6941,-3.6941,-3.7008,-3.7155,-3.7595,-3.7889,-3.8036,-3.8504,-3.8718,-3.8718,-3.8718,-3.8718,-3.8731,-3.8865,-3.9199,-3.9599,-3.9746,-4.0067,-4.0481,-4.0481,-4.0481,-4.0481,-4.0481,-4.0481,-4.0481,-3.471,-3.471,-3.4508,-3.4118,-3.4103,-3.3916,-3.3351,-3.2786,-3.2408,-3.2421,-3.2083,-3.1837,-3.2078,-3.2144,-3.2412,-3.3,-3.3227,-3.336,-3.3414,-3.3414,-3.3307,-3.3066,-3.3106,-3.3,-3.2706,-3.2986,-3.3307,-3.3654,-3.3814,-3.3988,-3.4162,-3.4322,-3.4523,-3.475,-3.4563,-3.4736,-3.5177,-3.4937,-3.4977,-3.5191,-3.5191,-3.5191,-3.5191,-3.5191,-3.5191,-3.5191,-3.5191,-3.5191,-3.5191,-3.5191,-3.5191,-3.5191,-3.5191,-3.5191,-3.5191,-3.5191,-3.5231,-3.5324,-3.5565,-3.5885,-3.6206,-3.6433,-3.6727,-3.6941,-3.6941,-3.6941,-3.6941,-3.6941,-3.6941,-3.6941,-3.6941,-3.6941,-3.6941,-3.6941,-3.6941,-3.6941,-3.6941,-3.6941,-3.6941,-3.6941,-3.6941,-3.6941,-3.6941,-3.6941,-3.6941,-3.6941,-3.6941,-3.6941,-3.6941,-3.6941,-3.6941,-3.6941,-3.6941,-3.7088,-3.7382,-3.7676,-3.7969,-3.8263,-3.8584,-3.8718,-3.8718,-3.8718,-3.8718,-3.8731,-3.9052,-3.9332,-3.964,-3.992,-4.0214,-4.0481,-4.0481,-4.0481,-4.0481,-4.0481,-4.0481,-4.0481,-3.471,-3.471,-3.471,-3.4508,-3.4508,-3.432,-3.3916,-3.3351,-3.2974,-3.2408,-3.2259,-3.2064,-3.2104,-3.2332,-3.2719,-3.3307,-3.316,-3.3146,-3.3387,-3.3414,-3.3387,-3.336,-3.3614,-3.3614,-3.3293,-3.3601,-3.3427,-3.2732,-3.3507,-3.3761,-3.3547,-3.4336,-3.4723,-3.4776,-3.4977,-3.5124,-3.5191,-3.5151,-3.5164,-3.5191,-3.5191,-3.5191,-3.5191,-3.5191,-3.5191,-3.5191,-3.5191,-3.5191,-3.5191,-3.5191,-3.5191,-3.5191,-3.5191,-3.5191,-3.5191,-3.5191,-3.5378,-3.5578,-3.5618,-3.6032,-3.6473,-3.65,-3.6727,-3.6941,-3.6941,-3.6941,-3.6941,-3.6941,-3.6941,-3.6941,-3.6941,-3.6941,-3.6941,-3.6941,-3.6941,-3.6941,-3.6941,-3.6941,-3.6941,-3.6941,-3.6941,-3.6941,-3.6941,-3.6941,-3.6941,-3.6941,-3.6941,-3.6941,-3.6941,-3.6941,-3.6941,-3.6941,-3.6941,-3.7088,-3.7382,-3.7676,-3.7969,-3.8263,-3.8584,-3.8718,-3.8718,-3.8718,-3.8718,-3.8731,-3.9052,-3.9332,-3.964,-3.992,-4.0214,-4.0481,-4.0481,-4.0481,-4.0481,-4.0481,-4.0481,-4.0481,-3.4988,-3.4958,-3.49,-3.4739,-3.471,-3.4695,-3.432,-3.393,-3.3351,-3.2974,-3.2681,-3.2557,-3.2332,-3.2759,-3.3133,-3.3387,-3.3293,-3.328,-3.34,-3.3414,-3.3414,-3.3414,-3.3387,-3.3387,-3.3414,-3.3387,-3.3347,-3.3293,-3.3694,-3.3895,-3.3935,-3.4496,-3.4763,-3.4776,-3.507,-3.5191,-3.5191,-3.5191,-3.5191,-3.5191,-3.5191,-3.5191,-3.5191,-3.5191,-3.5297,-3.5431,-3.5431,-3.5338,-3.5191,-3.5191,-3.5191,-3.5191,-3.5191,-3.5191,-3.5191,-3.5191,-3.5284,-3.5418,-3.5591,-3.5939,-3.6299,-3.6473,-3.6727,-3.6941,-3.6941,-3.6941,-3.6941,-3.6941,-3.6941,-3.6941,-3.6941,-3.6941,-3.6941,-3.6941,-3.6941,-3.6941,-3.6941,-3.6941,-3.6941,-3.6941,-3.6941,-3.6941,-3.6941,-3.6941,-3.6941,-3.6941,-3.6941,-3.6941,-3.6941,-3.6941,-3.6941,-3.6941,-3.6941,-3.7155,-3.7635,-3.7742,-3.8036,-3.8504,-3.8651,-3.8718,-3.8718,-3.8718,-3.8718,-3.8731,-3.9052,-3.9332,-3.964,-3.992,-4.0214,-4.0481,-4.0481,-4.0481,-4.0481,-4.0481,-4.0481,-4.0481]}]]